GFSSGP_250_spd_000.txt.gz
Wind_Speed
97 99 104 105 107 110 116 117 114 112 108 109 112 116 118 119 122 122 123 122 120 119 120 118 117 114 111 108 106 103 103 99 90 83 81 72 68 59 43 34 28 24 28 27 22 24 28 37 44
102 106 108 111 112 113 113 114 115 116 118 119 125 129 127 131 129 129 125 121 118 120 114 108 107 105 109 107 99 98 98 92 86 80 75 63 58 50 39 40 35 41 53 37 21 9 33 45 50
109 115 116 113 117 119 116 121 121 124 121 124 126 132 133 133 132 132 125 113 107 106 105 101 100 100 102 97 95 92 88 85 74 72 69 56 47 39 43 49 49 44 42 47 29 20 35 38 43
117 112 114 117 118 119 125 128 130 132 132 134 134 131 131 126 118 113 107 103 101 102 102 97 99 96 95 93 87 84 77 73 70 67 60 51 45 41 48 50 58 45 50 50 30 29 37 36 45
114 117 123 124 124 135 133 132 137 139 138 134 133 126 98 106 106 102 100 99 97 100 100 96 95 89 85 81 79 76 70 68 62 59 57 56 47 46 53 58 58 59 59 55 48 36 40 31 37
123 126 131 135 130 135 134 135 137 137 133 122 114 103 89 94 94 94 88 87 79 77 78 77 74 71 67 67 67 64 57 55 56 53 51 48 45 51 58 62 60 62 70 64 60 61 45 52 56
125 129 131 132 133 128 137 120 107 104 99 95 92 83 83 89 90 87 82 79 82 75 69 66 63 62 58 57 56 51 49 48 49 47 47 45 46 50 59 65 65 67 71 71 74 75 65 53 59
127 126 130 136 126 116 100 89 86 84 80 75 76 72 61 70 68 71 70 69 65 62 60 58 55 52 51 48 45 43 43 43 44 42 43 46 47 46 53 55 63 67 77 76 86 82 76 60 66
122 119 107 103 88 80 78 67 63 60 58 53 50 53 52 54 54 54 52 50 48 46 44 43 42 41 39 36 38 37 40 40 41 40 38 39 44 46 49 53 52 58 84 81 89 91 89 72 72
106 104 87 67 60 56 53 48 41 39 37 37 36 35 33 34 35 36 36 35 35 33 33 34 35 36 35 35 34 37 39 39 38 38 38 39 41 44 48 52 56 60 66 84 92 97 97 86 80
55 54 46 41 38 32 27 23 23 23 22 21 21 22 20 21 22 24 25 25 26 27 27 27 29 30 32 34 36 38 39 40 41 42 43 45 46 47 48 52 56 62 67 83 92 96 97 96 86
21 21 21 20 19 16 16 15 15 15 15 18 18 18 18 16 19 20 21 23 22 24 26 27 29 31 32 32 33 37 41 44 46 47 48 50 51 51 50 52 54 58 65 74 89 105 103 106 108
8 8 8 9 11 12 15 17 20 21 23 23 27 24 25 26 29 27 17 19 30 25 21 21 23 23 22 21 25 31 37 41 43 48 50 53 54 55 57 57 56 56 60 68 76 84 100 106 111
17 20 21 18 21 20 23 23 15 14 24 37 28 31 33 33 34 36 29 28 22 27 29 27 30 29 28 27 22 22 23 25 33 38 44 48 53 57 60 62 63 63 60 65 70 76 83 91 98
20 20 21 17 20 24 26 35 33 34 35 35 36 38 39 40 38 36 35 33 28 28 25 20 24 21 21 21 19 21 18 23 23 23 26 32 35 43 56 63 66 70 71 67 70 71 79 80 85
14 15 15 17 29 32 35 34 33 34 35 36 36 37 37 36 38 40 45 43 41 38 37 35 37 38 36 31 32 31 28 24 23 26 28 31 31 31 36 43 60 71 78 76 73 76 77 78 81
12 13 19 25 28 27 27 29 31 31 33 35 36 36 38 39 39 40 44 43 42 42 40 42 42 40 41 42 42 40 38 35 36 29 32 35 32 35 37 43 46 50 72 82 83 80 82 85 84
16 17 18 19 21 22 21 23 26 27 30 32 34 36 37 40 42 44 44 44 43 43 44 48 48 48 48 48 52 48 46 44 46 44 45 51 40 45 48 48 52 55 58 73 86 88 88 89 91
13 15 17 17 17 16 17 18 20 24 26 27 27 33 38 40 42 43 44 45 45 45 48 50 54 55 57 56 58 60 57 57 58 53 50 55 53 58 60 54 51 55 57 66 81 92 93 95 97
12 12 13 13 14 15 17 17 18 20 22 24 26 31 35 39 42 44 42 43 44 43 45 50 54 55 57 60 60 64 65 64 65 65 64 62 65 67 67 67 64 61 60 64 74 87 95 100 104
7 10 9 12 13 15 14 14 18 18 18 20 23 30 34 37 39 41 43 44 41 43 46 49 53 53 55 58 63 62 65 69 70 72 74 70 71 70 73 73 68 66 67 68 72 80 95 101 108
6 11 11 9 9 12 14 14 13 16 20 27 31 30 34 36 39 41 45 47 49 50 54 56 56 57 57 57 63 70 69 69 74 78 82 84 80 82 80 77 75 75 73 76 74 75 83 97 110
14 14 12 9 13 19 20 21 14 16 22 26 32 37 40 43 46 50 51 54 55 55 57 57 60 61 63 65 67 69 76 77 82 88 91 93 93 93 89 87 77 77 76 76 75 78 80 84 95
20 19 18 19 22 21 28 28 29 26 18 29 35 36 40 46 48 52 58 60 61 60 58 61 63 65 69 71 75 79 78 85 90 96 100 100 101 99 97 96 87 84 84 81 77 75 80 84 90
23 21 22 23 24 27 22 27 34 35 35 39 41 42 44 49 52 57 58 62 60 60 62 65 66 69 72 77 82 82 85 89 96 102 103 102 99 99 100 98 94 88 84 82 78 74 74 80 86
24 20 21 20 21 25 33 36 42 36 36 39 37 41 47 48 52 52 57 57 58 61 66 71 73 73 78 79 81 84 89 94 100 107 107 105 104 104 103 102 98 93 88 79 75 72 71 74 80
23 27 24 23 28 29 35 39 48 46 44 43 47 47 49 55 58 61 63 65 66 69 72 77 81 84 85 87 89 92 98 102 105 110 110 109 108 106 107 101 95 89 82 77 73 71 70 70 74
27 29 32 31 33 30 37 37 50 45 51 57 60 62 63 64 65 68 70 71 74 76 79 81 83 85 90 91 94 100 105 108 112 117 115 114 110 111 106 99 92 84 77 74 71 69 69 68 72
27 32 33 37 39 34 30 35 50 49 56 61 64 65 65 66 71 75 77 77 80 79 82 85 85 88 92 96 99 106 111 116 120 123 119 119 114 110 103 93 86 82 76 72 69 68 67 68 70
33 37 39 37 34 40 37 44 54 60 59 60 62 65 69 73 79 82 83 85 87 86 85 85 88 92 96 99 104 110 116 121 126 126 119 117 111 106 98 87 85 80 74 70 67 66 67 68 70

GFSSGP_250_spd_003.txt.gz
Wind_Speed
92 91 97 100 102 101 104 107 110 106 108 116 117 111 113 123 126 127 131 132 132 134 131 131 129 123 121 117 112 106 105 103 102 99 98 96 88 84 75 76 60 51 53 29 32 27 29 26 34
93 96 99 103 106 106 106 111 108 112 117 128 124 121 120 122 126 131 132 134 130 127 121 123 117 108 111 105 103 101 96 100 99 94 92 91 85 73 69 65 50 48 48 42 43 35 29 17 32
96 95 94 102 105 104 110 116 119 115 119 123 122 125 125 127 127 133 130 127 123 115 107 107 104 101 99 96 98 96 97 95 95 91 88 83 77 70 63 55 44 49 49 54 47 38 36 27 42
107 101 96 99 106 110 115 116 120 129 134 131 133 134 135 138 136 133 118 109 100 96 94 97 93 91 88 87 86 85 83 81 77 75 74 71 61 62 55 50 46 50 48 53 50 52 45 44 32
100 106 110 113 112 119 121 123 132 133 135 139 137 139 132 128 121 106 100 100 100 99 99 93 85 86 90 85 75 71 70 65 62 63 60 54 50 50 48 46 50 52 42 61 50 61 54 47 42
109 109 113 117 119 124 131 131 129 139 137 134 126 124 117 108 105 101 95 89 87 82 81 76 78 77 73 74 67 62 61 60 56 52 51 46 44 42 45 47 49 54 48 55 66 65 60 56 51
117 121 122 121 126 128 127 129 130 128 123 123 113 103 102 93 86 82 78 69 64 65 67 64 61 60 54 51 46 46 45 44 43 41 38 39 37 41 46 49 54 59 53 57 63 72 64 62 56
120 123 126 126 122 126 125 122 117 110 103 91 82 74 70 64 66 62 55 56 58 54 47 44 43 42 36 34 36 35 34 33 33 33 33 35 34 39 43 54 56 61 60 57 67 66 70 78 73
111 111 121 128 125 110 102 97 88 78 69 61 57 51 44 40 38 37 37 34 30 30 28 27 27 31 30 32 31 28 29 31 31 30 32 34 34 38 43 51 58 65 68 63 66 73 75 81 76
121 111 110 104 101 89 73 63 55 45 38 37 32 27 24 20 20 20 20 19 19 21 21 20 21 22 23 24 28 28 29 29 33 31 31 32 31 35 38 43 48 55 60 68 69 74 78 86 92
97 104 82 63 55 51 44 37 33 25 20 12 13 12 11 9 11 8 12 17 16 15 16 19 19 18 19 18 19 22 26 30 33 36 38 38 39 38 41 44 48 50 56 58 66 68 76 85 94
37 37 30 27 26 20 13 6 5 8 14 19 21 26 28 29 34 29 22 24 26 27 26 26 26 22 20 17 20 19 19 21 23 27 33 38 41 44 46 48 50 54 60 61 62 63 68 91 91
15 12 4 10 6 10 16 18 20 26 28 30 34 37 42 40 39 39 36 33 31 25 28 30 34 32 36 29 27 22 23 18 20 22 22 27 30 35 42 46 51 54 58 63 65 70 71 75 92
9 12 13 16 21 23 23 26 29 28 33 37 38 39 38 38 36 36 37 36 34 36 37 33 33 34 32 32 33 30 26 28 20 25 22 16 23 25 29 36 47 52 57 63 68 71 74 77 78
14 16 18 20 26 27 31 31 32 31 33 36 36 36 36 37 37 37 36 36 36 37 39 39 37 36 36 33 35 35 32 30 32 35 36 35 33 29 34 36 34 38 51 60 68 74 77 79 80
13 15 13 23 26 27 27 29 28 28 28 29 32 31 32 33 33 35 36 36 35 34 35 38 39 38 36 38 37 38 36 35 38 41 39 40 40 42 43 41 42 45 45 51 63 72 78 83 86
12 12 14 19 19 20 20 19 20 19 20 24 26 27 30 32 34 34 33 35 36 36 36 37 37 37 40 40 40 39 41 42 42 44 47 49 50 55 57 56 52 50 50 51 59 59 66 80 88
6 8 10 13 13 12 12 14 16 18 20 19 20 23 25 27 29 31 32 33 33 34 34 35 35 37 37 41 41 40 42 44 43 44 46 52 57 62 64 66 67 64 58 55 58 63 68 67 76
8 8 6 7 8 9 9 9 11 12 12 15 18 22 21 24 25 27 31 33 35 38 38 34 36 38 41 44 44 47 47 52 54 55 56 56 61 65 69 72 71 70 67 65 62 62 68 74 77
3 2 3 7 7 9 10 8 6 7 10 16 21 22 25 26 28 28 30 33 38 40 41 41 41 42 44 49 52 55 54 57 59 60 60 60 66 69 72 76 80 77 74 72 72 71 66 74 82
3 3 10 12 7 6 9 8 14 17 17 14 18 21 25 29 31 33 38 37 40 43 45 46 42 46 48 50 56 59 60 62 65 65 64 65 69 75 80 80 85 87 84 82 79 77 75 72 77
9 12 15 11 11 14 18 18 12 14 15 18 21 26 30 34 38 41 39 41 44 46 49 52 54 58 59 60 64 64 66 66 67 71 73 75 79 84 87 88 93 95 94 89 84 81 82 80 78
13 14 15 14 14 15 19 19 10 13 13 14 20 29 29 35 44 47 46 47 48 49 54 56 59 66 70 70 68 67 67 70 73 75 78 82 88 89 92 101 100 102 99 89 85 81 81 82 80
20 22 16 17 22 19 22 27 32 21 22 19 20 23 27 37 43 50 52 53 54 54 60 66 66 66 69 71 73 73 73 76 78 81 82 92 96 97 100 109 106 112 101 92 85 82 79 76 77
21 21 22 23 21 26 23 32 36 38 41 38 35 35 41 45 49 49 52 53 50 58 66 68 68 69 74 76 75 78 79 81 81 82 89 99 105 106 110 119 114 118 100 94 91 84 81 76 70
22 24 22 23 27 31 36 38 43 43 43 43 42 44 48 54 54 52 52 56 59 63 66 69 72 74 78 83 86 88 88 89 90 90 95 102 106 114 115 120 124 113 100 94 91 85 79 71 68
24 25 27 28 31 33 35 46 51 46 48 47 45 48 50 55 54 57 60 63 67 72 76 78 80 84 83 86 90 93 96 96 99 97 101 107 115 119 118 123 123 106 97 94 89 83 74 67 67
28 28 32 34 35 36 38 45 51 52 52 55 54 53 63 68 69 72 74 76 78 82 83 83 88 90 86 87 94 99 101 102 104 107 110 115 123 125 125 118 113 100 97 91 85 76 72 69 66
29 33 31 35 38 42 37 43 50 47 50 55 59 58 65 69 72 76 81 83 84 83 85 88 91 95 94 95 99 105 107 107 113 115 117 123 126 128 122 118 109 101 95 86 78 74 71 67 64
37 43 44 39 37 43 38 45 56 58 60 62 66 70 73 76 81 83 85 86 87 89 90 94 99 102 101 103 106 109 112 113 118 121 126 131 133 129 117 111 103 98 90 81 76 72 69 64 61

GFSSGP_250_spd_006.txt.gz
Wind_Speed
88 89 91 92 91 91 92 92 97 97 98 100 100 97 105 111 116 120 121 121 129 130 131 131 130 130 124 116 115 108 106 98 99 97 96 96 91 87 86 85 80 74 72 67 64 58 63 64 64
87 88 93 94 93 90 94 98 103 106 101 99 102 111 109 118 126 130 130 134 135 136 132 132 130 120 112 104 102 106 102 93 87 89 80 76 76 78 77 77 72 65 59 61 56 56 62 62 57
93 92 92 94 99 101 101 104 101 101 101 108 112 115 121 128 127 129 134 138 135 134 127 124 109 103 100 104 97 96 95 93 87 82 77 74 64 66 64 64 63 52 51 51 55 54 57 61 54
101 100 98 95 98 104 106 105 108 119 113 114 119 120 125 132 133 134 139 134 131 123 112 105 101 100 102 100 94 91 82 76 75 77 73 66 59 56 55 51 47 44 48 48 53 53 56 58 55
104 104 101 96 100 106 110 114 119 121 126 128 128 128 131 130 132 128 123 116 113 109 102 100 93 87 80 77 75 75 72 68 65 58 54 51 47 48 48 45 48 42 46 48 53 54 55 61 55
101 95 99 105 112 117 117 119 120 126 128 132 125 122 123 119 116 112 110 105 94 88 80 72 72 70 67 64 65 64 59 54 49 47 46 42 39 40 41 41 43 44 47 52 55 55 60 64 59
105 108 104 108 115 122 122 123 119 125 129 121 120 120 115 102 98 92 80 70 66 62 56 50 53 53 45 44 44 38 32 30 30 31 30 32 35 36 38 39 43 47 48 54 59 55 64 68 68
109 113 118 116 115 117 116 114 122 120 119 113 102 97 91 80 66 58 48 42 42 41 41 40 40 33 28 31 28 25 26 25 24 24 23 21 24 28 32 33 40 46 52 55 54 56 59 67 71
113 115 116 113 113 108 107 110 114 108 92 87 73 61 50 40 37 33 30 26 23 25 27 27 22 22 22 21 19 20 21 21 21 23 23 24 25 27 29 33 36 42 47 55 60 60 60 73 70
108 110 112 111 105 113 112 107 85 67 55 50 36 33 24 17 12 12 10 11 11 12 16 24 25 24 20 18 18 19 18 20 21 24 26 25 27 28 30 32 35 40 48 47 57 55 65 73 74
108 111 113 107 99 87 66 55 46 31 21 11 7 5 5 4 18 16 20 21 23 24 27 34 32 33 36 32 31 30 30 31 25 29 29 25 25 26 30 33 36 40 45 49 52 55 62 67 71
88 80 57 51 52 39 32 24 12 4 7 12 19 27 32 30 31 33 33 32 30 30 28 28 30 28 29 29 25 22 21 21 21 24 25 23 28 28 33 30 31 38 44 50 54 58 65 68 75
34 22 24 19 17 13 7 6 13 19 25 27 29 28 29 30 29 27 26 24 25 25 25 25 25 26 24 24 22 20 19 19 16 16 20 19 17 21 25 27 29 35 36 40 47 56 63 66 70
12 8 8 3 1 6 14 22 23 26 27 27 26 26 26 25 24 24 24 23 22 21 23 25 25 23 22 21 23 24 23 22 20 22 20 24 26 25 31 30 28 27 27 32 37 46 56 63 72
4 8 10 8 14 16 20 19 21 19 22 21 23 21 22 23 24 24 25 25 25 25 26 27 26 27 26 26 25 24 24 26 29 30 29 31 32 32 37 40 40 37 33 35 36 44 52 57 63
9 13 17 19 18 18 16 14 15 17 16 18 17 18 18 20 21 23 25 25 26 26 27 26 24 26 29 29 31 34 34 35 35 36 35 37 39 38 38 39 40 43 47 49 48 49 45 53 59
6 10 14 12 11 10 9 9 9 10 9 10 12 13 15 16 17 18 20 21 23 25 26 27 28 28 30 32 34 36 38 41 39 42 43 44 44 43 40 43 46 50 51 51 54 60 56 53 51
8 6 9 8 7 3 1 1 1 0 2 5 9 13 12 12 16 20 24 27 27 27 29 30 31 31 33 35 37 41 45 49 49 47 48 50 51 51 49 49 51 53 57 59 61 64 65 65 62
8 11 12 10 8 7 7 7 5 6 5 9 12 12 12 13 20 22 25 29 30 31 33 32 36 38 39 40 43 47 49 51 49 46 46 47 50 54 54 53 54 59 63 66 68 72 74 75 71
11 11 10 10 10 12 10 12 11 11 9 13 12 12 17 21 26 26 30 33 35 37 40 40 40 43 42 44 47 49 51 53 54 55 55 56 59 59 60 61 62 66 71 73 77 82 84 83 84
12 13 13 15 15 13 17 16 18 22 21 20 27 23 25 29 30 34 39 42 45 45 47 47 47 47 46 50 52 54 57 62 65 65 66 66 65 68 71 70 74 75 74 80 83 87 92 91 89
13 16 21 21 21 21 24 25 19 15 20 24 23 26 34 36 37 39 44 49 52 52 53 54 55 59 60 63 66 63 64 69 70 68 68 70 72 73 76 76 78 79 82 83 86 92 95 96 96
20 22 21 23 25 25 24 27 25 20 26 24 22 28 35 36 38 39 46 51 53 55 58 62 65 67 68 68 71 72 72 76 76 77 78 80 81 83 86 88 88 89 92 94 95 99 102 102 98
20 18 20 21 25 29 29 31 29 27 20 24 33 36 34 37 43 45 51 54 56 58 63 67 69 68 71 71 71 76 78 77 79 81 83 85 88 91 95 99 101 100 102 102 105 106 105 104 92
19 23 24 23 27 29 28 34 33 36 34 33 32 37 39 45 50 52 56 57 62 66 68 70 72 72 72 73 77 80 83 85 88 90 93 97 97 97 101 103 105 108 110 112 114 112 110 97 88
20 23 26 27 26 31 37 41 44 44 45 45 46 46 48 53 56 57 60 64 68 70 72 75 75 76 77 81 85 87 91 96 99 102 104 106 109 108 109 112 114 118 121 121 118 113 99 92 88
23 26 26 28 28 29 37 46 51 50 48 47 49 51 54 60 63 67 70 72 74 76 77 79 82 85 89 91 92 95 99 103 107 109 111 113 115 118 119 122 126 123 120 115 109 99 95 91 87
31 33 30 29 28 30 36 51 56 49 48 50 52 55 59 63 68 71 72 74 76 79 82 86 90 92 93 95 98 101 105 110 115 118 121 123 123 123 123 122 119 119 114 108 100 96 90 85 81
38 38 37 40 44 46 42 44 49 47 49 51 55 60 65 68 70 73 77 81 82 84 87 91 96 100 103 104 107 111 116 121 124 126 125 123 120 116 115 115 114 111 105 102 97 89 83 79 75
49 49 43 39 37 39 35 41 49 52 53 56 60 63 67 70 74 78 84 87 89 92 97 101 104 106 109 113 118 122 125 127 129 126 126 123 117 111 109 107 102 99 95 90 85 81 78 72 70

GFSSGP_250_spd_009.txt.gz
Wind_Speed
77 77 79 79 82 83 83 86 86 90 92 98 102 101 103 107 107 113 114 113 119 126 124 125 130 126 127 124 120 121 118 114 110 109 104 103 101 98 93 94 87 85 78 75 71 64 62 57 49
89 93 90 87 89 90 92 89 92 96 100 101 104 103 104 105 112 116 120 120 128 132 131 131 128 126 120 120 117 115 114 108 106 106 101 100 98 92 92 79 73 65 67 63 57 56 51 51 47
92 96 96 91 89 96 96 99 95 99 104 106 104 107 113 115 124 126 129 133 134 134 130 127 117 117 116 113 105 101 100 93 91 89 80 77 71 71 73 73 72 68 59 57 50 46 47 47 45
94 89 90 98 95 102 105 103 102 103 105 114 116 116 119 119 129 132 126 125 128 128 127 116 109 107 98 93 84 77 73 74 64 66 66 66 68 68 65 64 58 57 50 49 45 43 47 52 51
93 97 101 103 104 100 104 107 107 112 112 107 108 119 121 126 129 127 128 124 119 120 115 107 98 86 73 69 69 65 60 58 59 56 56 53 52 53 52 52 48 46 43 43 41 43 50 55 57
96 100 99 101 101 100 105 106 104 105 113 119 120 120 122 122 127 127 115 114 111 101 85 69 65 63 56 53 53 52 51 48 46 43 41 40 41 40 39 41 43 43 41 43 41 46 51 58 56
100 102 103 111 108 106 105 113 121 121 120 123 126 120 119 122 114 108 102 79 70 56 55 47 43 40 38 37 39 37 36 34 31 31 31 29 29 29 28 29 33 38 40 41 42 47 53 57 54
110 110 109 111 122 116 120 124 124 126 131 134 130 122 111 94 89 75 61 54 50 39 30 27 25 25 23 19 20 19 19 20 19 19 20 22 22 23 25 26 27 28 33 37 42 45 52 57 53
107 109 115 115 111 115 124 125 125 126 120 114 106 86 76 55 50 50 42 35 24 14 13 7 9 7 5 4 4 7 12 14 13 14 14 14 16 19 24 25 26 28 30 31 35 41 51 54 57
113 117 118 121 114 111 110 106 102 98 93 91 73 58 39 29 24 19 12 3 5 6 10 14 15 15 14 14 12 11 19 22 24 24 26 25 26 26 20 21 21 27 31 33 35 39 41 51 54
105 104 100 102 97 96 89 87 71 70 60 47 36 17 13 4 3 1 9 14 15 16 20 20 21 21 21 22 21 21 20 19 19 19 20 20 21 20 22 23 24 22 19 26 35 39 41 47 48
92 86 89 86 76 64 56 47 35 37 31 19 11 4 9 14 14 15 13 12 18 20 20 20 19 21 22 22 21 20 18 16 14 15 17 14 16 16 15 17 19 19 21 21 19 24 36 44 50
77 67 70 47 36 35 30 23 15 10 2 7 13 16 16 16 17 15 15 15 14 15 17 18 19 18 19 20 21 22 21 21 22 22 19 20 19 20 22 25 26 25 25 23 20 20 21 28 35
37 28 28 20 15 13 8 8 7 11 14 15 13 11 12 14 15 17 18 19 19 18 18 20 20 18 21 24 24 26 27 28 27 29 29 27 26 26 27 27 26 26 24 21 25 26 21 17 22
25 18 11 6 7 9 12 14 13 10 10 8 6 7 8 9 9 12 16 19 20 20 19 21 22 22 23 25 26 26 28 31 35 37 37 34 32 32 35 34 32 32 32 32 32 32 30 33 36
8 3 9 11 13 13 10 9 9 5 5 2 1 1 4 6 8 11 14 18 23 25 25 25 25 24 26 27 30 32 33 33 34 37 37 35 34 34 36 37 38 40 42 42 40 41 43 44 43
10 12 16 16 17 11 8 7 7 9 7 7 7 6 8 10 13 15 17 18 23 26 28 31 33 34 33 35 35 36 38 41 41 40 42 42 43 44 44 45 47 47 49 50 51 52 53 55 54
11 15 18 14 13 10 12 12 13 12 14 14 15 18 21 21 24 30 31 29 33 33 33 35 37 38 38 39 42 46 47 48 50 51 50 50 52 53 53 51 51 51 53 56 59 60 61 63 64
14 14 13 15 14 15 16 18 18 17 19 17 18 22 24 26 28 34 36 33 35 38 40 42 41 39 40 43 47 52 56 57 58 58 53 53 56 57 57 59 60 60 60 62 65 68 68 68 68
10 14 15 14 15 19 20 20 18 20 24 24 26 29 28 29 30 37 42 41 40 43 45 48 49 47 47 49 53 58 62 61 62 62 60 60 62 64 65 66 68 67 67 69 73 76 78 78 79
15 18 20 22 20 23 24 25 21 26 29 32 34 34 37 38 34 40 43 47 50 53 54 55 57 59 61 62 62 62 64 64 66 67 69 70 71 71 72 75 76 78 80 82 81 82 86 90 90
20 21 24 26 28 30 29 29 29 33 34 31 32 35 39 42 41 48 48 49 52 56 58 60 62 65 67 66 67 67 68 69 70 73 76 79 81 81 84 86 87 89 90 90 90 91 92 93 97
22 23 27 28 29 29 31 32 32 34 37 36 34 38 34 42 49 49 51 52 55 56 58 61 65 69 70 71 70 71 73 76 78 80 83 86 88 91 93 96 99 101 103 103 102 102 102 103 104
24 23 23 22 22 24 28 30 30 31 33 35 38 40 38 45 47 50 52 52 55 59 63 65 67 67 70 72 75 77 79 82 86 90 92 95 97 99 101 102 104 107 110 110 107 104 103 101 101
23 22 21 24 27 28 30 30 32 33 35 34 40 43 43 45 48 50 53 56 59 63 65 66 67 72 76 78 81 85 89 93 97 99 101 103 105 106 108 113 112 110 109 108 104 101 100 96 95
20 23 25 25 29 33 35 37 41 36 34 42 39 37 42 47 51 53 56 60 63 66 69 72 76 81 83 86 90 94 97 102 105 110 112 113 112 112 115 108 106 104 102 101 97 95 92 92 91
21 22 24 27 31 35 43 49 48 48 47 40 37 44 48 52 54 57 61 64 68 73 76 80 84 88 92 93 96 100 102 106 110 113 115 116 115 112 108 107 105 99 95 93 92 88 87 85 84
26 26 30 34 37 41 47 53 47 44 39 44 48 51 54 58 61 63 67 72 79 82 84 87 92 95 97 99 102 105 108 112 116 119 121 119 113 109 103 98 95 92 90 88 87 85 84 82 80
33 35 38 43 46 46 34 39 45 46 48 52 55 58 59 61 65 70 75 81 85 86 89 92 96 96 98 103 109 113 118 119 119 121 119 116 112 106 95 90 89 88 87 86 85 82 81 80 79
38 41 44 40 36 37 36 42 46 50 53 57 59 61 65 69 74 79 83 85 86 89 92 98 102 106 111 114 118 122 121 120 121 117 111 110 102 96 91 89 88 85 84 85 84 80 76 75 74

GFSSGP_250_spd_012.txt.gz
Wind_Speed
72 74 74 76 76 80 78 77 78 87 89 86 90 97 97 101 102 107 111 110 109 113 113 113 117 121 123 121 121 120 120 114 111 110 114 110 102 97 92 90 79 73 76 75 73 71 68 68 69
80 76 79 83 79 78 80 82 89 90 94 101 103 104 101 107 109 111 113 110 116 115 118 120 123 121 120 115 118 120 116 111 112 105 97 99 88 81 73 68 63 59 58 56 51 55 57 58 59
81 82 83 78 83 86 87 89 93 97 99 104 106 106 110 113 115 112 113 120 124 125 121 127 127 120 117 118 115 116 105 94 90 85 86 76 71 69 62 61 59 52 53 52 58 59 59 60 58
84 86 84 90 87 84 89 93 97 98 104 104 108 114 115 113 120 118 122 125 132 132 126 127 125 120 119 111 96 85 84 75 68 62 58 59 56 57 56 58 55 54 53 54 53 52 49 51 54
88 91 91 92 95 93 91 96 104 103 105 109 112 113 115 121 130 127 124 131 134 129 127 120 112 98 84 69 60 61 54 55 49 45 45 45 45 43 42 42 40 41 43 44 46 44 45 45 47
97 97 96 97 97 98 96 106 101 104 109 109 112 118 121 125 132 130 129 128 121 121 103 95 75 65 61 53 51 48 42 36 35 34 34 34 35 34 33 30 30 31 33 35 36 37 40 42 43
97 100 103 105 102 105 106 111 108 108 110 116 113 117 121 128 128 123 114 109 96 82 67 58 53 51 45 43 41 33 29 26 25 25 25 24 25 27 28 27 25 25 24 25 28 32 35 38 41
103 102 105 104 106 108 110 114 121 119 118 120 126 129 121 110 115 104 94 73 61 52 45 40 34 23 24 19 16 11 12 9 10 12 13 12 14 13 16 20 22 24 25 24 25 28 33 35 37
109 115 103 104 106 109 111 109 114 121 120 118 117 106 103 96 86 67 56 47 39 21 16 9 10 11 9 8 6 7 10 10 11 14 14 14 15 13 15 16 16 15 16 21 23 26 28 30 35
107 110 113 110 109 111 116 113 116 113 111 100 101 85 69 61 52 42 29 24 11 7 9 11 11 12 15 16 17 17 20 20 22 24 21 23 23 22 19 20 21 21 15 11 12 21 26 30 32
108 115 112 106 99 105 104 95 107 98 86 75 69 55 49 36 23 18 12 7 8 9 11 14 14 16 15 15 13 16 15 18 23 24 23 24 25 24 22 22 25 25 22 20 14 12 12 14 25
86 86 86 91 95 92 90 85 76 61 53 49 38 29 16 7 5 9 9 10 10 12 15 19 19 18 19 21 23 23 22 21 25 26 29 31 28 28 28 27 27 27 26 24 22 20 18 19 16
94 88 82 84 83 71 60 51 40 30 27 18 5 8 2 6 4 3 7 10 11 14 15 19 22 20 23 27 27 26 25 27 28 29 29 33 32 31 31 31 32 30 30 28 23 21 22 19 18
83 68 66 55 47 37 29 29 22 16 6 3 5 4 2 4 6 4 5 10 13 14 15 17 20 22 22 24 25 27 28 28 28 28 29 29 30 31 31 32 33 33 33 34 33 33 32 27 26
61 45 35 29 28 20 15 13 13 8 6 5 6 7 8 10 13 14 14 16 19 23 24 25 26 28 30 31 29 29 30 31 32 35 37 38 39 39 38 38 38 38 39 40 41 40 40 40 39
20 17 19 17 15 12 13 11 11 8 8 8 8 11 14 17 17 18 18 16 21 23 22 21 24 28 32 33 34 33 34 36 39 41 44 44 44 45 43 43 42 41 42 42 42 42 43 45 46
16 13 13 13 16 16 15 12 13 12 13 16 16 18 20 20 22 23 26 26 27 31 32 33 36 39 42 43 43 43 46 49 51 51 51 49 47 47 48 49 50 51 52 53 52 52 52 53 53
11 13 15 15 19 17 15 13 15 17 19 23 24 26 25 25 29 32 35 35 38 43 45 45 45 46 48 49 50 51 53 54 54 54 55 55 55 57 58 58 60 60 61 62 62 63 63 63 62
13 15 16 20 18 22 19 19 22 23 25 26 27 32 35 34 39 39 44 44 44 47 46 47 48 50 53 54 55 56 57 60 62 62 62 62 63 63 64 64 67 67 67 69 71 72 73 74 74
15 17 16 16 20 21 22 25 24 27 28 28 31 35 37 39 41 42 44 46 47 51 55 53 53 55 56 59 59 58 57 58 61 65 68 68 67 70 72 74 76 78 80 81 82 82 83 84 85
14 14 15 18 23 25 25 29 31 31 34 36 38 40 41 41 42 47 47 46 50 54 57 58 58 60 61 58 58 61 64 65 68 72 74 77 80 82 83 85 87 91 94 94 95 95 95 95 95
17 19 20 23 25 28 31 32 32 32 35 36 36 36 36 40 46 49 51 51 53 54 55 57 60 59 61 62 64 66 70 72 75 78 81 84 87 90 94 96 98 100 102 103 102 101 101 100 99
22 24 25 27 29 31 28 25 27 28 31 32 32 34 40 43 49 57 55 52 53 54 56 57 59 62 66 70 73 74 77 80 83 88 90 92 95 98 102 106 106 105 106 107 104 105 105 101 100
21 22 27 29 28 25 25 26 26 28 29 30 32 36 39 47 53 52 49 51 53 56 59 62 66 70 74 78 82 84 87 91 93 96 98 101 102 104 108 109 110 109 108 106 105 100 97 93 94
24 23 22 21 20 21 24 27 30 35 35 36 41 44 47 50 51 49 52 55 58 60 62 66 71 76 80 83 86 89 92 94 99 102 104 105 107 110 112 113 112 106 107 103 97 93 88 85 84
25 25 22 20 19 22 27 37 36 40 38 40 40 40 40 43 48 53 55 58 61 64 68 72 76 81 84 87 89 94 98 102 105 108 110 113 115 115 114 111 106 103 100 96 94 88 82 76 74
24 24 23 22 24 30 39 47 42 41 39 39 42 43 47 52 54 57 59 62 66 71 76 79 82 85 88 90 94 99 105 108 112 116 118 118 116 116 110 107 103 95 92 90 86 81 77 73 72
26 27 27 28 31 37 44 55 49 36 41 46 49 53 53 54 58 63 67 70 73 77 81 85 85 87 91 98 101 106 111 114 116 116 116 114 111 110 108 101 94 90 85 83 80 78 74 73 73
29 30 31 34 39 41 34 49 45 49 52 54 54 55 59 62 66 71 74 78 81 83 86 87 89 97 102 104 110 114 120 121 121 118 114 110 108 106 99 94 90 88 85 83 80 78 76 75 75
34 36 37 39 40 40 36 45 49 50 49 51 54 58 63 68 72 77 80 80 80 83 86 90 98 103 107 114 118 121 126 127 127 122 119 116 108 103 96 93 89 86 83 82 81 78 76 76 77

GFSSGP_250_spd_015.txt.gz
Wind_Speed
72 73 75 73 76 72 74 76 77 80 84 82 86 86 85 83 87 94 99 103 106 109 107 113 120 122 129 121 123 126 125 122 123 117 108 102 98 94 90 85 76 77 71 77 80 72 69 67 64
76 73 75 76 80 78 78 77 79 79 84 86 92 91 91 89 94 102 104 105 108 110 116 116 119 123 129 129 126 119 115 114 102 97 95 86 80 71 69 70 67 63 63 61 61 58 57 53 51
80 78 82 83 81 80 81 86 84 86 88 92 90 90 93 97 100 103 108 109 112 115 120 127 128 126 118 122 126 118 102 91 80 72 74 71 67 58 58 56 55 52 52 51 54 57 52 51 49
84 83 82 81 83 85 86 87 88 88 90 93 94 99 99 105 105 108 117 120 120 127 127 127 122 124 118 112 102 83 72 65 60 59 54 51 51 47 43 41 37 40 41 41 44 45 49 50 56
86 85 84 85 86 86 88 91 93 95 95 96 103 105 107 110 112 115 118 121 125 125 121 113 113 108 91 76 75 60 53 50 47 45 41 39 37 35 32 31 30 30 30 31 31 31 34 37 38
93 89 87 89 90 92 94 96 96 100 103 102 107 104 109 110 114 121 121 119 112 111 105 104 91 71 65 56 50 44 38 33 32 32 31 29 25 25 26 23 21 23 24 24 23 24 26 28 30
94 94 91 90 91 93 95 100 100 104 104 107 113 110 107 114 117 121 117 109 108 96 82 74 60 50 41 34 29 27 25 23 19 20 21 18 18 17 14 12 13 17 20 21 22 22 22 22 23
97 95 97 97 98 99 101 103 105 103 101 109 109 108 107 104 106 107 100 102 77 63 59 48 40 36 31 27 24 19 16 16 19 19 18 19 20 17 16 17 16 17 17 17 18 19 19 20 20
92 96 100 99 104 108 102 108 104 113 107 108 97 97 98 98 96 93 71 57 43 40 33 27 25 23 22 20 21 19 19 22 24 25 25 27 28 28 26 26 23 22 23 21 17 19 22 21 20
101 102 108 98 105 107 106 110 108 114 101 89 87 100 97 91 73 57 48 36 25 17 16 19 23 22 22 23 23 21 21 21 21 23 24 25 27 26 27 27 27 27 26 24 19 16 16 18 20
101 103 104 106 104 105 101 102 96 87 82 90 89 81 75 56 47 36 29 15 14 15 17 15 16 14 14 18 18 19 20 22 23 24 23 23 25 26 26 26 26 26 26 25 25 22 19 17 19
92 89 88 96 102 98 88 83 86 81 76 66 62 55 44 32 19 12 13 11 11 10 11 11 13 17 19 21 24 23 22 22 21 21 23 25 28 29 29 28 27 26 28 28 27 27 25 24 23
100 98 96 86 80 90 97 84 67 61 48 49 39 28 16 14 10 11 10 8 8 9 15 20 23 25 27 29 30 29 27 27 28 29 29 31 34 36 36 35 34 33 32 31 31 31 29 27 30
88 78 80 76 77 73 66 47 49 36 32 27 15 12 11 10 14 15 15 12 12 17 23 24 24 25 30 33 33 34 36 37 36 37 40 43 43 43 42 40 39 38 38 38 36 36 37 36 37
78 64 55 53 56 45 40 29 25 21 14 10 11 13 15 17 16 18 20 20 21 19 26 30 30 32 35 36 37 39 42 44 45 46 47 49 49 49 49 48 45 43 43 43 44 43 43 42 42
44 38 35 28 27 25 24 21 16 11 13 15 17 16 17 22 25 26 27 27 26 27 29 28 30 35 38 41 44 46 48 48 48 49 50 49 48 49 49 50 51 50 51 53 53 53 53 53 52
25 22 23 21 19 17 14 13 12 15 19 20 21 24 26 29 29 31 32 34 35 35 33 38 42 41 42 46 48 47 48 49 49 49 47 47 47 49 52 54 57 57 58 59 60 61 61 62 63
15 14 15 18 16 13 13 15 18 20 21 25 27 29 31 33 35 36 37 38 39 41 46 48 46 46 49 52 50 49 49 52 53 54 55 57 57 58 60 61 61 63 63 66 68 69 72 72 73
12 13 16 18 16 17 19 21 23 23 24 24 26 27 30 33 35 38 40 41 42 43 45 45 48 47 49 49 50 52 55 57 58 59 61 62 67 66 65 65 67 68 70 71 73 74 75 78 79
10 13 16 17 17 20 23 25 28 29 32 32 33 33 32 34 37 40 41 41 43 47 46 49 48 51 52 52 55 58 60 63 64 64 66 67 69 70 73 77 80 81 83 87 88 90 90 90 90
11 13 15 17 18 16 18 23 27 31 31 29 29 32 36 39 40 42 43 43 46 47 47 48 50 54 57 59 60 62 64 66 68 69 71 72 74 78 82 85 86 90 93 95 97 98 98 100 98
18 18 19 21 22 22 25 27 31 26 26 26 27 32 38 41 42 43 45 50 52 55 52 56 58 59 61 63 66 69 71 73 75 75 76 79 84 86 89 91 95 97 99 102 103 105 105 104 103
22 21 23 25 24 26 28 27 24 24 24 27 33 39 43 43 44 49 52 52 53 51 56 57 59 62 65 69 72 75 77 78 79 82 85 88 89 92 95 99 101 100 102 104 103 102 102 103 104
21 21 22 23 23 23 21 21 22 25 25 31 36 41 45 47 43 43 43 47 53 55 57 59 63 68 71 75 78 80 82 83 85 90 92 94 99 101 103 105 106 109 111 109 102 98 100 101 100
23 22 21 22 24 21 19 20 25 29 32 35 40 40 38 39 42 45 48 49 51 56 61 66 70 74 77 79 80 81 83 87 95 99 101 102 106 109 110 112 114 116 114 107 100 100 98 99 96
25 25 23 21 20 21 23 25 31 37 38 40 38 38 42 44 46 47 50 55 58 62 65 70 74 77 78 80 85 91 95 98 102 107 112 115 118 118 119 117 116 112 108 101 97 95 94 90 90
29 28 25 23 22 26 31 32 37 39 37 38 43 46 47 46 47 52 55 60 63 65 69 72 74 78 81 86 94 98 103 107 110 115 124 128 125 122 120 115 112 109 102 95 89 87 85 85 84
25 26 25 24 25 28 37 43 37 35 37 42 46 45 46 50 54 57 60 63 66 72 78 82 82 84 89 96 101 105 109 116 126 127 132 132 126 120 118 115 109 103 94 88 83 82 80 80 79
21 23 25 29 32 34 36 51 39 40 44 45 45 47 52 56 58 61 66 70 75 79 82 82 86 91 96 102 107 111 122 130 134 135 132 126 118 115 111 105 100 96 94 91 87 84 82 80 79
18 22 25 25 25 30 31 41 42 44 43 46 49 54 57 59 62 66 72 76 81 81 86 90 93 97 103 107 112 122 128 135 138 131 123 115 111 109 102 97 95 94 93 92 88 84 81 77 75

GFSSGP_250_spd_018.txt.gz
Wind_Speed
76 73 71 74 74 75 75 73 75 74 76 76 79 81 78 79 86 89 89 92 94 98 101 105 107 108 114 117 118 121 121 117 118 110 109 109 100 86 79 78 74 69 68 69 74 70 70 67 71
78 74 74 77 78 81 81 81 82 82 81 79 84 89 84 92 94 91 94 97 100 99 108 112 111 114 118 119 119 117 116 109 107 93 91 78 74 63 62 64 56 57 55 55 59 57 55 57 57
84 80 80 81 80 82 84 85 86 88 88 90 90 88 88 92 93 96 100 103 108 109 115 112 111 111 112 112 110 111 102 95 82 75 74 69 58 52 49 48 48 46 46 48 48 47 48 50 52
85 85 81 84 85 84 83 83 89 87 90 92 92 89 92 94 96 100 105 108 111 114 115 113 109 109 108 106 103 104 88 70 60 49 46 42 37 37 37 36 36 36 37 37 35 35 35 35 37
89 84 86 82 82 85 86 89 90 89 89 89 91 93 98 99 103 106 102 106 108 107 104 101 98 100 102 94 76 60 43 33 31 27 25 23 21 21 23 23 25 27 29 29 28 27 26 27 27
83 84 86 85 89 90 89 89 88 91 95 96 97 99 100 103 106 108 112 104 98 97 93 98 101 94 80 56 40 31 23 21 22 22 21 23 24 25 25 24 22 22 23 24 26 26 25 22 20
83 83 86 89 92 92 94 97 95 95 96 100 102 104 108 108 114 111 104 93 88 88 89 84 72 55 40 26 20 19 20 17 19 19 21 22 21 23 24 26 26 24 25 26 26 24 25 27 25
88 91 86 89 93 96 91 92 97 99 98 99 103 102 103 100 101 93 93 83 88 73 67 58 35 22 15 16 18 17 19 20 21 20 21 19 20 21 22 23 22 21 22 22 23 25 23 23 24
98 92 95 93 95 86 93 96 95 95 97 100 94 104 97 94 88 81 78 73 63 55 32 27 18 12 12 16 18 17 19 18 19 20 19 19 20 21 22 23 24 25 24 22 22 22 21 21 23
102 101 99 101 100 95 98 99 101 100 96 101 94 90 91 77 78 73 63 51 35 24 18 13 12 11 13 16 17 19 19 20 20 20 19 19 21 23 26 30 32 31 29 28 26 25 22 21 21
105 104 105 101 101 102 106 104 96 90 92 87 83 84 79 77 67 51 41 29 17 17 13 9 10 12 12 14 16 19 21 24 26 27 26 26 28 34 35 35 35 35 33 32 32 31 29 26 22
103 107 107 107 107 96 95 93 92 86 80 84 70 69 61 43 36 27 21 17 15 15 11 9 12 15 17 21 24 26 28 30 32 33 34 35 37 39 39 37 37 37 37 38 36 34 34 32 32
94 96 92 101 98 86 92 88 86 69 69 58 47 39 29 24 22 19 16 16 16 16 16 17 20 23 26 29 33 35 37 39 40 40 40 39 40 41 40 39 38 37 37 38 39 40 39 38 36
79 85 79 74 75 80 74 68 68 53 48 39 25 22 20 17 19 20 19 18 19 21 25 24 27 33 35 37 38 40 41 43 43 42 42 43 43 42 43 43 44 43 40 39 39 40 42 43 43
64 64 74 75 60 56 62 49 37 26 28 21 16 18 20 20 20 21 24 26 28 29 30 33 34 36 39 43 43 44 45 47 48 46 46 46 47 47 47 48 49 50 52 52 52 51 51 50 49
56 56 38 38 41 32 25 25 19 17 18 19 19 21 23 24 27 29 30 29 29 30 34 38 40 42 44 44 44 44 44 46 47 47 48 48 50 50 50 51 53 55 57 57 55 54 56 57 59
27 25 28 25 21 20 18 18 16 17 21 22 23 24 27 30 32 36 36 35 36 38 39 38 38 41 44 46 45 45 46 46 48 50 51 52 56 57 58 60 61 63 65 64 63 64 64 64 65
18 18 17 17 18 18 15 16 18 21 22 25 24 25 27 31 34 36 37 39 41 39 37 36 40 44 46 43 42 45 48 50 53 54 56 59 61 63 66 69 71 71 69 66 68 71 71 70 73
15 15 16 16 15 15 18 20 22 25 28 30 33 35 35 33 34 34 37 39 40 39 39 39 43 46 43 44 48 51 52 54 56 60 63 66 68 70 71 69 69 71 74 78 78 78 81 83 83
16 14 15 15 15 20 21 23 28 29 28 30 31 29 29 31 34 37 39 40 40 41 43 46 45 44 46 51 53 55 58 60 64 68 70 71 72 72 72 74 77 81 83 84 88 92 93 95 96
16 13 13 15 16 18 22 21 22 24 27 28 25 27 28 30 36 39 44 45 47 46 41 42 46 50 52 53 56 60 64 67 69 71 72 72 73 76 78 81 82 83 88 89 93 96 100 101 103
19 17 17 19 21 20 21 22 25 27 26 25 25 24 28 36 40 44 46 41 39 41 45 48 50 51 54 58 60 62 65 68 70 70 72 76 80 83 84 89 94 99 99 105 106 105 107 107 105
21 21 22 23 23 24 25 27 29 25 24 23 24 29 35 40 42 41 37 43 44 47 47 48 52 56 57 61 64 68 72 73 73 76 79 83 87 88 94 101 103 108 111 113 112 111 112 107 106
22 23 24 25 26 25 25 25 25 25 26 26 27 35 41 41 39 41 44 46 47 48 51 54 58 61 65 69 72 77 78 79 81 87 90 92 95 97 102 109 113 117 121 122 121 112 109 106 103
28 24 25 26 27 27 27 27 27 28 29 30 34 42 41 38 42 46 46 47 49 52 56 61 64 67 71 77 81 82 84 87 90 93 97 100 102 106 112 116 120 126 129 128 121 113 107 103 101
27 28 28 28 28 28 30 29 30 32 33 37 41 42 41 43 46 44 46 51 54 58 61 64 67 72 75 78 80 84 87 90 94 97 101 106 112 118 122 123 127 130 131 123 113 104 99 96 93
18 23 27 30 29 28 27 29 31 32 35 39 41 41 44 48 47 49 54 56 58 61 65 68 72 75 79 83 87 92 95 99 103 106 108 113 120 125 130 132 133 132 121 114 106 98 94 88 87
13 17 21 24 25 27 32 34 37 36 34 38 41 45 46 46 48 54 59 59 63 66 68 73 77 84 88 93 96 99 102 107 109 112 116 122 128 132 134 134 132 124 113 105 96 92 92 90 88
12 12 15 20 24 27 33 42 32 32 35 40 44 44 47 51 55 58 61 65 69 71 76 83 88 92 95 99 102 105 109 113 117 121 125 130 135 135 134 130 119 110 104 100 97 94 90 88 84
20 20 21 22 24 29 31 38 37 35 40 43 45 48 53 57 60 65 68 72 75 80 85 91 95 99 103 107 110 112 115 121 125 130 135 137 134 131 124 113 106 103 101 99 95 90 86 81 78

GFSSGP_250_spd_021.txt.gz
Wind_Speed
78 76 79 77 77 77 73 72 74 75 73 75 77 80 81 84 84 89 94 98 95 96 95 100 103 104 107 112 113 113 113 112 111 104 109 111 112 108 97 85 82 77 71 69 64 64 66 67 64
81 80 77 82 82 80 75 73 75 75 74 77 79 82 87 90 89 89 91 90 98 100 101 103 104 109 114 111 108 109 109 103 102 106 101 97 85 81 72 60 58 51 50 52 53 52 51 52 53
81 84 83 82 85 86 78 81 81 81 81 81 82 85 88 89 92 95 95 97 101 101 103 106 108 111 108 106 111 109 99 99 99 91 82 73 58 49 41 37 30 27 31 34 38 41 41 43 43
83 82 79 87 84 85 82 82 86 84 86 87 87 87 90 92 92 95 99 101 102 109 111 112 110 108 108 106 102 97 97 88 77 60 54 41 33 25 23 19 17 18 19 21 23 24 24 27 31
80 80 82 88 87 92 88 88 86 84 86 89 93 90 92 95 98 101 102 103 105 108 113 102 99 102 96 92 91 87 76 62 43 29 22 18 16 19 19 22 24 24 23 24 26 25 26 23 23
86 88 88 89 86 88 88 86 87 91 90 90 90 95 97 97 102 104 106 108 107 104 98 95 98 91 85 86 74 55 33 24 19 16 17 19 19 20 22 23 25 26 27 30 31 31 31 29 28
84 88 86 86 89 87 91 92 94 92 93 93 95 99 99 102 103 104 105 101 97 92 92 88 85 83 71 51 36 23 16 15 16 19 19 18 19 20 21 21 26 30 30 28 28 29 30 29 30
90 92 91 89 88 85 88 88 93 93 94 89 95 98 86 90 92 92 90 87 85 87 87 82 75 55 39 28 19 17 17 18 20 21 20 21 22 19 19 25 28 30 30 28 27 26 26 27 27
93 88 92 89 91 93 90 93 93 91 93 95 96 101 106 102 93 86 89 88 81 80 66 54 42 29 21 18 15 16 19 20 22 23 24 23 23 22 26 30 31 30 28 27 27 27 27 27 27
92 93 94 93 93 93 94 95 96 98 101 99 103 105 106 95 88 82 74 78 72 56 42 31 24 20 18 19 19 19 21 21 24 27 30 31 30 30 31 32 32 32 32 31 29 27 27 28 29
95 93 90 93 96 98 99 102 102 105 104 108 105 100 84 79 71 72 68 56 39 30 24 22 20 16 17 19 21 24 25 26 29 31 34 35 36 37 37 36 36 36 37 36 35 33 30 27 27
89 90 89 90 96 92 96 102 95 93 92 86 92 85 79 68 63 52 37 28 24 22 21 21 21 23 26 26 29 31 33 37 39 40 41 42 43 43 41 41 42 42 40 39 38 36 36 36 34
82 85 87 90 90 92 86 85 91 86 81 81 72 67 62 64 37 30 23 19 23 22 24 27 27 31 32 35 36 37 39 43 44 43 41 42 44 45 45 45 45 45 44 42 42 42 43 44 44
73 80 81 82 85 76 73 78 82 69 67 64 63 54 47 36 24 21 24 23 26 27 29 31 32 36 39 42 41 43 45 43 45 43 43 44 46 46 46 48 47 49 49 50 50 50 50 51 50
62 63 60 65 70 77 80 73 63 61 55 53 50 37 26 25 23 23 26 28 31 32 36 37 38 40 39 38 41 43 46 48 47 45 47 47 47 49 49 49 51 53 55 56 57 57 58 58 57
50 51 54 53 53 53 62 63 53 43 42 34 29 26 27 26 26 28 30 33 35 35 37 39 41 41 39 39 41 44 46 44 43 44 46 50 51 52 54 56 57 58 59 60 61 62 60 59 58
36 35 31 33 32 32 29 28 26 29 26 25 24 26 29 29 30 31 35 37 37 38 39 39 36 36 40 40 44 49 43 43 46 48 49 51 53 56 58 61 62 62 62 63 64 64 63 62 65
20 18 19 18 20 21 24 22 20 22 22 23 26 28 31 33 37 40 41 38 35 37 38 38 38 41 43 44 48 44 47 49 50 51 52 55 58 60 62 63 65 65 63 65 69 69 68 69 68
17 18 16 17 17 19 19 19 21 22 24 26 29 33 35 35 35 34 34 35 37 41 45 45 46 44 41 42 47 50 49 51 54 58 61 62 64 67 68 68 68 68 71 73 75 73 76 80 84
17 17 16 17 17 18 20 22 25 28 29 31 33 32 34 32 31 32 34 38 42 47 44 40 41 45 48 50 50 52 55 59 63 66 69 69 73 75 75 74 73 81 83 83 84 85 86 87 92
18 18 20 19 20 23 25 25 29 30 30 29 30 33 30 30 30 33 38 41 45 41 41 45 47 49 50 52 54 58 61 64 66 70 72 75 77 76 78 79 79 83 87 88 90 91 93 95 100
21 23 24 24 24 23 25 27 31 30 32 31 32 30 30 31 32 37 41 43 41 43 47 50 50 51 53 57 60 63 65 68 71 70 72 76 79 82 84 87 91 95 94 95 97 99 103 107 108
25 26 27 27 27 28 28 32 23 32 33 31 30 31 32 35 37 42 46 44 45 50 51 51 52 56 59 62 66 68 68 74 73 79 81 86 88 90 94 96 99 103 103 104 105 107 111 117 121
29 29 30 31 34 33 31 35 24 31 29 30 33 35 37 39 43 47 50 47 49 53 52 53 58 62 63 67 69 72 73 78 80 85 91 94 98 101 103 105 107 110 113 114 117 118 124 127 127
26 30 32 33 31 32 33 35 30 32 32 33 34 37 40 43 47 49 49 49 53 53 55 61 65 67 68 72 74 78 83 86 92 95 99 102 104 109 112 115 117 119 120 122 126 130 134 132 128
19 21 27 32 34 34 36 36 34 32 33 35 37 41 43 47 48 49 50 53 53 56 60 65 68 72 74 77 81 86 91 95 98 102 105 109 112 116 119 122 125 127 130 134 138 136 134 128 122
15 16 17 20 26 32 37 38 33 36 37 39 42 46 44 45 49 51 52 53 59 63 67 72 75 79 82 86 89 93 98 102 105 109 113 118 123 128 130 133 136 137 141 139 136 132 125 116 106
12 12 15 18 21 25 29 35 30 36 36 37 39 42 43 47 51 54 56 61 67 71 74 77 78 83 88 93 97 101 103 109 113 116 120 125 130 134 139 143 142 141 135 129 124 117 109 103 102
17 18 20 20 22 23 28 35 33 33 35 39 42 46 49 55 58 58 61 68 72 76 78 81 84 89 95 99 103 106 111 116 121 128 132 135 139 140 144 140 134 128 121 113 108 105 104 101 98
20 22 23 26 29 32 33 39 37 38 37 42 46 50 54 55 59 63 67 70 73 76 80 85 90 97 102 105 108 113 120 125 131 136 137 139 139 138 134 127 118 112 106 104 104 102 98 94 88

GFSSGP_250_spd_024.txt.gz
Wind_Speed
74 73 74 76 74 76 80 78 72 73 72 75 76 76 75 74 77 80 84 85 87 88 92 93 98 101 102 104 109 110 112 114 115 111 108 103 104 106 103 96 89 78 77 73 65 60 54 57 57
68 77 78 75 78 77 81 77 78 77 80 79 80 78 77 80 80 85 90 92 91 96 97 100 102 105 109 111 116 116 119 120 109 104 101 103 100 89 80 67 59 50 43 37 34 39 36 37 39
79 72 82 83 84 85 84 76 78 82 83 84 84 84 82 83 85 87 87 90 95 99 103 105 106 107 111 114 116 118 113 106 101 100 95 86 75 61 51 41 28 28 20 15 15 15 17 17 19
80 77 76 81 86 88 83 82 81 83 83 85 88 87 87 85 91 92 95 95 97 99 103 109 110 111 114 117 116 102 97 97 93 83 72 58 38 28 20 13 10 13 18 19 17 17 19 19 19
82 84 80 83 77 77 80 83 80 80 86 90 93 86 90 93 94 93 98 101 102 103 107 105 109 112 109 102 97 96 90 85 72 60 43 30 24 17 16 15 18 23 24 25 26 26 26 25 24
86 86 89 88 82 83 81 82 83 87 87 89 88 93 95 94 95 98 101 104 102 101 101 104 99 99 100 91 90 83 69 63 47 33 18 16 18 18 18 19 22 27 27 27 27 28 29 30 30
86 86 88 89 85 90 87 81 85 87 85 91 91 92 91 94 97 101 105 105 101 101 101 108 102 95 85 78 71 57 47 34 24 20 18 20 21 22 23 26 28 29 31 31 31 29 27 27 27
87 91 89 78 75 83 87 91 88 87 87 87 87 92 92 96 97 101 104 102 104 104 99 94 86 79 71 64 49 40 28 25 21 19 18 22 25 28 29 31 32 32 32 31 30 29 28 27 27
87 88 90 92 92 89 90 89 90 88 90 93 94 93 94 99 99 100 99 94 94 95 83 79 74 62 51 45 31 27 26 25 22 22 24 27 30 30 33 32 34 33 33 32 32 32 30 28 26
86 86 87 85 90 90 93 93 94 93 95 96 93 93 97 94 95 99 97 87 85 81 78 65 52 50 36 29 27 28 28 28 29 30 31 33 37 38 38 38 36 36 35 34 33 32 31 30 28
88 81 87 91 89 91 89 85 88 88 92 91 95 95 88 91 95 86 82 79 71 67 60 49 37 31 30 30 31 34 33 36 38 39 39 40 42 42 39 37 39 38 37 35 35 35 34 33 34
87 89 89 89 97 98 93 95 91 89 88 86 86 87 90 82 82 79 65 64 66 53 45 34 28 30 35 34 37 38 38 41 42 44 46 46 44 43 42 42 42 42 41 41 40 39 39 42 43
82 81 80 83 84 84 86 87 87 86 85 88 88 86 79 72 71 65 60 50 38 35 31 31 33 33 38 39 40 43 44 46 43 44 45 46 47 46 46 47 47 46 46 45 45 45 45 45 45
73 74 76 79 81 84 81 80 80 82 82 82 83 75 67 55 49 44 33 33 31 31 32 32 38 41 42 44 46 47 48 46 45 46 46 48 47 47 46 46 46 48 48 49 51 53 53 52 52
62 63 63 67 71 75 78 79 82 84 78 74 70 54 45 41 35 28 32 30 30 32 33 36 12 55 47 46 47 45 43 43 45 48 48 45 46 48 51 50 50 51 53 55 56 57 58 58 57
54 55 55 59 61 63 65 63 63 63 59 53 37 40 28 33 29 27 31 34 35 38 38 35 43 44 44 39 39 42 44 47 49 50 45 49 53 52 54 55 59 58 56 58 60 61 61 60 59
40 44 47 51 54 56 59 58 49 43 43 37 28 29 27 26 28 29 34 37 39 40 39 40 39 44 45 46 46 45 46 46 47 50 51 52 55 56 59 59 60 62 64 65 64 64 64 62 63
39 42 45 47 44 46 42 36 34 31 30 27 24 26 28 28 29 34 35 38 39 37 38 40 44 46 39 43 45 47 48 51 51 52 53 57 59 60 61 64 65 64 65 66 65 69 71 70 71
30 33 33 34 34 32 31 29 25 26 25 24 24 28 31 28 33 35 38 34 35 36 41 45 44 44 45 50 51 53 51 51 55 57 58 61 60 64 66 68 68 71 73 76 79 76 77 80 84
22 23 23 25 26 28 26 23 24 24 24 27 29 33 32 33 35 38 35 35 36 39 43 44 46 47 52 55 55 55 55 59 62 62 62 65 64 66 71 74 75 78 83 85 87 88 89 88 93
22 23 23 25 26 27 28 27 26 26 29 28 32 35 35 36 38 39 39 39 39 43 46 50 51 51 56 57 56 59 63 67 68 69 71 72 73 76 80 83 85 88 90 95 96 99 100 100 101
21 22 23 26 27 26 31 29 25 30 31 31 35 36 37 39 41 40 41 43 45 49 53 56 55 55 59 62 64 66 68 71 73 74 76 78 81 85 89 93 96 98 99 102 106 107 110 113 113
23 24 27 27 28 28 31 36 26 28 33 38 35 38 39 40 39 40 42 46 50 54 58 59 56 60 62 66 68 70 73 77 78 81 83 88 92 96 99 103 105 107 110 114 115 116 120 123 124
25 27 28 29 30 32 35 39 29 31 31 34 38 39 39 41 42 43 45 46 51 58 59 59 63 65 66 68 73 77 81 84 87 90 93 96 100 104 108 111 115 119 121 123 125 125 127 130 131
21 24 24 28 30 35 38 42 30 38 35 28 33 39 40 40 42 44 49 53 52 53 58 63 66 69 72 74 77 79 84 87 90 94 99 103 108 112 117 120 126 129 131 133 131 133 129 126 125
8 11 15 19 23 26 36 39 30 34 37 35 33 34 40 43 47 50 52 51 54 58 62 63 67 71 74 77 82 85 87 92 95 102 107 112 116 120 127 131 135 135 135 132 128 123 117 115 109
12 12 13 14 15 19 25 24 27 30 35 38 38 41 41 44 47 49 51 55 61 63 63 66 69 75 79 83 88 93 97 103 105 110 116 121 128 132 135 136 135 132 127 122 118 113 112 111 109
16 18 19 22 23 26 27 27 25 27 31 35 40 41 46 45 48 52 57 59 60 63 67 71 77 83 86 88 92 97 100 105 112 120 127 132 132 134 136 131 128 123 118 112 113 113 112 109 106
19 21 23 24 25 27 31 37 32 35 34 38 39 42 46 50 51 55 58 61 65 70 75 79 81 84 89 93 99 105 111 117 125 129 132 131 132 134 128 122 117 114 112 110 109 108 109 107 105
20 21 23 28 31 31 34 42 38 41 41 42 45 46 51 51 53 56 61 63 67 72 76 81 85 89 94 100 107 114 121 128 134 132 131 130 130 124 120 117 116 116 114 109 107 106 103 100 95

GFSSGP_250_spd_027.txt.gz
Wind_Speed
80 79 77 78 73 76 79 75 71 70 75 75 72 74 76 75 76 75 77 82 83 84 85 87 90 93 96 99 102 105 107 106 107 109 106 111 107 103 98 95 91 83 69 63 51 46 40 41 39
77 83 82 80 85 78 73 73 65 70 78 77 72 73 79 82 83 79 80 88 87 89 92 94 96 100 105 108 110 111 111 110 106 106 108 109 99 94 84 80 72 58 41 34 26 22 18 17 16
74 77 85 82 83 77 71 70 70 75 78 75 74 70 76 80 83 80 85 90 90 90 92 96 99 101 106 108 110 114 112 111 105 113 103 91 85 74 66 48 40 23 13 12 12 14 15 17 17
82 81 81 87 84 83 76 74 71 78 82 78 76 76 80 85 84 84 87 88 94 94 96 100 103 104 106 108 111 109 108 109 108 92 87 79 74 51 35 22 14 13 14 14 18 20 21 18 18
90 90 88 85 87 82 77 77 75 80 81 80 71 77 79 79 82 84 90 92 94 94 98 99 99 104 106 107 106 106 106 89 85 79 76 56 44 27 19 18 19 18 20 22 25 25 24 24 20
89 89 90 87 87 86 80 81 83 74 76 77 77 77 80 82 85 88 92 90 93 96 96 100 101 102 103 104 104 97 84 79 77 62 45 30 24 22 21 22 23 25 28 30 29 27 24 25 24
94 90 86 89 90 88 87 86 82 74 77 76 78 83 83 84 82 85 89 91 95 95 97 99 98 98 99 97 90 77 74 68 47 40 32 26 25 24 26 27 28 30 33 32 32 29 27 26 25
99 88 88 93 89 85 85 77 74 78 88 84 85 87 88 92 94 93 92 95 96 98 97 96 97 97 92 78 71 63 56 44 33 34 33 28 29 28 30 34 35 35 36 35 33 30 29 27 26
97 94 86 82 84 85 85 77 82 88 87 87 90 92 92 92 95 96 97 97 98 93 93 99 96 87 72 65 57 50 40 36 32 35 36 37 40 39 37 39 41 41 38 36 34 33 33 31 29
89 90 84 78 82 84 82 85 83 78 74 74 86 88 92 90 90 88 90 94 97 97 97 94 83 72 62 55 52 41 35 36 38 39 40 46 46 45 46 45 44 43 42 41 39 36 36 35 34
79 80 85 80 83 89 89 87 90 93 92 97 98 97 89 87 89 91 87 89 92 96 89 84 68 54 46 43 41 39 40 41 46 44 47 49 50 46 46 47 48 45 42 43 42 39 39 39 38
76 79 85 86 77 84 85 91 89 92 87 88 89 91 92 93 93 92 91 90 86 80 73 65 48 44 41 40 43 41 46 45 50 52 53 54 53 51 48 47 45 43 43 42 44 45 44 42 43
71 75 80 79 76 78 83 83 87 88 93 88 84 91 91 91 90 87 80 74 66 62 48 42 35 36 40 45 46 43 46 49 52 55 55 54 51 49 49 47 43 43 45 47 48 47 48 49 49
73 76 81 81 83 83 82 84 84 85 88 87 85 83 84 82 79 78 76 66 54 49 33 30 33 38 40 45 39 54 55 49 46 48 48 51 55 50 48 46 47 49 48 48 50 50 51 51 51
79 78 76 78 85 86 88 84 82 82 87 88 88 89 86 83 83 80 63 50 40 32 27 27 25 28 33 42 49 47 50 51 47 50 52 51 53 50 51 50 49 52 54 53 52 53 54 55 55
73 79 79 83 78 78 78 83 83 80 82 80 73 70 65 66 46 42 39 33 33 33 29 31 17 14 19 42 50 51 55 49 47 46 47 51 56 56 53 56 56 56 57 57 58 59 58 56 57
52 54 59 60 63 62 61 62 62 59 57 57 54 50 51 44 34 33 33 33 37 35 31 25 17 28 35 46 54 55 52 54 54 54 54 53 52 57 61 63 62 63 64 64 64 64 66 66 64
45 46 47 50 52 51 48 47 46 48 46 46 43 43 30 29 32 29 32 37 39 38 32 24 27 31 43 49 55 56 54 58 60 59 58 59 59 61 65 66 66 68 68 69 71 73 75 75 76
35 35 32 39 38 41 41 38 38 40 37 40 34 32 27 30 33 33 35 38 40 34 35 36 36 37 42 48 54 56 58 61 64 64 63 63 64 67 68 69 69 70 71 74 78 79 80 83 88
28 27 29 32 32 33 35 31 34 35 33 33 33 34 32 34 35 36 36 36 39 41 40 42 45 48 51 56 59 60 63 65 68 67 67 68 71 74 77 76 77 79 81 84 87 89 90 93 98
22 25 24 28 28 29 32 28 29 34 34 32 31 33 34 36 38 41 38 39 40 44 47 49 51 55 58 61 63 64 66 69 69 71 74 76 77 79 81 83 84 87 89 92 95 97 102 105 109
23 17 22 23 27 26 32 29 28 32 36 31 34 34 37 36 40 46 44 42 43 47 51 52 53 57 62 65 64 66 69 69 73 74 78 81 85 87 89 92 94 97 100 104 107 109 111 114 117
20 20 21 24 26 26 34 32 25 27 30 32 40 34 36 39 41 41 42 44 47 50 53 55 58 61 61 62 68 71 71 73 77 81 85 87 90 94 98 102 105 109 113 118 120 123 123 122 120
17 20 23 23 25 29 33 35 30 27 27 31 38 40 42 43 40 38 41 44 48 53 57 62 63 62 63 65 67 69 74 78 83 88 90 94 98 103 107 110 114 118 122 127 126 127 125 124 120
11 13 16 18 21 24 28 30 29 25 24 27 32 34 38 42 40 39 42 45 49 54 57 59 64 67 69 71 74 76 78 83 87 92 96 100 104 111 114 118 125 129 131 131 131 128 124 121 117
5 6 7 9 14 20 22 25 29 27 24 21 26 30 36 39 42 40 43 47 50 52 53 57 61 65 69 73 79 85 89 93 97 102 106 110 115 118 123 130 131 129 126 125 122 119 114 111 106
9 11 13 16 19 22 18 21 22 29 31 30 29 32 38 43 44 44 47 50 53 56 56 59 65 70 74 80 85 89 94 98 103 109 114 120 122 127 134 134 133 127 123 120 116 115 111 108 108
13 15 17 19 23 28 28 25 27 31 35 36 36 37 40 45 44 48 51 54 56 58 61 65 69 75 80 86 91 95 99 104 109 114 120 124 128 133 133 129 126 122 117 112 109 107 106 104 103
14 17 19 20 22 26 35 34 32 35 35 38 39 41 43 47 49 50 52 54 57 61 66 72 75 80 86 91 96 101 105 109 116 123 130 130 131 131 124 120 117 115 112 109 105 101 100 97 93
16 18 22 27 28 30 33 42 38 38 41 40 40 44 44 48 51 55 57 58 60 66 71 76 80 85 90 95 102 109 114 118 123 132 133 129 125 121 120 119 116 111 107 104 103 99 93 87 83

GFSSGP_250_spd_030.txt.gz
Wind_Speed
80 75 78 82 82 82 79 72 73 69 65 69 72 74 72 72 72 76 76 76 78 79 82 86 85 87 89 93 93 96 94 97 102 103 105 107 111 109 106 93 95 91 86 71 62 50 39 31 27
83 78 81 82 86 81 81 78 71 75 75 75 72 74 76 71 72 75 75 78 76 79 81 84 89 92 95 94 97 95 98 103 104 106 105 108 106 98 86 87 80 69 54 41 32 19 19 21 19
89 77 74 83 85 79 79 83 81 81 80 76 73 75 77 74 75 78 77 77 80 84 87 90 91 91 94 98 99 99 102 102 104 104 104 102 96 90 79 70 57 41 35 23 23 18 23 21 21
97 91 88 83 72 76 78 84 82 77 77 74 73 78 81 77 78 80 80 82 84 86 86 86 87 89 95 95 99 101 102 104 103 104 99 97 79 73 61 48 35 32 31 27 25 25 27 25 23
99 97 91 93 81 76 78 79 80 83 78 74 74 77 76 74 75 76 80 83 85 86 87 89 92 95 94 100 102 100 103 101 100 102 94 76 66 55 41 33 27 27 29 29 31 33 34 32 30
103 97 94 93 86 86 80 74 75 77 79 76 78 83 78 77 74 74 76 78 83 86 89 93 94 100 101 100 100 103 100 105 100 82 71 59 47 38 34 31 31 31 31 34 37 39 39 38 32
104 98 94 93 100 90 90 86 76 74 75 78 81 81 78 85 83 79 82 82 85 92 94 95 96 95 100 98 98 99 98 90 71 63 56 45 38 38 36 35 36 37 37 39 42 44 42 38 37
98 101 99 97 95 90 93 85 81 77 72 75 80 84 84 86 94 90 89 88 91 88 89 92 96 94 92 93 95 88 82 64 54 50 44 41 38 38 41 42 45 45 45 45 47 46 45 39 39
68 87 96 95 96 91 83 82 85 84 83 86 86 86 80 83 82 85 88 86 86 90 94 97 92 93 95 94 81 76 58 50 48 45 45 44 45 46 46 47 47 49 50 50 49 47 44 42 39
57 64 73 87 96 98 97 90 87 88 89 90 92 94 91 88 86 92 94 86 85 92 93 92 94 95 92 80 73 61 56 48 45 45 46 47 49 52 52 53 52 49 48 48 46 44 44 43 41
60 58 62 67 75 89 95 95 91 88 91 86 81 84 86 83 87 90 88 88 89 88 91 93 84 68 70 58 55 49 45 44 47 47 47 47 51 57 55 55 52 46 46 48 42 40 40 43 43
53 57 60 62 66 74 77 74 86 85 87 92 89 88 86 84 84 84 85 81 85 82 77 78 66 64 62 49 43 44 45 47 47 43 47 49 50 50 48 48 48 47 49 46 43 45 44 44 44
64 66 67 66 69 72 75 78 80 79 75 72 74 81 78 86 83 86 84 89 90 84 81 67 57 50 44 39 42 41 36 42 50 51 50 50 51 51 49 49 47 44 46 47 48 47 48 50 52
70 69 70 69 70 75 74 75 75 74 76 78 80 79 82 81 82 84 86 88 90 74 65 58 52 43 42 40 41 43 37 39 51 52 50 50 46 50 49 48 48 50 50 48 51 54 54 55 55
75 68 68 68 72 72 73 78 76 78 81 85 84 83 82 85 87 86 81 85 66 58 51 45 40 39 35 44 50 56 47 39 50 52 53 51 54 56 58 57 55 55 54 55 57 58 59 61 61
71 77 71 65 71 74 76 76 78 81 81 84 88 87 88 85 80 72 69 60 56 49 43 42 39 35 42 47 50 49 46 49 55 54 54 55 56 61 62 61 60 59 60 62 64 63 63 64 65
69 69 67 67 68 69 72 76 78 81 79 75 75 70 71 70 55 50 50 54 53 48 44 38 41 40 45 49 54 53 58 57 56 58 57 58 61 64 66 69 67 65 66 68 69 71 72 72 70
43 46 52 62 64 62 64 65 67 70 63 60 58 55 52 51 49 46 45 45 45 41 40 38 41 41 41 46 51 54 59 59 63 63 63 65 66 66 67 66 65 68 71 74 77 78 79 79 77
38 43 47 47 49 49 47 44 44 46 42 44 41 43 45 45 42 40 40 42 41 42 44 41 46 46 49 51 53 57 61 64 65 67 70 69 68 69 68 70 72 73 75 78 80 84 86 86 86
30 29 31 33 35 36 32 35 39 40 35 38 38 38 38 38 38 37 38 40 43 44 47 45 47 47 50 53 57 61 65 67 69 71 71 72 74 76 76 77 79 82 87 89 90 91 94 95 95
25 27 31 32 30 30 31 29 31 32 28 29 32 35 37 35 36 38 39 39 41 43 47 49 49 49 52 57 61 64 67 72 73 73 76 76 77 81 83 85 88 91 92 93 94 97 100 104 106
21 21 23 25 26 25 29 25 26 28 30 32 35 37 37 36 38 38 39 40 41 43 46 49 51 53 55 60 64 67 68 69 72 75 78 81 84 88 90 92 95 98 100 103 105 107 111 113 114
19 20 21 23 26 30 28 28 24 26 31 35 38 36 37 40 44 44 42 44 46 47 48 49 51 54 59 62 63 65 67 69 74 78 83 89 94 97 99 102 105 110 113 117 119 122 125 128 126
16 19 20 22 26 27 24 21 20 26 30 31 34 37 39 40 45 44 46 48 47 49 50 52 53 53 55 58 62 66 69 73 79 83 87 92 97 101 103 107 112 117 121 125 128 130 131 129 125
11 10 9 9 9 8 7 7 9 11 16 20 24 26 27 31 34 38 41 43 46 51 53 54 55 57 61 62 64 69 74 79 83 87 93 98 102 107 110 114 120 125 130 131 130 128 125 125 124
2 1 4 7 10 10 14 16 19 16 18 20 24 28 32 36 39 42 43 44 46 48 51 54 58 60 62 66 71 76 81 86 90 95 101 106 109 113 117 123 127 128 125 120 118 119 120 121 121
3 7 9 12 14 13 17 21 23 25 26 25 29 33 38 40 44 45 47 50 53 53 53 57 59 63 66 68 74 79 85 91 95 101 106 112 117 121 126 124 123 120 120 117 116 116 115 114 109
7 10 12 15 18 19 19 22 25 27 28 31 35 38 41 44 46 48 50 52 53 54 57 59 62 65 70 75 80 86 91 96 102 108 113 118 122 125 126 122 116 118 120 119 113 108 103 99 96
12 15 17 18 20 25 26 25 28 31 33 34 35 37 39 42 45 48 50 52 55 56 57 62 67 71 75 81 85 91 96 102 108 112 119 125 129 129 127 123 124 122 120 117 107 104 99 95 89
15 17 21 25 25 28 34 34 34 36 38 39 40 40 42 45 48 50 52 55 55 57 62 67 70 74 80 85 92 98 103 106 112 117 122 128 132 129 125 123 119 113 111 104 100 97 92 90 85

GFSSGP_250_spd_033.txt.gz
Wind_Speed
91 88 86 81 82 82 77 76 80 77 77 76 76 75 73 72 74 73 74 75 75 77 78 78 78 81 82 84 86 88 92 95 94 94 100 101 103 105 102 103 108 107 91 83 83 67 54 50 40
93 88 86 85 85 81 76 78 80 78 75 75 73 73 73 72 71 72 73 75 76 76 76 79 83 85 88 92 93 95 96 94 98 100 103 104 105 105 103 105 101 84 75 72 60 50 42 36 32
96 91 88 87 86 81 78 75 76 76 77 75 75 82 79 77 75 76 80 81 78 81 82 83 84 85 86 90 95 96 93 99 100 100 102 103 102 102 104 99 86 70 60 56 46 42 39 34 33
100 95 91 86 86 85 76 76 78 79 76 78 80 82 87 86 82 83 86 89 88 87 85 86 84 84 85 88 90 93 99 101 100 103 100 97 100 108 99 78 65 56 49 45 40 41 40 38 37
94 99 95 98 85 80 72 72 74 76 74 70 76 77 86 87 86 83 84 86 84 84 82 81 86 89 90 91 95 94 95 96 99 99 96 103 105 93 73 60 52 45 44 39 42 41 44 45 44
89 95 100 99 94 88 73 72 68 68 71 72 78 80 77 76 79 76 78 81 77 82 89 90 90 94 93 96 97 93 92 97 100 99 102 96 81 65 57 53 45 40 40 41 45 47 48 50 51
90 88 98 101 99 96 93 86 76 76 76 76 80 77 75 78 76 78 79 83 88 88 92 94 92 90 92 96 96 92 96 101 96 96 86 70 61 55 47 45 42 42 44 45 47 50 50 51 51
74 82 85 97 98 98 96 94 89 85 77 81 78 72 75 78 79 81 83 85 86 86 84 87 88 93 96 96 92 95 92 91 83 86 62 56 52 50 47 45 44 46 50 50 51 52 51 50 49
67 65 73 75 93 96 91 90 93 91 88 84 90 87 83 82 87 83 82 83 84 82 86 86 88 87 90 94 93 92 86 83 76 66 56 51 51 52 50 46 46 51 51 52 50 49 46 47 45
62 64 69 69 70 73 83 92 95 94 89 86 85 85 85 89 87 86 86 87 87 86 84 85 87 92 95 91 90 88 85 74 61 55 51 52 51 52 44 46 50 46 45 44 44 44 47 45 41
56 50 57 61 66 71 70 74 76 82 88 93 94 81 81 82 90 88 93 83 82 84 86 88 93 95 94 97 90 82 75 63 55 54 55 54 47 47 50 53 50 49 47 45 45 46 45 45 46
40 42 48 52 58 61 66 71 70 72 75 72 71 75 81 89 82 79 76 79 84 88 88 91 90 87 91 85 82 67 57 57 53 53 55 50 50 50 52 49 47 43 47 47 47 49 50 49 47
49 48 54 52 52 52 53 59 62 67 74 78 79 68 69 72 78 82 77 85 89 79 86 86 91 92 87 80 67 61 54 53 54 56 52 52 48 52 53 52 51 53 52 53 51 53 53 53 52
61 57 50 58 57 58 60 60 61 61 60 61 67 72 77 77 77 78 84 85 85 88 89 86 84 82 72 59 55 54 53 56 57 56 59 59 53 57 60 58 54 55 56 58 55 56 56 56 57
63 59 65 54 58 58 61 61 61 66 66 65 65 68 72 73 72 78 82 86 90 89 86 77 74 61 55 51 49 53 57 51 59 60 58 60 56 60 65 65 59 59 60 60 59 59 58 58 58
66 63 64 59 61 64 64 64 69 71 69 69 71 74 78 80 84 87 88 83 86 78 66 60 58 49 48 52 54 53 58 60 63 65 60 59 63 67 65 69 68 67 65 62 62 63 63 64 63
58 69 71 68 66 65 66 67 69 68 73 74 76 77 79 80 76 77 71 68 59 51 48 41 44 38 45 59 59 59 63 64 62 61 61 61 65 68 70 73 73 73 70 71 72 73 72 71 72
48 55 63 65 67 66 68 73 69 68 61 60 64 64 68 62 57 54 52 48 47 48 47 37 42 42 55 59 63 66 61 67 66 64 66 67 68 71 73 74 76 74 74 75 75 75 77 77 77
34 38 47 61 60 59 56 58 58 56 58 53 54 48 46 45 45 44 45 46 47 48 37 38 43 54 54 62 68 69 70 68 66 67 68 70 72 73 76 76 75 75 76 78 80 81 82 85 86
34 35 34 34 35 38 42 43 42 39 36 40 43 43 43 43 40 40 44 48 48 45 50 51 52 57 59 62 64 65 65 64 66 68 70 72 74 75 76 78 77 79 82 85 87 89 90 93 94
26 26 26 25 25 28 29 32 33 34 33 35 38 39 38 35 34 36 42 44 48 50 51 50 52 55 57 59 63 65 66 66 67 71 73 75 77 78 79 81 84 86 89 93 95 99 101 101 101
23 24 26 25 25 26 25 26 27 27 29 32 36 37 35 36 37 40 43 46 49 50 49 51 52 53 57 60 61 63 65 66 68 71 74 77 79 82 84 88 92 97 101 104 108 108 109 111 112
24 23 24 25 26 23 23 21 25 28 32 34 36 39 39 41 43 46 49 49 50 48 46 50 52 54 56 60 63 64 67 70 73 77 79 82 85 89 93 97 101 105 109 112 115 117 119 121 124
21 21 21 21 20 17 15 17 23 24 26 28 29 32 33 33 36 40 44 45 44 41 44 51 54 57 59 60 62 67 71 73 76 79 82 85 90 95 99 102 107 111 114 118 120 123 123 124 124
12 11 9 5 3 3 5 6 9 12 16 20 24 29 32 34 36 38 42 44 45 45 48 52 55 58 61 64 67 70 73 76 79 82 86 90 95 101 106 110 114 118 120 124 126 125 126 123 123
6 5 3 1 4 7 8 10 12 14 19 24 28 31 34 39 42 45 48 50 51 51 53 56 58 61 64 67 71 73 76 79 83 86 91 97 102 107 111 115 119 121 124 124 121 120 119 120 123
5 4 3 5 8 10 13 17 19 20 26 28 31 34 35 37 40 45 48 51 52 53 56 58 60 63 66 69 71 73 78 83 87 90 96 103 108 113 117 118 122 124 123 120 120 121 121 120 118
4 5 9 11 13 15 17 19 21 23 28 30 30 33 35 38 40 41 43 45 49 53 56 58 60 62 64 67 71 76 81 86 90 95 101 110 114 120 123 124 124 125 127 124 120 116 114 109 107
9 12 14 16 18 18 21 24 28 31 34 35 38 40 41 42 43 46 49 51 52 54 56 59 62 64 67 70 74 79 85 89 96 102 109 116 121 123 124 128 130 127 123 120 115 108 102 99 95
14 15 17 19 21 25 26 28 32 35 37 40 41 42 44 46 48 50 52 53 54 57 59 61 64 67 69 73 79 85 90 95 103 109 114 120 125 128 127 123 121 118 114 112 107 101 94 88 83

GFSSGP_250_spd_036.txt.gz
Wind_Speed
91 91 91 92 87 86 83 81 78 77 76 72 75 77 78 81 81 82 82 83 82 80 81 79 81 79 79 81 83 86 89 93 93 92 92 93 97 101 102 98 100 98 99 104 96 89 83 73 57
91 89 90 92 90 88 83 81 78 75 72 73 76 76 78 82 82 82 81 83 83 83 79 73 74 77 82 85 88 91 93 94 93 95 98 100 102 99 101 96 98 97 101 98 82 79 72 51 42
88 89 89 92 92 87 85 86 80 79 76 76 77 76 75 78 83 82 81 80 80 81 82 79 82 83 88 91 92 94 93 94 98 96 99 101 103 97 96 98 99 100 95 83 78 67 51 43 40
84 87 87 90 90 88 84 87 85 80 79 79 80 77 78 80 82 82 78 81 81 83 86 85 84 90 91 95 95 95 93 97 97 98 100 100 96 94 100 102 94 95 80 73 66 53 46 44 44
83 82 84 84 92 91 88 85 82 82 81 80 79 75 77 80 80 82 84 82 85 86 86 87 89 89 93 90 91 90 93 95 96 101 97 93 97 98 103 97 91 77 71 62 54 47 46 47 46
75 79 82 82 82 91 89 85 82 83 83 81 79 81 79 76 76 78 81 83 83 85 84 87 87 87 85 87 90 91 91 93 95 93 88 98 101 95 90 87 81 68 57 52 48 45 50 49 49
69 73 74 82 83 80 90 89 86 84 81 78 75 81 78 81 82 83 82 79 81 78 80 81 81 83 85 88 90 92 88 89 91 90 99 102 96 98 86 76 68 64 56 49 43 51 51 49 47
64 65 69 76 82 77 80 88 90 88 85 85 82 77 75 78 78 79 78 79 80 82 81 82 84 88 86 86 87 87 87 88 93 96 98 93 89 79 69 68 62 58 50 42 47 50 46 43 42
57 56 63 67 73 74 75 72 83 87 80 78 74 74 80 84 81 78 80 82 82 82 86 81 80 87 90 84 84 86 89 96 95 93 92 87 74 69 69 60 59 52 46 48 50 50 46 44 44
46 48 55 59 64 68 73 76 78 85 78 80 75 73 78 82 77 79 84 89 80 77 82 81 80 85 81 83 84 89 90 90 89 90 78 70 66 63 61 58 59 55 50 47 46 46 45 46 46
40 40 36 40 58 59 66 71 70 74 81 84 77 77 83 80 82 74 85 87 83 82 78 87 95 87 82 84 84 94 90 90 79 68 68 64 64 65 60 56 52 50 51 49 49 47 52 49 48
33 35 47 47 50 47 48 58 63 67 70 76 71 73 76 77 74 70 70 78 79 80 83 84 79 84 86 90 88 85 77 70 65 63 64 62 66 64 62 61 57 59 56 55 55 55 54 54 55
40 43 46 50 52 53 54 53 55 56 56 56 59 62 63 68 70 71 73 79 78 74 74 79 80 82 83 86 79 78 65 62 59 61 60 63 63 65 63 63 63 59 60 58 62 63 62 62 58
45 46 47 40 39 44 46 48 53 57 64 63 63 64 61 64 65 67 70 70 74 75 80 80 80 81 85 84 76 65 63 60 63 59 59 58 60 63 66 69 69 66 59 60 68 69 69 67 66
45 44 48 42 39 42 46 49 49 46 49 52 53 56 60 64 68 70 70 72 76 80 83 85 82 76 67 54 53 57 58 61 60 58 59 61 64 67 68 68 67 65 65 68 72 73 71 72 71
43 46 48 50 47 50 47 53 56 56 55 59 62 63 67 68 70 74 77 74 78 81 81 76 65 59 42 45 48 52 59 64 60 61 64 65 70 68 68 73 73 70 69 69 71 73 74 74 71
34 35 39 37 52 55 56 55 55 58 58 59 60 66 68 70 74 74 76 78 76 70 63 53 43 26 28 37 39 49 56 58 62 67 69 72 77 77 79 73 72 72 72 73 76 77 78 76 74
37 37 39 40 42 42 51 53 60 56 57 63 66 69 70 70 69 73 64 60 51 51 49 45 36 17 20 46 56 58 67 73 78 77 78 80 79 76 74 73 73 74 76 78 80 80 79 77 76
34 34 39 42 45 49 49 51 49 60 64 63 61 67 61 50 50 52 47 47 48 46 44 35 29 40 54 62 69 74 78 80 78 79 80 79 78 76 74 75 76 79 80 81 81 81 82 83 84
28 28 28 32 37 42 41 41 47 50 45 46 42 44 45 44 41 40 39 39 35 28 32 36 41 46 55 63 73 76 74 79 78 78 77 77 77 76 77 79 80 81 83 84 85 86 88 90 91
24 23 24 26 26 27 30 32 34 35 37 38 40 41 37 34 33 35 38 40 44 47 49 52 54 55 57 63 68 71 73 74 75 76 76 77 78 79 80 81 82 84 85 88 89 91 94 96 99
20 20 20 21 22 24 26 29 30 32 34 35 36 37 37 36 34 38 41 45 50 52 54 55 57 58 61 66 68 69 70 71 72 74 77 79 81 82 82 83 85 88 92 95 98 99 104 108 112
20 21 21 21 21 21 23 24 31 31 32 32 32 33 36 37 36 35 36 37 38 40 42 45 46 48 55 60 62 66 69 71 73 76 77 77 80 81 82 88 93 96 99 102 106 111 116 118 121
17 17 17 17 18 20 23 26 30 27 27 28 27 25 25 27 31 32 34 36 40 42 44 47 50 54 58 61 64 67 69 72 74 77 79 80 81 85 90 94 97 101 105 110 115 120 122 125 125
18 18 16 14 13 12 12 12 15 15 17 20 23 26 29 32 34 37 40 41 43 48 49 51 52 55 57 60 63 66 69 72 74 76 79 82 86 90 95 99 103 107 112 118 122 123 127 125 122
13 11 11 11 9 9 9 11 14 17 19 23 27 30 33 36 38 41 43 45 46 48 51 53 56 58 59 61 64 67 70 73 76 79 82 85 89 94 100 106 110 116 121 123 125 126 121 119 119
11 10 8 6 5 6 9 13 15 18 22 25 28 33 37 40 42 44 47 49 51 52 54 56 58 60 62 65 69 71 73 75 78 81 85 89 95 101 106 112 116 117 120 122 120 118 118 116 114
9 7 6 6 9 11 14 16 19 22 25 29 31 35 39 42 45 48 50 52 55 57 59 61 62 63 65 68 70 71 72 74 78 82 89 96 103 108 112 115 116 119 118 117 118 116 112 110 109
7 6 9 11 13 15 18 19 22 26 29 33 35 38 41 43 47 50 53 56 57 59 60 61 61 62 64 66 67 69 73 78 84 90 98 104 106 109 111 115 116 115 116 115 112 108 103 98 96
9 12 15 16 17 19 20 24 27 29 31 35 38 41 45 47 48 50 51 52 54 54 56 58 59 60 62 64 69 74 79 86 92 98 103 107 107 114 114 114 114 117 114 107 102 98 93 89 86

GFSSGP_250_spd_039.txt.gz
Wind_Speed
96 96 93 92 88 87 88 89 86 81 83 84 83 79 78 80 78 78 80 82 83 83 84 83 80 81 81 79 82 83 86 83 85 85 88 90 89 91 86 93 94 98 88 87 99 91 92 85 78
94 96 96 92 86 85 90 87 83 81 80 83 80 79 76 74 73 78 79 82 83 83 81 80 83 83 85 85 85 86 83 85 88 90 89 92 89 88 92 91 95 89 86 96 91 90 81 77 68
89 90 89 89 87 86 89 86 83 84 82 83 84 77 76 77 75 78 82 85 84 83 83 84 84 85 86 88 87 86 86 87 89 92 91 92 87 92 95 97 85 87 92 90 89 79 77 69 63
81 82 85 85 83 84 86 85 83 85 86 82 79 73 74 76 79 81 80 82 85 84 83 82 84 82 83 86 87 87 88 91 90 90 88 87 93 98 101 89 88 88 89 88 85 74 68 60 53
77 74 75 77 77 81 84 84 83 80 83 82 82 82 78 75 77 78 78 71 73 72 76 75 74 76 82 85 89 89 89 86 85 86 90 91 96 97 87 90 92 89 83 83 74 68 63 54 40
68 69 67 66 69 76 81 83 77 81 83 80 86 83 84 83 79 76 74 74 77 78 79 80 84 87 88 88 88 87 87 84 88 92 96 94 93 89 88 88 86 88 81 78 70 62 57 45 40
60 62 60 58 65 70 75 78 74 77 82 89 85 82 79 80 82 82 77 79 82 80 82 80 82 81 80 83 84 85 89 90 90 90 86 86 83 88 88 85 85 80 78 70 65 58 51 45 41
49 51 51 54 61 64 70 74 78 76 76 78 87 85 87 82 81 80 76 77 76 78 77 77 78 83 85 86 91 92 87 82 87 89 89 86 85 89 82 84 75 74 70 65 62 55 46 44 40
44 45 49 52 60 64 68 70 75 75 72 75 79 85 81 77 80 80 78 74 74 78 80 81 84 85 89 90 82 79 82 91 84 87 89 92 90 81 77 74 69 66 61 59 57 52 43 45 46
39 40 41 46 51 61 64 70 70 73 74 68 62 61 62 68 72 77 79 78 79 76 79 83 85 83 77 78 80 78 82 82 84 85 85 80 72 66 67 66 65 60 61 59 59 52 51 51 49
33 34 33 36 44 49 58 61 60 63 68 69 69 68 66 64 66 68 65 61 70 70 69 76 73 72 75 72 76 80 80 84 82 81 73 68 64 63 63 65 63 60 57 59 60 61 61 58 56
25 28 31 35 38 41 49 54 55 56 58 63 65 64 64 67 68 72 72 74 69 69 67 69 72 70 74 74 74 81 85 82 83 64 63 65 63 61 60 61 60 59 59 63 63 61 62 58 54
24 26 29 30 35 37 36 39 44 48 51 60 64 66 69 70 68 65 65 64 65 64 67 66 70 73 75 73 80 81 75 67 63 60 61 62 60 59 58 58 59 59 62 66 64 62 68 68 64
26 28 29 36 35 30 26 31 38 38 39 44 49 54 55 58 59 57 60 60 63 62 64 68 69 72 74 80 80 73 62 56 54 58 60 62 66 59 61 62 64 66 68 71 73 75 74 71 70
26 32 33 34 35 35 36 36 36 37 41 46 49 56 59 61 61 60 56 57 58 62 66 71 70 77 80 81 73 56 53 57 61 67 62 59 62 68 70 73 75 75 78 79 78 76 73 73 72
22 28 36 36 38 40 37 39 39 40 44 46 45 47 48 53 56 57 57 63 62 65 68 69 73 65 62 53 48 47 50 52 57 62 60 60 63 70 73 75 80 83 85 84 79 77 75 74 74
25 30 37 38 40 42 46 42 39 39 37 47 52 54 57 58 58 57 59 62 67 70 70 65 61 55 46 40 33 59 54 55 56 63 62 62 71 76 80 83 88 89 90 87 85 81 78 78 77
29 25 28 37 36 40 46 47 51 44 47 49 42 48 51 50 58 61 64 66 66 61 59 56 49 32 20 37 44 44 57 64 61 70 72 76 82 85 88 91 92 92 89 87 83 82 81 81 81
29 28 29 31 32 35 39 52 42 48 46 50 53 56 56 58 61 56 50 50 52 50 49 46 43 38 43 54 60 58 71 71 75 75 83 89 91 92 94 95 93 89 85 84 83 84 85 86 86
26 30 32 33 33 32 33 35 35 34 35 43 47 48 46 42 39 41 46 45 44 45 45 45 42 43 43 47 53 58 66 76 78 86 85 89 91 90 90 87 85 85 85 87 88 88 90 91 90
28 27 28 28 28 28 29 30 30 32 33 37 40 38 36 35 34 35 38 41 41 43 43 44 47 50 55 57 57 61 63 72 73 75 79 81 81 81 83 84 86 87 87 89 92 90 89 92 94
24 24 24 25 26 26 26 29 31 32 32 32 32 31 30 31 32 32 32 31 32 33 35 38 41 45 48 50 53 57 62 64 67 70 73 75 78 81 83 84 85 87 87 89 92 94 96 99 104
21 23 24 23 23 25 27 27 30 28 26 26 26 28 28 24 24 25 28 32 35 38 41 44 47 49 51 53 55 58 60 62 64 66 69 72 75 78 81 82 84 86 88 91 95 99 105 109 113
20 20 19 21 24 26 24 24 23 22 22 20 17 16 19 22 26 29 32 35 38 41 44 47 50 52 54 56 58 60 62 65 67 69 71 73 77 79 80 81 84 88 94 99 105 110 112 114 117
17 18 20 21 18 17 18 16 12 9 10 13 15 18 21 24 28 32 36 40 43 46 49 51 54 57 59 61 63 65 66 67 69 71 73 74 74 76 81 86 93 98 102 106 109 111 113 116 119
11 12 13 13 11 9 8 7 8 10 13 16 18 21 25 29 32 35 38 42 45 48 51 54 56 58 60 62 63 64 65 65 66 68 69 72 77 82 87 95 99 102 107 106 109 110 112 114 115
13 15 14 12 9 7 8 10 12 14 16 19 23 27 30 32 35 37 41 44 46 49 51 53 55 56 57 59 60 60 61 61 64 69 74 79 84 90 95 99 102 104 105 106 109 111 112 111 113
15 14 12 9 8 9 11 12 14 16 19 22 26 29 32 34 38 41 44 46 49 51 52 54 55 54 55 56 57 59 62 65 69 74 80 82 91 94 98 103 102 105 106 106 106 109 110 108 105
11 8 6 6 7 11 13 15 17 20 23 26 28 32 35 39 42 45 48 50 53 54 54 54 53 52 53 56 59 61 64 71 77 81 87 94 97 102 104 104 106 105 109 110 112 111 104 100 95
9 6 6 8 10 13 16 18 21 24 25 28 31 33 39 41 45 46 49 52 53 53 52 54 55 55 56 59 61 66 74 79 86 92 100 101 102 106 105 107 109 111 115 112 110 102 96 91 85

GFSSGP_250_spd_042.txt.gz
Wind_Speed
93 91 91 94 94 93 90 87 86 83 84 82 83 80 82 82 85 85 84 83 83 81 81 80 76 78 79 79 79 78 78 78 79 82 82 82 83 84 83 87 85 82 85 89 92 83 81 86 87
94 94 89 90 92 93 91 87 87 85 83 80 82 82 81 83 84 82 80 81 83 81 79 76 77 77 78 79 79 80 78 80 80 83 84 85 88 89 89 87 85 88 88 95 83 81 84 82 81
88 90 90 85 85 89 90 87 85 82 83 81 80 82 83 80 79 83 78 81 84 83 82 80 80 81 80 78 79 80 83 83 84 82 87 90 90 89 87 89 90 91 92 80 75 81 81 78 76
80 84 85 86 84 86 86 83 80 81 82 80 78 82 84 82 81 79 81 78 82 86 83 84 82 82 82 79 81 86 85 86 86 88 91 87 81 82 92 90 87 91 82 82 79 85 78 70 62
70 75 77 80 84 77 78 78 75 75 79 79 79 77 86 86 84 82 77 81 86 82 83 85 84 75 81 85 85 84 86 84 86 86 86 84 89 93 86 87 85 81 79 80 80 78 70 62 56
58 63 67 71 72 70 68 71 72 70 77 77 79 78 84 87 84 74 77 75 77 76 78 79 81 81 78 80 82 83 83 81 81 85 84 89 89 90 82 83 84 82 75 71 73 68 63 57 56
54 54 57 61 65 64 59 63 64 65 74 80 78 78 80 83 85 63 74 71 72 64 68 72 73 78 74 74 79 83 85 83 86 89 93 93 86 84 81 81 76 74 75 69 67 60 59 57 54
45 44 47 52 55 54 57 59 60 62 70 79 79 73 71 76 73 77 76 77 81 81 77 74 73 80 81 74 77 82 84 88 88 89 84 80 79 81 78 77 73 72 72 71 62 58 55 52 46
41 41 41 43 46 49 53 54 59 63 66 73 76 77 73 74 73 77 72 67 68 72 74 72 76 76 78 78 76 76 84 84 80 77 80 83 77 74 75 70 66 69 69 68 58 56 49 48 48
38 37 39 40 41 45 49 55 59 63 64 67 71 72 69 70 71 63 62 65 65 60 69 78 79 81 75 77 85 88 77 84 77 75 75 78 78 77 77 65 69 69 68 61 56 52 52 51 52
31 32 33 35 36 38 43 50 56 57 57 66 66 67 65 65 61 57 61 66 65 59 65 65 65 72 81 72 70 72 72 72 74 81 81 78 78 75 77 73 69 65 62 56 53 53 55 56 58
24 25 24 25 30 34 36 40 42 50 57 62 64 62 62 66 69 72 67 60 59 57 56 59 61 64 65 60 67 70 72 77 80 80 72 70 74 68 68 71 61 63 62 54 56 58 60 62 66
23 22 24 27 29 33 35 33 36 43 46 52 53 54 56 62 69 66 65 68 69 67 66 66 63 60 68 69 72 77 79 76 78 71 70 69 70 66 69 69 66 65 64 65 63 64 68 71 77
24 23 25 29 28 31 26 30 28 36 41 38 43 49 51 56 58 66 66 64 66 68 61 63 67 68 68 68 72 74 75 77 69 62 65 62 68 68 69 73 74 73 73 69 68 72 79 80 83
25 23 24 25 29 29 26 22 26 24 31 33 36 37 39 41 46 50 50 48 51 53 58 61 63 67 68 71 68 74 66 59 61 58 60 65 70 69 70 73 74 76 74 69 74 83 87 91 90
25 25 25 25 26 27 26 24 26 27 28 29 32 40 37 41 43 46 50 48 49 55 59 62 59 62 64 70 69 57 55 53 51 53 61 61 59 64 70 65 70 64 71 77 87 91 98 98 100
24 25 22 22 29 29 28 29 33 33 33 34 37 38 41 41 43 44 47 52 54 58 61 60 62 65 62 54 49 41 44 49 54 60 61 68 63 66 66 72 77 81 86 93 98 100 103 100 92
25 21 19 20 22 26 28 31 36 37 38 39 40 41 41 34 37 46 53 59 58 54 54 56 54 53 52 39 47 38 50 58 59 62 68 68 68 75 81 86 91 93 95 99 100 102 102 93 90
27 23 22 24 25 28 24 26 30 36 39 45 44 42 45 48 53 55 54 52 51 52 52 51 49 44 43 47 50 52 53 60 60 68 77 80 82 83 89 96 94 95 102 98 98 96 93 93 91
25 27 29 25 25 25 28 30 33 34 38 43 46 45 50 48 44 43 48 49 47 44 39 38 37 37 41 44 46 52 56 55 66 77 76 81 85 88 92 96 96 94 89 88 88 87 89 90 89
27 27 27 28 29 31 34 35 37 40 44 41 46 46 40 38 36 37 36 33 35 37 38 39 38 39 42 44 46 50 52 55 60 63 68 70 72 77 79 81 81 83 85 87 89 88 85 84 87
28 28 29 29 30 31 32 33 32 33 32 31 31 31 32 30 29 30 32 31 29 28 32 35 38 42 45 48 51 54 56 58 62 65 69 72 75 77 79 81 82 84 84 82 83 85 90 93 97
27 28 28 29 30 30 29 29 28 27 26 27 29 29 27 25 23 20 22 25 28 31 35 38 42 46 49 52 56 58 61 64 66 68 70 72 73 75 75 75 73 74 80 84 87 93 95 99 102
24 25 25 25 26 28 25 24 21 24 24 23 20 17 15 17 20 22 26 29 33 35 38 42 45 49 52 55 58 60 62 64 66 66 66 65 65 64 65 71 78 81 85 90 93 97 101 102 103
18 20 22 24 23 21 20 20 19 15 10 8 11 14 16 19 23 26 29 31 35 38 41 45 48 51 55 57 59 61 63 64 63 62 61 61 63 68 72 78 85 88 95 99 99 99 102 105 106
19 19 20 19 18 20 20 14 10 9 9 11 13 15 19 22 24 27 31 35 38 41 45 48 52 54 56 58 59 59 59 59 59 59 62 64 68 76 80 87 93 96 97 95 100 103 103 104 107
21 19 19 18 17 14 10 8 8 10 13 14 16 17 20 24 27 30 35 39 41 43 45 48 50 52 54 56 58 57 56 58 60 64 67 71 77 82 87 93 96 94 97 99 103 105 107 109 108
15 14 14 13 13 11 9 9 12 14 15 17 19 21 22 26 29 31 34 38 41 44 48 51 53 54 54 56 58 61 63 64 67 69 72 77 82 88 96 94 95 97 100 103 106 108 109 110 110
14 14 14 13 10 11 11 13 15 15 18 20 22 23 25 29 32 34 39 41 45 49 52 56 58 59 60 61 61 63 66 68 70 74 77 84 88 97 96 96 99 100 103 105 107 111 110 107 103
19 17 13 12 13 14 15 15 17 20 22 24 24 25 29 33 35 39 44 47 51 55 59 62 63 64 65 66 66 68 69 69 72 77 85 90 96 101 102 102 101 102 105 108 110 109 104 103 97

GFSSGP_250_spd_045.txt.gz
Wind_Speed
93 92 97 99 96 98 99 98 97 96 91 89 81 83 79 80 77 75 78 80 82 83 82 86 86 85 85 84 84 80 76 78 78 78 80 85 82 80 84 85 84 86 88 90 85 86 89 89 83
85 91 92 94 94 89 91 98 97 94 88 90 81 79 77 79 80 79 79 75 72 71 79 85 88 88 88 85 83 81 79 80 82 81 81 83 83 85 86 85 87 87 87 83 88 90 93 85 76
78 83 87 88 88 86 89 97 93 85 85 83 84 80 77 76 76 76 77 75 73 73 79 83 84 81 79 81 81 83 82 82 81 83 85 86 87 86 85 88 90 86 86 91 97 88 81 78 74
73 73 76 82 84 85 90 97 81 81 79 78 83 72 74 73 74 75 73 73 74 77 77 81 81 82 82 80 79 75 78 84 84 86 87 85 82 84 89 88 85 87 91 94 84 81 78 77 74
63 68 69 70 76 85 82 79 74 80 78 73 72 66 69 71 75 76 75 77 80 77 78 82 81 76 80 84 84 85 86 84 86 87 86 87 87 88 87 88 90 94 85 75 79 75 72 71 72
53 56 62 66 69 71 75 69 71 68 70 70 69 62 65 52 47 56 67 67 67 69 75 78 74 76 74 77 78 81 82 76 83 81 75 83 87 89 88 89 91 76 79 76 69 73 73 72 72
48 49 54 60 64 57 51 29 68 67 64 69 66 65 67 71 66 45 45 52 47 38 51 60 64 66 60 53 63 64 74 79 64 74 79 86 89 87 86 85 80 78 71 71 74 70 71 68 64
42 46 49 51 52 50 48 59 59 61 63 64 60 62 67 62 53 53 46 43 60 61 63 63 59 67 64 60 62 65 71 75 79 73 81 82 83 77 75 73 70 75 74 73 76 73 67 66 60
42 42 43 45 43 21 32 46 56 55 58 60 60 61 66 64 59 61 61 60 45 59 59 56 63 64 68 71 66 72 74 68 72 81 87 74 75 76 73 76 78 77 76 76 71 65 64 59 57
37 40 39 37 23 19 57 55 52 47 54 61 59 60 66 66 64 64 70 73 76 77 75 72 78 80 75 67 67 63 72 73 69 69 73 76 75 81 83 79 81 76 77 68 65 63 59 54 52
32 31 33 32 33 38 42 44 39 45 52 56 55 47 58 65 70 73 73 68 69 76 78 69 68 76 71 68 72 81 68 65 68 68 71 77 82 75 76 78 79 78 65 65 64 60 61 58 56
25 25 29 34 40 41 36 29 34 36 49 48 50 54 59 57 65 68 70 68 71 74 73 72 65 60 59 64 59 64 67 64 68 74 78 74 68 63 74 71 74 72 72 69 68 65 62 62 56
29 30 26 26 29 30 22 12 34 30 33 37 42 47 49 52 63 63 63 65 60 71 75 75 78 77 75 75 71 72 70 75 77 74 60 60 71 75 78 75 76 74 71 69 67 67 66 60 56
31 26 27 26 30 27 27 40 42 28 28 31 37 41 45 48 50 52 56 69 72 73 72 76 77 79 75 74 69 72 73 74 74 75 71 73 72 70 70 69 71 72 74 75 75 71 64 64 70
27 28 28 29 29 25 28 34 33 26 26 27 30 35 35 32 36 43 47 52 59 65 68 71 68 69 72 70 70 66 68 70 72 68 70 65 69 67 67 71 72 72 71 77 75 73 66 78 80
32 29 30 29 29 30 29 26 23 24 24 22 23 24 27 30 31 34 35 40 43 47 55 57 59 58 62 65 60 63 68 57 53 60 66 63 62 60 64 70 74 77 74 69 78 80 87 88 92
31 30 28 23 20 20 19 21 17 24 26 27 24 23 27 30 41 41 39 43 49 55 55 56 56 58 62 68 69 72 65 46 54 62 56 55 66 70 69 71 76 83 82 82 86 90 95 97 101
33 31 25 20 19 21 24 26 25 27 30 28 31 31 31 38 38 41 46 47 48 51 58 60 63 65 67 63 64 62 56 55 58 59 63 63 72 71 74 78 81 85 89 95 96 100 102 102 99
29 27 22 22 24 25 29 27 27 30 32 33 34 34 36 37 43 51 49 46 47 50 55 58 60 61 62 62 59 54 55 54 59 61 67 71 77 77 82 85 88 94 98 99 102 89 87 89 88
27 24 24 24 23 28 32 34 34 34 34 36 41 43 43 42 43 44 47 50 55 60 59 55 54 52 49 46 46 47 49 53 57 61 60 67 73 76 76 79 81 82 85 85 85 87 86 85 81
26 27 27 26 26 29 31 33 35 35 35 36 39 40 42 43 44 48 49 51 50 45 43 40 39 37 37 39 41 44 48 52 57 60 64 68 71 74 77 80 83 84 83 81 77 74 75 79 88
29 31 29 29 26 29 30 30 35 36 36 37 40 42 42 42 42 40 40 39 35 33 29 29 32 36 39 43 47 51 55 59 63 67 70 71 76 77 78 78 77 73 70 68 74 78 83 89 93
33 32 30 28 30 32 32 35 37 34 33 34 35 35 35 35 34 31 29 24 23 25 29 32 36 40 43 46 50 55 59 62 64 66 68 69 70 70 70 68 66 68 71 76 80 85 92 98 101
28 29 30 32 34 34 33 33 34 28 29 31 31 31 30 27 22 20 20 22 25 29 33 36 39 42 45 48 51 53 55 57 59 59 60 62 62 62 62 66 69 74 77 82 86 93 97 100 104
30 30 31 32 31 29 29 27 23 27 27 27 26 22 18 17 17 18 21 24 28 31 35 38 41 43 45 49 51 53 55 56 57 58 59 61 66 68 70 73 74 76 82 87 93 96 99 102 102
30 28 25 23 23 22 23 24 24 22 19 17 16 16 16 16 18 20 22 26 29 32 34 36 38 42 47 50 53 55 57 58 60 59 61 64 65 66 67 70 76 84 88 95 98 101 102 103 105
21 20 20 21 22 23 21 20 18 17 15 15 16 16 17 19 21 21 25 28 31 34 37 39 41 45 48 52 54 58 63 64 64 64 66 68 69 70 71 74 82 88 95 98 101 103 104 106 108
22 22 21 21 21 21 19 20 19 16 15 16 17 19 21 23 23 26 29 33 34 38 42 45 47 50 54 60 63 67 70 73 72 72 72 74 76 76 79 83 89 96 99 103 105 106 106 108 108
23 24 22 20 20 19 20 17 16 17 18 20 21 23 25 27 28 30 33 36 38 42 46 50 55 60 64 66 70 75 77 79 77 76 78 79 81 81 84 90 96 101 104 106 106 108 109 112 113
24 22 19 19 20 19 18 17 18 20 22 25 26 27 30 32 34 36 40 43 46 50 52 57 62 66 70 74 78 80 83 85 81 80 83 85 84 85 90 96 102 106 109 108 107 107 110 113 111

GFSSGP_250_spd_048.txt.gz
Wind_Speed
83 82 88 89 91 91 91 90 97 97 93 94 93 89 83 81 77 75 69 70 80 75 77 76 76 79 79 78 75 81 85 84 85 85 86 87 86 85 84 82 81 84 85 85 84 86 86 86 84
78 77 78 79 84 81 84 91 94 85 87 87 89 71 72 76 82 79 77 71 74 76 78 78 76 80 82 75 75 76 81 83 84 85 86 82 82 82 80 83 86 86 88 85 87 90 89 87 89
72 72 72 72 74 76 79 92 79 88 90 84 84 83 86 82 74 75 75 73 68 71 80 82 79 79 79 75 70 73 74 77 74 77 78 79 82 84 88 86 88 87 87 89 91 89 89 91 87
65 66 64 66 67 71 81 83 79 81 77 75 80 79 80 81 77 72 60 63 65 69 74 76 81 76 78 73 74 73 79 76 75 78 77 80 83 83 85 85 83 87 88 92 88 87 86 78 74
62 61 60 60 62 66 73 74 68 66 63 66 69 74 75 76 74 68 55 43 47 52 61 64 69 66 71 68 68 70 70 71 69 67 71 66 68 78 80 83 84 85 86 85 81 81 73 71 69
59 57 58 57 60 62 66 59 45 40 39 46 56 65 67 65 67 57 56 52 50 49 50 65 65 71 67 73 72 60 58 60 66 68 65 60 72 66 73 77 77 79 82 78 78 72 69 69 72
54 53 53 52 53 51 47 41 33 32 39 45 56 61 55 61 61 53 51 49 42 39 48 59 56 60 61 62 57 55 56 60 70 65 64 66 70 76 71 76 77 85 81 73 64 68 73 72 72
49 47 45 46 46 44 28 31 36 45 42 30 34 48 51 53 51 48 38 45 40 41 52 48 43 48 46 51 56 53 60 63 61 64 64 68 64 67 71 77 83 75 75 71 73 77 77 73 77
46 41 41 44 41 20 27 27 31 48 51 48 49 42 46 45 49 45 48 51 52 54 61 58 55 44 44 47 51 56 59 60 64 67 73 70 71 78 81 79 74 74 81 82 83 81 79 77 75
37 40 40 36 30 22 18 24 34 46 54 56 48 53 53 42 51 47 42 29 51 53 53 57 57 51 52 61 66 69 68 75 78 81 81 82 84 83 81 83 83 86 84 85 83 78 76 74 69
34 36 34 35 24 30 23 28 41 41 48 55 57 49 56 44 39 42 50 50 50 56 57 59 64 67 70 71 74 78 76 74 79 87 83 74 75 79 80 84 86 85 87 78 77 76 76 73 65
34 32 30 27 38 41 30 30 37 49 49 44 27 41 46 41 38 51 59 65 68 71 71 72 75 76 77 79 81 78 75 73 68 69 73 79 80 84 80 76 81 78 81 82 77 81 71 67 67
26 23 24 28 48 50 41 43 44 43 34 25 33 38 39 31 33 41 61 67 67 74 76 78 78 78 80 80 72 69 74 75 79 78 75 79 78 80 80 84 81 87 86 83 81 73 72 68 65
27 24 25 26 47 44 42 40 44 41 30 29 28 32 29 28 37 57 50 63 74 75 79 77 81 81 78 82 82 80 83 78 80 77 78 81 87 82 83 87 88 87 92 79 73 75 75 72 73
28 28 30 27 32 43 45 48 44 32 26 24 20 19 21 28 39 44 47 54 58 68 75 78 83 82 85 84 83 84 85 85 83 87 83 80 82 87 88 91 88 85 79 75 73 73 77 80 72
27 30 32 32 34 40 42 42 32 33 30 17 20 21 20 25 30 32 49 50 45 48 52 56 61 72 80 80 77 76 78 75 75 80 81 82 85 86 85 81 78 75 75 74 77 81 78 83 83
34 34 34 38 38 36 35 29 30 29 31 24 20 20 21 23 27 34 40 36 37 39 43 49 51 55 60 65 68 69 66 71 75 77 78 78 78 77 73 72 73 75 79 83 82 86 87 89 87
33 33 33 33 28 23 21 14 18 16 19 20 21 27 27 25 28 33 35 40 42 46 45 48 51 55 58 57 60 64 69 70 71 71 69 67 67 68 67 70 76 80 80 80 85 89 87 86 85
35 34 31 23 23 21 21 20 23 21 21 23 27 30 27 29 32 33 40 48 44 48 51 56 61 59 58 61 68 69 63 61 62 61 60 61 64 67 70 73 77 82 81 80 80 80 80 80 78
33 31 25 20 21 23 23 26 28 30 34 34 33 34 37 40 43 45 47 50 49 52 55 53 55 57 61 59 56 56 52 49 49 52 55 60 63 67 70 74 75 76 77 77 76 76 74 71 70
27 25 24 23 24 24 29 35 35 37 35 32 33 38 40 42 46 50 50 48 48 47 49 51 51 51 49 46 42 42 45 48 50 55 58 61 64 66 65 65 65 65 66 68 69 69 68 70 73
24 26 22 21 18 28 32 35 36 39 39 37 41 43 40 40 41 46 47 49 46 45 43 43 39 35 36 38 40 43 45 48 51 53 54 59 62 63 64 65 65 67 69 71 73 74 75 75 75
22 24 23 22 25 26 30 30 32 32 31 32 38 40 43 42 40 40 38 38 39 37 32 30 32 35 36 39 41 42 43 44 46 49 52 55 56 58 61 65 68 69 71 73 74 73 74 75 82
25 24 26 29 31 34 36 30 29 32 31 26 39 35 34 34 35 36 34 33 27 27 29 30 31 34 36 37 37 39 43 45 50 57 61 65 67 67 65 63 66 70 71 72 73 75 78 83 91
24 24 26 30 35 33 29 31 38 28 38 31 39 33 33 33 32 26 24 24 26 27 27 29 30 33 36 38 41 44 48 53 56 61 66 71 73 76 73 71 71 72 74 75 76 79 84 91 97
30 28 31 31 32 33 34 37 34 31 30 29 31 31 27 24 24 24 23 26 27 27 29 30 32 37 42 42 47 52 56 59 65 68 74 77 79 81 79 77 77 77 77 79 82 88 94 97 101
28 30 32 34 36 35 32 28 30 28 29 28 26 24 24 24 23 23 25 26 29 30 34 37 38 43 47 51 54 58 61 66 71 75 77 81 84 84 81 79 79 80 81 85 89 95 99 102 107
33 33 32 30 30 28 26 28 25 27 25 24 24 24 23 24 25 26 29 31 32 36 38 45 46 48 54 59 61 63 68 73 77 79 83 86 89 87 84 84 84 85 90 94 97 99 103 107 110
30 30 29 28 29 28 28 24 25 22 24 25 24 24 26 27 29 31 32 36 39 38 43 50 54 54 58 63 66 69 75 80 84 83 87 90 92 89 87 87 89 93 96 102 101 104 107 109 110
31 31 29 29 27 27 28 24 23 24 24 24 26 28 29 32 35 36 39 40 45 48 47 51 57 61 65 69 72 77 82 85 85 90 90 94 94 91 89 91 95 99 103 106 107 108 111 109 113

GFSSGP_250_spd_051.txt.gz
Wind_Speed
79 82 85 84 86 87 87 91 96 95 92 91 90 83 80 78 81 76 72 70 71 64 69 75 66 69 67 61 69 71 71 71 73 76 78 81 81 80 81 80 80 79 79 79 82 83 82 80 80
72 73 79 78 78 79 84 88 89 89 88 87 84 80 76 74 82 60 70 72 70 67 66 74 80 76 74 74 77 75 74 72 74 73 74 77 77 75 77 80 81 83 81 76 77 78 75 77 80
65 67 70 71 73 72 80 79 77 77 81 73 73 80 81 78 81 69 60 68 60 68 67 69 72 74 79 82 78 77 79 76 75 76 77 75 75 76 72 67 70 74 68 70 74 72 76 80 78
59 59 62 67 66 72 75 73 71 78 62 51 59 69 73 76 72 72 68 59 51 54 56 63 73 77 78 79 78 76 74 69 73 75 69 67 69 65 63 68 71 72 69 73 67 73 74 77 76
52 55 57 59 62 72 68 71 63 55 51 48 54 63 63 63 64 61 53 50 37 51 52 62 62 63 63 61 58 66 72 68 66 63 66 65 58 61 65 68 65 67 70 70 74 81 75 79 90
50 52 55 58 60 67 62 55 44 39 45 45 48 50 57 54 61 58 37 32 41 42 56 61 56 56 56 52 50 57 56 56 59 61 60 57 58 60 66 60 64 65 72 80 77 73 82 92 74
49 50 54 56 60 61 52 40 41 44 43 42 47 47 50 55 54 53 46 44 45 50 57 52 53 58 57 54 50 50 57 57 56 55 61 58 61 62 63 64 69 78 83 75 83 82 82 75 72
45 48 53 56 57 51 36 34 36 39 36 42 40 38 43 45 46 44 48 54 54 65 68 55 54 48 49 46 53 51 54 57 53 57 56 59 59 60 68 77 74 77 83 88 78 80 80 79 83
44 46 51 47 44 38 32 36 40 39 39 31 37 33 22 30 37 47 49 49 49 51 52 58 56 52 52 52 44 53 49 44 48 52 57 61 60 71 77 80 81 85 85 83 82 81 85 87 89
41 42 41 41 38 32 33 35 31 33 30 29 20 15 17 20 22 28 44 46 48 43 53 62 62 55 56 57 56 54 51 52 56 57 56 67 73 82 84 84 87 88 87 85 85 88 87 83 83
37 38 36 40 31 28 34 28 32 33 31 29 26 23 25 33 30 25 29 32 39 43 55 57 56 55 55 54 56 59 61 64 64 72 75 77 79 83 85 88 83 82 87 88 92 78 82 84 84
34 35 34 26 26 33 35 33 38 20 37 36 30 28 37 41 36 40 40 43 41 38 46 52 55 57 58 59 66 66 66 71 71 73 74 79 83 77 82 83 83 90 83 85 86 87 88 83 82
36 30 26 26 32 36 45 41 28 32 32 32 42 41 35 29 33 34 32 41 44 46 46 48 57 58 63 67 65 71 74 74 75 76 77 79 83 86 91 90 88 86 86 83 85 86 88 86 85
31 23 26 29 30 39 36 40 32 32 30 25 29 31 33 26 35 34 28 37 47 58 61 63 65 65 66 67 72 77 78 82 85 85 89 88 91 93 92 95 94 92 89 91 89 91 84 80 76
28 30 28 26 33 40 33 32 29 29 15 22 22 25 28 33 35 33 41 33 50 55 64 64 68 73 76 77 79 80 84 86 88 91 95 89 89 88 92 90 88 88 86 83 83 81 79 74 76
34 29 30 28 41 36 39 43 37 34 34 30 28 30 25 31 28 33 44 48 47 52 66 66 75 80 85 87 83 83 85 82 79 76 80 83 82 83 83 86 84 82 80 76 76 75 75 78 80
32 28 30 29 32 41 44 41 36 32 37 35 31 25 23 22 25 30 41 48 55 51 47 53 49 62 61 58 60 59 62 66 67 71 70 70 74 78 79 75 72 69 69 72 76 79 81 84 83
30 30 29 31 29 33 41 41 38 33 30 26 28 20 21 24 26 28 29 32 37 38 45 47 45 51 59 61 61 63 64 66 69 70 74 74 74 70 69 66 67 69 71 72 73 74 73 71 69
31 31 30 29 31 30 27 28 26 22 22 21 23 28 26 26 28 26 24 30 33 38 41 47 49 50 52 58 63 67 67 67 68 71 67 64 61 61 62 63 63 63 64 64 67 69 70 70 71
32 32 30 26 28 27 23 22 18 17 21 27 25 26 28 28 34 35 28 35 37 40 40 52 58 64 64 62 63 63 62 60 59 54 56 55 55 53 50 51 55 61 63 65 68 70 73 75 76
25 25 28 27 26 26 24 23 24 28 27 25 29 31 33 33 35 38 38 40 49 50 51 54 54 53 54 56 57 54 54 51 50 49 49 45 43 45 50 55 60 63 68 74 74 73 74 73 74
21 20 25 28 25 23 22 24 29 32 35 35 35 38 37 38 41 43 47 43 44 46 46 48 48 51 50 50 48 44 45 44 43 42 41 44 47 51 56 61 65 70 74 78 79 78 76 75 74
19 22 22 26 26 25 28 29 30 31 33 30 37 39 42 40 38 40 43 43 40 39 40 41 43 45 41 41 42 43 42 39 40 42 45 53 55 59 63 67 71 76 80 83 85 81 79 78 76
16 18 21 25 23 28 29 24 22 23 28 29 35 34 35 37 35 37 37 37 35 37 37 38 38 40 41 42 42 41 40 42 44 48 53 55 58 62 66 70 72 77 80 84 86 81 79 78 78
24 22 20 26 30 32 27 29 25 31 29 30 35 35 34 31 36 34 35 34 32 31 32 34 36 40 40 39 42 44 45 48 52 56 61 64 68 72 76 76 81 84 86 91 87 80 81 84 87
29 28 28 30 31 32 32 28 24 29 28 30 36 35 31 33 33 33 27 29 31 34 35 36 35 38 42 45 46 49 54 56 58 60 63 69 73 77 79 83 87 89 93 93 86 85 88 92 96
30 24 26 25 26 26 31 28 32 34 33 32 31 31 32 34 30 25 27 32 33 34 36 38 38 42 45 50 54 57 59 62 63 69 74 78 82 83 86 89 92 96 96 90 87 90 95 99 106
34 30 28 29 31 32 34 32 31 33 32 29 31 32 30 27 26 30 32 32 34 37 39 41 43 44 48 53 59 60 64 68 72 75 79 82 83 86 91 92 97 96 94 91 93 97 101 107 111
35 35 35 32 32 32 30 27 30 34 29 29 29 27 26 27 31 32 32 34 36 40 45 49 49 50 53 56 60 64 66 70 75 78 81 83 87 91 93 98 98 96 94 95 98 102 108 111 109
33 36 37 30 27 29 31 29 32 33 32 30 25 26 30 32 33 35 35 35 38 41 44 47 51 54 56 59 62 67 70 74 79 81 83 87 91 94 98 99 96 94 96 100 105 109 110 110 109

GFSSGP_250_spd_054.txt.gz
Wind_Speed
64 67 69 74 76 80 85 90 88 90 87 91 93 90 90 90 84 79 76 72 74 72 68 71 73 70 70 71 73 72 71 68 67 66 64 66 72 75 76 75 77 75 79 77 77 78 76 74 71
55 61 62 68 71 75 81 85 88 87 83 84 85 88 91 90 83 80 75 69 74 69 65 65 67 70 69 72 73 75 74 73 75 76 78 77 79 78 77 78 79 78 73 71 71 68 72 70 63
46 54 57 61 64 71 79 80 82 80 75 78 80 82 83 79 78 77 73 68 70 62 59 57 59 68 68 70 74 76 81 82 80 77 77 81 84 77 76 73 74 71 70 71 70 69 65 62 59
39 46 52 54 62 70 68 67 71 73 69 69 71 73 72 74 62 69 70 68 61 55 49 49 52 60 63 63 73 76 75 75 78 76 70 62 59 61 69 74 70 71 68 64 64 63 62 60 62
37 42 45 55 64 60 57 61 64 61 58 59 59 56 61 64 62 61 55 52 41 31 33 32 41 52 54 61 56 59 60 59 60 59 59 57 60 62 63 66 68 63 63 66 69 68 61 64 76
36 41 47 53 56 53 52 53 49 50 53 53 50 53 56 57 54 43 38 39 33 22 24 34 44 42 50 53 55 52 52 57 54 51 53 59 58 60 62 62 65 66 68 66 70 64 71 79 84
32 39 47 48 49 47 45 39 41 43 48 48 50 53 49 51 50 40 33 35 34 28 31 35 39 43 55 55 53 43 43 47 52 51 55 56 61 63 61 61 61 63 65 64 61 72 78 83 85
34 42 48 44 42 38 26 29 34 38 45 48 48 50 45 38 44 47 44 45 40 42 47 34 41 54 56 56 47 45 40 45 58 59 59 56 56 52 56 58 62 63 59 60 76 79 80 80 80
35 42 45 39 34 24 30 32 37 41 44 42 39 42 40 41 44 45 44 48 49 51 61 40 51 61 58 53 57 49 50 53 55 60 55 59 53 59 59 54 55 61 76 81 81 87 81 81 89
34 41 38 32 26 29 30 32 36 42 44 39 28 25 31 38 38 39 39 43 53 59 60 67 56 55 56 58 49 50 50 54 54 55 62 58 49 52 55 63 73 73 75 80 85 92 88 89 89
31 35 30 29 25 28 29 30 37 36 39 35 30 24 28 32 31 27 30 35 45 56 68 71 63 58 59 56 53 51 53 58 57 61 56 62 62 66 73 75 84 85 88 89 88 91 90 89 86
30 28 24 25 26 26 24 27 34 33 29 37 27 24 29 23 25 26 22 13 15 33 51 58 62 65 55 53 57 54 51 56 62 60 69 71 74 78 74 85 85 87 92 92 87 83 81 82 86
26 25 23 28 29 27 27 32 32 31 29 27 36 28 21 23 30 28 29 32 31 27 28 36 50 47 54 54 55 58 62 64 66 70 71 74 76 81 83 89 90 93 88 86 83 85 85 85 85
23 24 24 30 25 26 30 37 39 35 29 34 33 39 29 23 27 30 32 30 33 35 39 40 40 43 49 49 54 56 60 67 69 76 77 74 80 84 87 87 83 81 82 82 80 82 80 81 82
19 25 27 28 26 34 37 39 43 39 35 34 33 29 32 33 27 30 25 30 29 35 43 45 50 55 53 58 61 67 72 72 73 74 80 84 84 80 76 75 79 79 80 82 82 81 82 80 80
21 23 26 31 33 34 39 43 41 42 29 34 32 28 33 31 33 30 36 36 37 42 41 50 52 47 52 59 64 68 66 62 66 77 82 77 81 79 76 77 80 83 85 81 75 75 72 72 71
28 27 38 37 32 33 44 43 37 32 31 32 30 30 33 35 33 36 39 44 43 44 36 48 55 59 53 50 50 57 59 58 64 69 71 71 76 76 79 82 86 82 74 73 69 69 68 64 64
24 32 34 36 31 28 38 38 40 30 33 32 30 29 29 29 33 33 38 41 43 50 49 43 48 55 59 57 52 60 61 60 63 65 70 72 77 79 79 75 72 68 65 67 63 61 62 63 68
29 28 26 24 28 24 33 33 36 35 32 29 33 31 30 26 29 28 31 33 34 37 55 57 45 49 49 51 56 54 58 62 64 70 74 74 74 75 70 65 64 63 63 57 60 63 67 70 73
27 21 21 20 23 23 23 22 22 28 29 32 33 34 37 31 32 30 31 32 32 32 33 36 40 46 49 50 55 61 66 69 71 72 72 67 65 62 60 60 60 56 58 61 64 67 72 75 79
17 20 21 20 20 21 21 23 25 23 27 27 31 34 39 28 29 29 34 34 37 36 39 43 47 53 54 51 53 54 57 59 62 64 60 58 56 58 56 56 57 62 65 67 70 73 74 79 84
19 19 21 20 21 21 25 28 30 28 25 24 29 29 31 34 34 31 34 38 41 40 42 47 50 53 53 54 54 57 59 58 56 55 54 53 55 55 57 60 63 68 72 74 75 77 81 85 88
23 20 19 20 21 26 29 30 33 32 25 27 29 31 35 37 35 34 38 42 43 44 45 44 44 45 48 48 49 49 49 50 52 53 54 53 55 58 62 66 69 73 75 77 79 82 88 90 94
21 18 19 20 24 29 26 28 29 33 34 34 34 34 37 38 40 37 36 39 42 42 41 42 40 38 44 44 44 46 50 51 52 53 56 58 61 64 66 68 73 74 77 78 81 86 89 93 97
19 17 18 23 27 27 28 26 24 25 27 29 27 27 30 31 35 37 39 36 35 35 37 35 36 37 40 43 47 50 51 51 53 56 59 61 63 66 68 71 75 77 78 81 86 90 94 96 93
23 23 21 20 22 29 27 26 24 28 30 31 26 25 30 33 36 38 36 34 34 29 32 34 38 41 44 45 48 51 52 54 58 61 62 64 69 72 73 76 76 79 84 87 90 95 97 94 92
27 27 24 26 25 24 24 26 30 29 29 31 33 35 30 30 33 34 34 30 30 31 34 39 41 43 43 46 49 53 55 56 60 63 67 70 72 74 77 76 80 84 89 92 99 101 95 93 94
27 30 30 27 27 28 25 27 32 32 33 35 33 32 32 32 32 32 30 31 33 36 39 40 41 43 46 48 52 54 57 59 62 66 69 73 77 78 80 83 87 92 94 100 104 99 96 97 102
26 29 31 28 32 34 33 33 36 34 30 28 31 32 32 31 30 29 31 33 37 40 40 40 41 45 48 51 54 57 59 62 67 70 73 76 80 83 85 90 93 94 100 106 103 100 99 104 110
29 32 35 36 34 34 33 33 32 28 27 27 31 32 32 32 29 29 32 36 37 40 41 42 46 49 52 55 57 61 64 68 71 74 75 76 80 86 90 94 95 98 107 108 103 101 105 110 109

GFSSGP_250_spd_060.txt.gz
Wind_Speed
60 53 51 53 51 54 62 70 73 78 81 87 89 88 81 82 79 80 79 81 79 77 77 77 76 71 67 67 68 68 69 68 67 68 70 70 72 71 71 71 72 76 73 73 71 71 74 73 75
55 46 46 48 49 50 51 57 65 65 73 78 77 76 78 79 75 62 73 80 80 79 79 76 74 71 67 65 68 68 67 65 67 67 73 69 69 72 77 72 73 75 74 74 75 71 67 65 64
50 41 41 42 44 44 45 47 54 58 61 66 69 64 63 53 61 76 72 66 71 76 75 76 73 70 67 66 64 61 60 62 63 68 70 71 71 73 76 75 73 72 73 72 69 63 61 61 61
46 37 36 35 37 40 42 44 50 56 64 69 71 69 66 57 53 55 59 66 68 69 65 68 64 56 50 56 59 59 57 62 65 63 67 66 70 72 73 72 72 70 67 65 58 57 56 57 58
44 34 35 32 30 35 39 43 45 50 55 63 64 58 61 57 64 60 65 59 56 57 53 44 49 50 51 55 53 60 59 58 60 61 59 61 55 56 55 61 62 62 54 57 56 57 58 59 54
41 32 32 29 28 32 38 41 41 42 47 51 50 53 59 58 61 60 59 58 51 45 41 43 44 48 51 50 49 46 43 46 43 41 47 45 45 48 52 59 60 59 53 57 59 60 54 50 50
37 30 29 24 27 29 34 38 38 37 35 40 44 49 50 52 54 58 57 47 36 29 31 42 47 45 47 47 53 50 39 45 43 45 44 46 48 54 58 58 56 57 59 60 54 50 54 57 56
32 25 25 20 23 25 30 30 33 37 37 37 39 45 47 49 49 52 48 42 38 38 40 43 43 42 48 44 42 44 42 42 43 45 50 48 48 44 47 52 53 54 53 59 60 59 57 56 58
23 22 19 17 19 20 25 27 32 36 37 39 41 45 44 49 49 45 42 38 36 36 44 48 44 41 46 44 46 50 51 40 46 48 45 44 51 48 50 52 46 55 63 64 63 67 64 65 66
20 12 12 16 19 20 24 27 31 34 36 40 42 45 45 38 42 41 40 41 43 40 44 49 54 44 42 47 47 56 49 44 46 50 47 50 48 52 53 57 60 61 62 64 63 67 72 77 79
18 11 11 13 21 21 22 24 24 30 35 36 39 41 35 37 34 30 34 34 42 37 34 45 42 45 43 51 48 48 47 44 52 54 45 51 51 51 51 54 63 63 69 74 70 76 79 83 82
14 10 13 14 19 23 22 20 21 26 34 35 39 33 27 23 23 26 22 28 36 41 45 45 50 50 57 55 56 56 53 54 48 45 52 52 47 53 58 63 60 67 74 71 75 78 78 83 79
9 7 9 14 17 19 20 20 23 26 31 32 35 25 22 22 23 23 24 26 30 39 53 63 56 55 59 58 56 52 55 63 57 57 54 55 59 63 64 64 63 66 71 75 78 78 76 79 83
10 5 15 13 14 15 20 16 20 25 27 36 36 27 26 24 25 27 30 28 31 35 41 51 62 61 55 53 64 57 54 54 66 62 58 60 68 64 65 71 73 72 74 75 77 76 80 87 88
7 8 13 13 10 13 12 15 20 22 26 33 32 32 27 30 29 23 28 29 31 34 34 32 29 46 64 59 61 63 56 53 55 54 48 52 61 61 58 65 65 62 68 74 74 78 82 83 77
7 8 10 13 13 14 15 17 20 26 29 30 34 35 38 33 34 29 29 28 27 34 31 34 32 29 36 42 46 47 55 52 56 58 60 59 63 68 66 66 72 70 78 82 81 79 78 76 73
3 10 8 14 10 12 16 19 25 30 32 33 35 26 30 25 38 31 27 28 32 28 31 33 31 34 37 41 42 44 50 51 48 49 61 69 75 74 73 75 77 83 79 79 73 73 71 71 72
10 12 5 11 10 15 19 20 29 30 30 33 31 28 26 30 34 30 29 25 28 29 32 32 33 35 37 39 45 49 52 56 57 58 56 59 67 69 73 74 77 77 76 69 68 70 69 71 71
10 8 7 12 11 15 20 25 31 28 29 28 30 36 34 29 29 30 26 27 28 30 32 35 38 44 43 45 49 52 55 62 58 63 61 64 65 66 65 70 70 69 67 65 66 70 71 73 76
10 5 1 8 8 17 17 24 26 26 24 26 32 33 33 34 24 26 31 36 35 33 31 32 36 40 48 46 49 44 47 57 63 56 63 68 66 65 65 65 68 66 65 67 70 73 75 77 77
10 5 7 7 10 10 14 19 26 26 27 29 31 31 32 29 28 29 29 31 39 31 32 38 36 36 38 38 43 47 50 48 58 64 62 60 64 65 67 65 62 62 66 71 74 77 80 81 81
6 2 5 9 9 11 14 13 26 31 24 28 31 28 29 27 29 33 35 36 37 41 39 38 38 38 40 44 47 49 52 50 53 57 60 60 62 60 57 58 61 65 69 72 72 69 69 73 76
5 8 7 4 6 9 10 12 14 24 26 23 28 31 34 35 40 38 40 43 44 44 45 42 44 49 51 51 48 52 54 54 53 54 56 54 54 55 59 61 64 68 71 72 72 72 75 77 76
7 8 14 12 8 9 13 14 15 19 22 24 25 29 32 37 38 40 42 45 47 49 48 46 46 46 46 47 48 46 44 48 50 49 49 53 58 60 63 66 69 72 73 74 74 74 72 75 77
11 7 7 10 10 10 15 16 17 19 21 25 28 32 36 39 38 39 39 37 38 38 38 38 38 40 42 37 34 36 40 46 49 49 54 60 62 64 67 70 70 73 74 75 75 75 75 79 82
14 11 10 10 9 9 12 15 13 19 23 23 25 30 33 34 38 40 39 34 36 37 38 38 41 38 34 31 33 39 42 51 53 57 62 66 64 66 68 70 72 69 69 72 77 81 83 84 86
17 17 17 14 13 16 18 20 23 17 21 25 28 30 32 35 37 36 38 38 37 39 41 39 35 31 30 33 39 44 49 52 57 63 63 63 63 67 70 68 67 69 72 75 80 84 86 88 92
24 18 18 19 19 20 21 24 23 20 22 26 32 35 34 35 37 38 40 42 42 40 36 35 36 31 34 40 43 47 53 57 59 61 62 64 67 69 67 66 70 74 79 84 86 87 90 93 97
35 25 21 22 27 25 23 28 29 29 28 28 31 33 35 37 38 40 38 36 35 34 36 36 35 33 37 42 45 50 54 54 58 61 64 67 67 69 68 69 74 79 83 85 86 91 96 99 103
38 33 25 21 27 27 26 31 29 31 32 33 33 35 37 37 35 35 36 36 34 34 35 35 35 34 40 45 50 53 54 57 60 62 64 67 70 74 74 77 81 85 85 88 92 96 100 103 106

GFSSGP_250_spd_066.txt.gz
Wind_Speed
67 66 73 75 72 69 62 54 48 45 45 52 55 57 58 64 68 72 76 78 80 78 76 77 76 77 77 78 76 75 74 72 71 71 71 70 72 73 72 73 73 73 73 75 74 74 74 74 73
69 71 77 73 70 65 58 50 45 41 42 47 53 55 49 45 63 75 70 76 78 74 72 71 73 74 75 75 75 73 71 70 70 69 69 71 73 72 73 74 74 74 74 76 74 75 75 75 75
72 78 75 70 64 57 51 46 41 37 39 46 51 44 43 51 63 60 78 75 68 63 67 70 71 72 74 72 72 74 72 70 69 69 69 70 72 72 73 72 73 75 76 76 72 72 74 73 74
75 77 73 65 56 50 44 40 36 31 36 45 47 44 46 51 54 52 54 57 62 58 56 62 66 66 63 67 71 72 72 68 66 68 69 69 68 69 68 70 72 70 71 71 71 68 66 59 57
78 78 69 60 50 43 39 33 29 28 35 43 47 47 58 63 55 48 43 40 29 31 45 56 51 46 52 52 62 66 68 68 64 61 62 65 66 66 65 64 63 69 66 66 67 65 56 53 54
77 75 64 54 45 38 33 29 26 28 37 42 47 49 54 56 46 41 30 33 25 24 39 41 42 36 44 50 52 50 50 53 58 61 60 59 59 59 60 58 59 57 61 55 55 52 53 57 57
78 68 58 47 38 33 30 26 26 29 33 38 41 45 53 53 41 40 37 51 49 51 38 29 33 32 32 36 42 45 48 49 51 49 50 53 51 47 46 49 50 45 41 48 53 55 56 53 52
77 63 51 41 34 34 28 23 25 27 30 31 35 41 46 57 50 43 42 46 55 40 39 35 27 30 26 38 37 36 35 39 42 42 41 41 39 42 42 40 43 44 45 49 55 56 55 56 53
70 56 44 36 32 29 21 18 26 33 34 33 35 40 44 48 45 44 42 45 53 53 48 43 38 33 26 45 41 31 44 48 47 46 44 43 47 44 47 42 45 45 48 53 52 53 48 54 52
59 47 39 33 28 22 15 17 24 28 30 36 38 45 48 45 43 47 48 49 57 55 45 45 42 41 41 41 42 40 47 53 51 55 44 43 47 49 53 56 56 50 48 52 53 55 57 56 60
52 43 34 28 24 16 13 15 18 25 33 39 41 48 51 51 51 54 48 44 46 53 53 46 36 51 48 48 42 43 44 49 39 46 52 51 52 55 54 55 56 58 59 54 59 60 62 62 68
49 39 29 24 18 14 15 14 16 23 29 41 40 45 51 50 53 53 45 48 42 50 51 51 53 51 59 52 55 52 48 40 37 54 51 52 54 57 57 59 61 61 61 59 60 61 65 64 53
44 29 21 16 13 11 18 17 12 17 24 34 37 37 42 46 46 46 44 43 42 37 39 45 48 55 63 59 46 47 53 55 52 54 52 59 52 55 58 56 58 58 62 64 57 62 56 61 68
39 20 16 8 2 2 11 13 14 16 19 26 32 36 33 35 35 33 35 37 36 26 41 37 50 47 51 51 54 58 54 52 57 56 56 57 58 51 55 57 58 59 59 63 61 63 71 72 76
36 19 15 3 6 6 8 12 14 17 18 19 24 27 28 27 28 28 28 30 40 45 44 47 48 53 50 56 55 59 58 58 51 55 59 60 60 61 60 60 65 69 71 73 76 77 77 79 78
35 19 13 5 5 7 11 13 14 15 17 21 21 21 22 25 23 27 32 31 32 39 34 39 50 49 50 57 59 56 58 59 59 53 48 53 55 59 61 58 53 59 67 72 75 69 66 72 75
37 21 12 6 4 9 14 13 15 16 18 20 26 23 22 22 23 21 30 29 28 32 35 38 47 46 46 50 57 57 56 51 55 56 61 64 63 64 70 67 68 69 68 64 65 71 73 74 75
36 21 8 4 8 8 12 10 12 14 18 19 23 27 23 22 17 26 22 26 26 32 34 33 37 40 38 39 46 49 51 58 61 59 50 47 53 54 57 56 57 61 65 69 69 67 69 71 69
35 15 8 2 8 13 12 11 14 15 18 22 27 29 27 20 28 26 26 24 24 20 24 29 34 32 39 33 41 44 37 42 50 47 50 49 47 49 53 56 54 54 54 56 59 61 61 60 62
33 16 16 6 2 13 14 14 18 17 21 22 29 31 29 25 19 32 34 27 25 24 26 26 24 27 25 27 29 32 34 37 41 45 45 50 50 54 51 55 56 56 59 63 62 62 62 62 66
29 20 12 14 7 5 12 12 13 19 23 20 32 29 26 29 31 27 31 27 26 31 30 32 33 32 30 31 32 34 37 39 43 47 48 49 53 54 57 60 60 61 64 62 63 61 61 68 70
30 20 9 9 10 6 5 8 14 17 18 27 27 35 28 24 27 27 30 28 26 30 27 26 30 31 33 36 36 38 41 45 48 50 52 54 57 58 59 58 60 62 61 60 58 59 65 72 74
36 22 12 2 2 3 4 8 8 10 15 20 23 29 32 33 30 31 29 32 34 35 37 38 36 36 38 42 42 44 45 49 50 51 53 54 55 55 57 58 56 57 56 58 62 66 72 75 78
33 28 15 11 8 8 9 8 8 9 11 18 25 24 26 31 33 34 33 34 36 37 38 39 40 42 42 44 46 46 44 43 46 48 49 52 55 54 52 50 53 57 60 64 67 71 74 78 81
32 31 20 11 13 13 14 13 14 14 14 18 24 32 31 29 30 35 40 40 41 41 41 42 41 41 38 39 38 38 42 42 45 47 48 49 50 49 48 50 58 64 67 69 72 73 75 81 83
27 26 24 17 15 16 17 15 11 12 17 19 23 26 33 36 35 34 34 36 37 38 38 38 37 36 38 38 41 41 42 44 49 49 45 47 45 47 51 58 63 68 72 74 77 77 80 84 83
24 26 25 25 17 19 21 21 18 19 19 18 19 20 23 29 33 35 36 39 39 37 35 36 36 36 37 41 44 45 46 44 39 43 47 51 55 59 61 65 70 70 74 76 77 80 83 87 84
24 24 28 26 24 19 24 27 25 26 22 24 25 22 23 24 25 28 31 32 33 35 36 36 36 38 41 43 44 44 44 44 43 45 52 51 57 62 65 68 71 71 75 77 79 81 84 84 86
26 23 26 23 27 25 24 27 30 28 29 26 27 30 30 29 30 32 33 33 33 35 37 39 41 42 42 40 40 41 42 46 47 46 50 55 59 62 65 69 71 75 77 83 87 87 85 84 89
26 27 27 27 26 27 28 31 30 32 31 31 32 33 32 32 35 37 37 38 38 40 41 42 40 39 39 41 41 43 45 46 47 49 53 58 60 64 68 72 76 79 81 85 89 90 90 92 94

GFSSGP_250_spd_072.txt.gz
Wind_Speed
74 75 74 72 72 68 70 69 66 61 55 53 49 36 30 22 16 28 42 24 32 51 66 59 54 53 62 74 82 83 83 82 83 82 81 80 80 78 76 75 75 74 75 75 74 74 76 76 78
72 71 69 69 65 66 68 65 63 54 49 41 31 23 6 19 39 58 41 26 28 44 53 55 60 57 53 70 78 80 80 79 79 80 80 78 78 78 77 77 77 77 77 78 75 76 78 79 80
69 65 62 63 63 61 64 58 58 47 29 28 19 11 15 55 68 66 47 31 34 34 35 39 43 51 56 59 70 67 70 72 72 75 76 78 78 79 79 76 77 78 79 78 77 78 79 78 80
62 59 61 62 60 64 60 52 51 27 15 14 6 8 11 62 71 65 40 40 31 16 22 35 40 30 35 45 58 63 66 67 66 68 71 73 74 75 76 76 77 76 75 75 75 76 78 79 78
59 60 62 57 62 62 55 49 37 12 10 14 7 5 11 56 54 53 49 47 35 29 12 3 11 16 20 30 38 49 59 60 62 62 62 64 69 72 71 72 73 72 71 73 75 75 77 77 75
57 59 58 62 64 62 54 43 31 15 20 21 20 19 7 13 50 53 58 60 53 19 17 13 17 22 25 27 32 36 34 46 53 56 58 56 56 59 62 64 68 70 70 72 72 73 74 73 68
59 57 58 64 63 57 48 32 18 9 28 33 31 35 6 13 38 56 62 59 44 32 32 15 13 27 24 23 24 32 37 40 46 48 51 56 56 55 53 57 59 59 58 61 65 66 65 64 57
54 56 63 65 58 50 38 19 4 17 36 40 49 42 28 24 48 42 68 66 43 46 40 48 41 48 40 33 20 23 26 27 32 39 43 46 46 47 48 44 43 43 45 49 50 49 48 48 49
54 56 63 62 51 42 28 4 11 20 27 25 39 43 37 18 40 46 55 67 66 52 51 50 49 47 44 45 31 22 24 26 27 28 25 29 33 31 33 40 42 42 42 44 43 48 48 50 50
52 57 63 61 50 38 27 5 8 11 16 14 26 46 44 27 46 49 52 62 65 58 55 55 53 50 43 43 36 39 38 40 35 31 30 31 29 33 37 41 41 39 44 45 47 48 53 49 54
52 58 63 61 48 36 21 2 19 13 17 36 23 41 64 36 53 51 48 58 54 62 64 43 46 46 50 48 37 41 44 50 37 33 37 32 37 41 40 40 44 46 49 50 50 50 57 62 62
51 58 64 58 46 31 18 2 5 20 34 31 40 38 62 52 53 55 46 52 56 60 55 46 40 47 44 54 42 50 46 45 38 40 40 42 41 47 45 42 45 47 47 55 60 60 61 61 60
51 58 61 50 39 31 23 2 6 4 26 31 27 33 49 66 61 56 56 60 52 58 51 44 42 49 50 45 44 46 51 42 49 45 45 47 49 52 53 51 49 50 47 51 53 57 61 65 69
50 56 56 41 38 33 17 4 3 9 17 20 32 31 46 58 63 62 57 57 60 55 52 46 45 50 52 50 46 48 49 51 52 49 53 53 53 55 57 56 59 60 55 57 55 61 61 63 64
50 52 53 37 32 27 8 21 17 12 18 34 23 25 34 49 55 57 57 59 66 63 57 51 49 52 59 56 51 53 52 56 56 54 50 49 53 54 55 54 54 54 51 55 59 63 60 62 66
49 50 53 36 28 22 8 17 15 3 14 30 35 24 27 31 40 52 58 58 57 58 56 43 56 56 58 59 57 57 56 53 55 57 57 56 58 63 61 58 58 60 64 65 64 68 69 71 76
47 47 52 37 29 14 8 21 18 15 21 26 25 16 25 27 33 42 57 57 54 53 55 51 54 55 55 58 62 62 61 58 58 53 54 61 58 62 62 64 63 64 62 67 71 75 77 71 73
43 43 49 39 32 17 2 9 21 26 22 18 9 12 12 21 27 34 42 49 49 47 50 51 50 50 53 54 60 60 59 55 55 59 63 62 58 57 61 62 63 66 69 69 69 68 67 66 68
42 41 44 39 31 19 2 4 7 11 6 10 16 12 14 19 20 24 28 36 47 50 50 48 47 48 50 53 50 50 57 57 58 57 54 59 60 63 66 69 69 68 66 70 67 64 63 64 64
40 38 41 38 24 19 9 11 10 6 8 11 10 8 12 18 25 24 27 29 33 39 45 47 51 50 53 52 49 55 52 54 58 57 53 55 59 61 56 56 58 61 60 62 65 65 65 67 70
37 35 38 37 22 21 9 8 11 5 6 15 17 17 12 17 20 21 22 24 28 34 37 40 48 53 55 52 55 54 51 45 48 48 47 45 46 48 52 54 53 55 56 61 63 64 67 70 72
36 31 32 37 27 19 17 8 4 6 13 20 25 24 17 17 23 20 19 22 23 24 30 33 41 46 54 53 47 51 50 46 47 49 48 45 46 49 53 55 58 60 59 60 66 70 71 71 67
34 29 28 33 25 20 15 15 13 6 11 13 27 27 26 24 21 23 29 29 32 33 30 35 34 38 36 40 39 41 47 47 45 44 46 50 54 57 57 59 61 62 64 69 73 70 67 69 71
34 31 27 28 23 23 16 10 13 13 8 11 16 32 30 31 32 27 31 33 37 40 41 41 43 39 37 38 42 44 44 47 48 50 51 57 60 59 57 61 63 67 70 72 66 67 70 73 70
33 31 26 26 23 23 23 18 9 16 17 14 14 20 36 38 39 39 34 36 35 39 40 41 42 48 44 46 47 50 52 52 54 56 58 60 63 65 65 68 68 64 64 65 68 71 70 70 70
34 32 26 26 22 21 19 23 17 18 17 18 22 23 22 39 42 45 43 46 49 48 45 42 44 47 49 49 50 51 54 57 59 58 59 61 60 62 61 60 62 63 65 69 68 66 64 73 75
34 31 27 25 23 17 19 19 17 18 17 24 22 23 24 27 33 47 52 49 50 49 49 50 53 53 53 54 55 57 57 55 54 55 53 51 55 58 61 62 65 67 67 65 62 67 70 80 78
34 29 31 26 23 21 17 16 19 20 22 16 18 29 32 33 32 32 37 43 50 52 51 53 52 52 52 53 53 51 51 51 49 50 46 47 57 60 62 64 65 65 66 67 63 64 64 72 85
34 34 33 27 26 23 20 20 21 17 20 23 26 22 21 34 38 36 38 37 37 37 37 42 43 43 46 48 50 51 50 50 49 51 53 60 60 61 62 61 63 65 67 69 73 75 79 87 93
33 35 32 25 29 26 24 22 23 24 23 25 29 30 25 21 32 38 38 37 37 43 44 42 46 45 45 49 52 54 54 50 51 51 55 57 58 62 64 65 66 66 66 72 76 80 83 85 88

GFSSGP_250_spd_075.txt.gz
Wind_Speed
72 74 74 75 74 72 69 66 63 62 59 57 53 50 44 38 34 32 25 37 46 32 25 28 45 31 36 41 44 45 55 66 76 82 81 81 82 84 83 81 79 81 77 76 75 74 74 75 74
72 73 69 68 66 66 63 62 61 58 53 52 48 38 26 23 23 22 31 45 39 40 31 20 35 38 41 53 51 54 59 54 65 74 78 78 77 80 80 82 80 79 78 77 77 77 76 77 75
68 68 63 62 60 60 58 59 58 51 47 45 35 18 21 25 24 30 43 46 38 40 35 37 32 36 41 44 43 50 58 56 56 62 71 72 72 74 75 80 82 79 78 77 79 78 77 77 77
61 57 54 55 54 55 56 55 50 45 33 28 13 23 33 38 21 43 43 53 55 34 34 14 18 17 13 16 25 28 36 47 47 54 57 62 65 67 70 72 75 78 77 76 78 78 77 76 76
54 50 51 48 49 55 56 50 45 30 20 23 22 32 40 31 44 46 39 54 42 38 27 35 35 27 32 32 28 26 30 30 33 40 50 55 59 62 64 67 67 70 71 72 72 72 73 74 71
48 48 48 47 49 55 56 51 40 18 25 22 29 38 36 34 62 53 40 46 44 32 29 33 37 35 35 30 26 29 28 28 28 34 42 50 56 58 59 59 61 62 64 65 68 67 67 66 66
47 48 47 47 48 52 56 47 35 17 28 24 29 29 40 44 50 54 42 34 36 36 40 30 37 33 36 45 36 33 32 40 32 32 30 36 45 50 52 55 54 53 52 55 57 58 62 59 59
48 48 48 48 50 50 49 37 27 20 37 29 30 7 43 46 51 53 32 39 42 43 40 43 45 42 34 66 47 42 29 34 27 22 24 28 29 35 44 45 47 47 52 53 53 53 50 48 50
45 48 49 51 52 50 44 29 12 32 38 38 34 35 36 35 53 43 44 45 51 47 48 55 58 50 38 39 43 39 39 33 27 21 20 20 23 27 31 33 38 38 36 38 39 42 41 40 39
49 46 50 54 53 50 36 21 18 38 41 48 42 43 45 37 51 43 48 45 57 54 45 50 60 60 52 53 45 52 55 39 36 33 30 25 25 26 30 27 30 30 32 34 36 35 40 41 44
45 49 50 54 55 47 28 14 18 46 48 51 32 21 47 52 43 48 44 45 57 63 53 46 60 66 56 44 60 57 45 40 40 44 43 34 34 32 31 31 36 36 36 32 38 41 42 42 43
41 47 50 55 56 41 21 4 19 42 45 45 28 21 40 54 48 52 50 46 58 61 61 57 62 61 73 56 54 58 51 54 59 49 47 47 42 35 35 33 39 43 42 43 39 43 45 45 50
43 44 51 53 56 35 10 9 13 31 50 45 18 33 34 51 56 58 51 44 53 70 57 56 68 67 63 66 57 56 56 55 55 51 49 48 45 39 40 43 46 47 48 49 53 54 56 52 56
39 47 49 49 54 27 5 15 19 25 37 30 13 36 43 36 46 51 49 45 58 65 70 56 66 69 71 71 61 59 53 57 53 52 52 49 46 47 44 45 49 49 51 54 56 54 56 57 60
38 43 49 48 52 25 2 21 33 35 28 19 25 25 26 41 55 54 51 48 56 53 55 55 62 65 70 71 61 61 59 56 57 56 54 52 48 49 50 51 54 55 58 59 59 59 57 58 55
40 42 47 48 51 30 10 21 31 43 37 22 22 36 23 25 37 43 55 53 54 55 58 55 55 58 63 68 66 61 59 58 61 55 57 52 54 53 52 50 49 55 56 58 57 57 58 63 65
39 43 45 46 47 27 11 19 21 33 27 13 23 27 29 22 27 40 61 55 57 60 57 55 53 56 56 66 65 69 65 56 56 58 59 55 53 55 55 57 58 56 55 58 63 63 66 69 68
37 41 43 43 45 33 15 11 19 18 23 13 26 32 25 17 26 38 50 67 58 59 60 57 57 57 58 59 62 66 66 64 58 55 55 61 57 59 61 58 60 61 63 64 63 69 69 71 72
33 40 42 42 42 36 22 6 24 21 20 18 23 26 19 16 26 33 44 53 62 59 59 63 59 62 58 58 57 61 62 66 62 64 60 64 67 59 60 61 58 65 63 64 66 68 74 72 71
32 41 40 41 40 40 22 19 7 9 28 32 24 14 9 11 19 27 36 45 49 54 53 53 57 55 52 56 56 59 64 62 61 60 61 58 61 65 70 69 66 64 62 65 67 66 66 66 66
30 41 37 39 36 34 30 16 14 9 12 15 18 17 11 5 16 21 30 37 41 43 49 52 55 53 57 58 58 57 58 65 60 54 60 60 60 59 61 62 59 55 55 57 58 61 62 63 68
31 38 31 37 34 31 29 16 11 11 10 10 16 18 20 15 14 17 20 30 35 36 40 49 49 48 49 46 56 56 62 60 60 60 58 59 58 52 52 54 56 55 57 60 62 64 66 65 68
31 34 34 34 32 28 26 21 14 8 8 13 17 23 21 22 21 19 20 20 23 27 36 43 39 37 44 52 55 57 58 61 60 58 51 56 56 55 58 55 57 61 63 64 65 64 66 70 72
31 34 36 34 33 27 24 20 19 10 6 9 16 25 25 18 18 26 27 22 25 30 28 29 37 39 39 44 48 48 46 46 51 56 59 57 57 59 59 60 63 63 67 70 70 71 74 78 76
30 33 37 35 33 26 16 15 16 15 3 9 11 22 32 30 26 27 32 30 32 36 33 35 37 38 38 41 45 46 48 52 51 52 56 59 60 63 66 69 72 72 72 73 71 70 71 70 73
30 33 35 34 31 27 20 14 19 21 20 8 9 16 21 27 39 36 38 37 36 40 39 39 41 45 47 50 50 51 55 56 54 57 60 62 65 68 72 72 69 69 70 67 66 68 70 72 73
33 36 31 37 30 28 21 14 15 16 18 19 16 9 8 20 24 29 48 45 45 46 41 40 44 46 49 53 55 54 54 59 59 63 66 66 67 66 63 65 65 64 66 65 70 71 72 72 74
35 36 32 36 33 28 25 18 15 15 20 20 21 16 12 15 19 24 29 33 46 50 52 53 51 54 55 53 54 57 57 54 54 52 53 54 55 56 57 61 65 68 70 73 73 72 72 73 76
43 36 35 35 35 32 24 22 19 16 16 21 19 21 23 24 23 22 18 29 32 33 40 45 42 39 40 43 39 42 39 38 41 43 46 51 48 56 63 69 72 72 71 70 70 73 74 74 75
47 38 35 32 34 33 25 24 23 21 20 20 20 18 22 22 23 25 19 16 28 30 35 36 37 31 37 36 37 45 43 38 18 40 41 49 52 55 63 69 69 69 71 74 77 76 76 75 77

GFSSGP_250_spd_078.txt.gz
Wind_Speed
68 70 69 74 74 70 69 69 65 70 69 65 64 57 55 51 50 54 47 40 39 40 42 49 41 15 15 19 12 18 24 34 40 44 54 58 67 73 78 83 84 86 83 82 80 80 77 79 75
71 70 71 68 67 66 63 60 59 63 62 60 56 52 48 42 44 48 37 37 32 34 49 55 41 20 38 19 21 23 28 39 39 40 50 50 52 59 68 73 77 80 85 81 81 80 78 77 79
70 67 63 61 61 57 55 58 57 58 54 54 51 43 41 36 43 38 35 34 32 43 45 45 43 48 39 21 14 16 23 24 27 36 46 47 51 52 60 72 75 76 75 78 78 79 78 78 79
65 58 59 55 53 51 52 54 54 54 52 44 43 36 29 31 34 32 33 33 41 41 28 36 40 34 26 6 4 16 20 27 28 32 40 49 57 56 56 60 65 70 72 73 74 73 74 77 78
57 53 43 45 47 51 53 52 56 51 43 34 31 21 30 24 26 28 34 45 41 38 30 30 28 16 10 12 19 20 27 23 26 29 28 30 46 53 55 56 59 62 65 65 67 67 67 67 71
46 40 39 45 46 47 53 53 51 44 31 22 18 23 30 30 28 33 49 47 44 38 23 20 20 22 22 32 30 38 32 36 35 37 38 37 30 33 38 42 47 52 55 57 56 57 59 58 61
36 34 42 48 47 44 50 53 41 33 17 21 27 33 35 44 42 44 51 58 50 38 26 29 25 36 29 30 43 35 42 40 43 41 42 42 29 31 34 38 42 46 47 50 53 51 52 49 50
28 34 43 44 45 43 48 48 37 19 27 32 34 35 50 51 50 58 60 56 46 48 49 44 44 29 36 42 44 38 43 37 34 34 31 24 23 26 30 31 37 43 43 47 49 48 46 40 40
28 37 44 46 47 48 47 45 31 15 36 39 40 42 64 56 63 64 59 52 47 51 55 47 44 55 36 38 39 60 63 44 30 27 33 35 26 23 23 25 26 28 34 38 39 36 39 35 33
34 37 39 41 48 53 48 41 27 17 43 43 41 47 68 61 60 61 62 55 51 54 51 53 55 51 45 55 42 49 42 40 40 35 27 26 29 26 25 23 25 30 31 35 37 36 36 33 34
33 36 37 43 50 52 49 35 22 23 46 45 42 52 70 55 59 56 63 61 54 57 56 52 52 56 52 41 53 52 54 48 38 32 31 28 29 29 32 29 29 33 38 31 29 30 32 31 36
36 33 32 44 47 54 48 34 23 25 45 47 42 54 64 55 39 61 49 54 58 57 57 47 47 63 53 58 67 65 56 52 49 44 33 35 36 42 45 42 39 41 39 35 34 37 38 39 41
34 31 32 43 46 54 47 24 30 29 47 43 47 45 49 57 51 53 56 47 58 57 61 52 55 59 64 55 63 60 48 56 51 54 51 49 50 53 51 51 47 43 42 41 41 41 43 45 48
33 29 30 40 45 50 43 23 23 36 49 35 38 53 53 49 50 44 57 43 52 52 60 61 59 64 70 65 63 59 49 51 53 48 48 49 54 57 56 60 52 46 48 49 47 47 51 52 55
30 30 29 40 42 48 42 33 16 47 51 27 34 52 44 34 48 53 53 53 40 50 62 70 66 60 73 72 71 65 55 57 58 61 57 49 50 55 56 55 49 52 50 54 54 54 55 57 58
27 31 27 37 40 47 46 30 24 42 51 37 27 40 58 43 41 51 56 58 51 50 66 68 71 67 69 72 64 71 71 62 67 62 61 56 52 51 49 48 50 51 54 56 57 59 62 59 59
31 32 28 34 39 45 46 24 26 37 45 44 37 35 46 55 59 52 60 61 62 49 52 66 72 73 71 74 71 70 69 67 68 70 64 63 61 59 56 55 55 55 55 54 59 62 60 64 64
36 29 27 38 34 39 40 24 28 29 48 37 32 29 26 33 27 41 62 63 73 61 52 61 71 77 74 70 74 70 71 69 65 66 71 66 57 63 65 67 66 64 67 71 73 70 69 68 69
42 28 25 30 31 34 40 32 15 28 38 34 33 26 34 30 37 34 33 58 73 76 59 61 62 68 75 77 72 69 69 69 69 62 61 66 66 69 65 65 66 69 65 63 65 69 71 74 72
41 30 25 26 32 30 36 30 23 15 30 37 38 40 37 33 27 24 21 32 51 65 61 60 62 63 61 63 70 71 69 67 70 67 67 62 67 70 63 68 63 68 70 66 74 71 74 75 70
42 34 25 24 31 29 37 32 30 20 14 28 33 35 30 24 17 17 16 22 35 51 57 55 59 64 65 63 62 63 63 61 59 62 69 68 69 70 72 71 70 68 69 72 70 70 69 67 66
34 34 27 24 29 27 33 31 31 23 14 11 21 26 24 21 15 11 11 14 19 29 45 58 64 65 61 61 58 62 61 67 67 64 62 66 67 72 71 71 73 74 74 73 68 66 65 66 68
33 33 31 24 27 28 29 27 28 28 18 18 16 23 23 24 15 11 12 11 16 17 27 33 39 53 62 60 62 62 66 68 65 67 68 67 65 65 70 72 73 68 70 66 67 67 66 69 73
42 37 40 27 27 30 27 25 25 23 17 18 13 13 25 24 19 19 18 17 20 19 16 18 24 31 38 40 44 45 49 50 53 54 55 58 66 66 60 59 63 68 69 71 73 74 75 76 77
48 43 39 35 28 25 28 22 16 19 20 18 17 10 18 26 26 22 22 24 25 23 25 26 27 28 27 29 33 35 39 41 44 45 48 50 53 58 63 66 70 74 76 78 81 82 82 80 79
53 51 41 39 28 25 27 18 17 13 13 11 11 16 12 15 32 27 28 27 29 33 29 32 34 34 32 37 41 42 43 43 46 51 50 52 56 61 65 72 78 78 79 77 75 70 70 70 68
56 52 49 39 30 26 25 20 22 15 7 13 13 11 10 14 15 22 31 39 40 37 36 36 36 39 39 41 43 44 46 46 51 54 55 59 62 64 61 59 63 67 67 67 68 67 66 69 72
62 59 54 40 38 28 26 22 24 19 15 8 6 11 8 4 6 13 19 22 33 39 42 46 43 46 48 48 47 47 49 53 54 55 49 44 40 36 48 51 50 57 66 70 69 69 71 73 72
64 58 45 40 40 34 28 25 25 19 16 13 10 10 11 9 14 9 17 21 15 27 31 31 40 50 52 53 57 57 57 55 43 39 35 37 31 29 35 41 40 52 66 76 78 73 77 77 81
68 61 49 44 43 40 31 28 27 25 21 17 14 15 14 15 13 13 13 17 19 13 24 32 29 30 38 35 38 42 40 34 36 41 37 26 35 39 45 51 61 74 81 80 78 75 79 84 87

GFSSGP_250_spd_081.txt.gz
Wind_Speed
66 69 71 69 71 74 74 69 68 71 69 67 65 66 67 62 63 64 62 60 56 54 53 54 54 45 45 48 35 31 24 20 17 18 23 27 33 41 47 59 69 71 73 75 77 87 87 85 83
65 67 69 70 72 71 68 64 62 67 65 65 63 61 56 59 58 56 58 53 48 46 49 49 47 46 45 38 39 25 18 14 14 22 22 22 24 32 38 43 50 62 73 75 77 78 83 84 83
67 70 69 70 64 61 57 57 55 57 64 62 58 52 54 53 49 52 47 44 41 40 45 43 40 44 34 38 28 19 11 12 14 11 14 20 26 33 38 41 44 44 49 63 68 70 74 77 80
61 63 62 55 53 52 52 51 53 57 60 56 55 53 50 41 41 41 35 31 30 31 29 31 31 33 40 30 28 22 15 7 13 12 11 14 16 17 23 33 44 46 50 50 56 62 67 70 71
56 50 47 46 46 44 48 50 52 53 57 55 53 49 39 31 30 32 25 16 18 26 31 32 38 39 36 18 18 16 5 4 10 11 19 23 26 26 31 35 37 46 51 54 56 58 61 63 65
43 43 40 39 39 43 47 53 49 52 56 50 46 39 28 17 26 21 17 27 33 30 34 43 35 37 24 19 20 16 13 17 18 19 26 29 24 27 35 40 38 32 37 46 52 54 56 56 55
43 37 38 36 40 45 47 49 49 49 48 43 38 26 14 18 16 25 32 40 39 39 37 42 35 31 29 29 28 31 27 18 23 20 25 28 30 36 37 38 36 30 28 33 39 42 43 45 45
34 34 33 39 40 45 44 45 51 48 41 37 25 16 19 25 28 41 43 47 42 40 38 38 36 42 42 31 34 38 41 27 21 21 27 30 31 43 45 32 26 27 26 28 37 39 41 41 38
35 34 35 37 40 41 44 46 53 46 38 28 22 27 35 34 46 51 48 46 48 49 47 42 43 39 38 40 40 44 47 34 32 28 25 25 32 24 29 26 28 31 30 26 27 30 34 35 35
35 30 35 37 37 41 43 49 52 44 30 22 26 32 42 41 52 51 50 52 55 57 48 45 45 34 37 37 40 46 50 44 36 29 26 31 31 30 29 26 27 25 24 25 24 26 27 27 28
35 37 38 36 37 39 42 51 48 42 24 28 28 36 44 47 51 52 54 54 53 53 43 43 38 35 32 35 34 46 48 48 44 39 40 33 36 24 17 16 19 25 34 32 34 32 30 31 33
37 41 39 36 37 38 41 55 46 35 21 31 32 36 51 51 49 56 55 50 47 54 46 41 43 38 34 34 36 44 53 56 48 41 41 40 39 32 36 30 29 30 36 42 37 40 38 39 41
37 45 38 34 36 36 40 50 47 31 20 36 36 39 53 49 49 55 56 51 50 56 48 47 46 46 42 39 34 46 49 52 49 47 42 49 44 45 36 38 42 42 43 47 48 49 50 47 49
40 45 40 39 36 35 40 46 47 28 21 37 39 40 51 49 49 48 54 55 54 54 51 44 48 50 47 41 41 45 52 45 40 54 55 49 51 43 43 48 46 41 48 46 47 53 53 49 49
42 43 42 40 34 32 37 44 45 27 19 37 40 43 52 61 47 51 52 60 57 53 53 48 50 50 49 44 41 47 46 42 40 42 45 47 41 41 45 50 48 48 47 50 50 46 50 51 54
42 46 44 44 33 33 38 42 42 28 16 37 46 46 51 61 64 54 46 57 54 53 56 52 56 53 49 54 52 54 50 50 50 44 45 46 51 55 56 59 60 57 55 53 56 51 49 52 56
45 46 41 44 35 31 36 40 43 26 19 33 49 53 53 58 62 56 55 52 58 59 56 58 59 60 57 54 54 59 58 55 56 54 49 53 51 50 50 51 49 51 55 56 58 63 63 63 63
42 43 42 46 34 30 35 36 41 34 21 32 45 40 47 55 56 62 61 55 56 63 57 60 61 61 57 57 63 61 65 58 62 62 62 57 57 58 64 63 65 66 61 63 66 70 66 63 62
40 36 40 47 34 30 32 33 39 38 26 29 47 47 47 52 54 67 58 57 62 60 65 60 63 64 61 59 58 70 64 67 61 61 61 64 69 71 73 77 70 73 74 70 64 64 65 67 72
40 32 37 42 32 28 31 34 37 36 32 22 32 47 40 34 33 55 66 58 72 73 61 68 56 61 65 65 63 66 74 74 72 70 72 70 67 68 71 72 70 67 67 68 66 66 69 68 70
44 36 30 38 32 28 26 31 38 38 34 29 21 34 47 50 44 37 49 60 60 67 84 77 73 65 63 69 70 72 75 77 76 73 70 67 71 74 71 63 68 67 65 63 67 68 70 67 72
47 41 31 27 28 27 25 31 38 35 35 31 23 20 22 24 29 27 28 34 37 43 59 88 80 73 74 65 65 74 80 76 76 73 78 79 73 71 73 73 66 67 70 75 73 70 72 69 67
49 45 37 31 30 34 26 33 34 32 33 35 24 15 16 17 21 18 18 15 19 26 34 50 62 70 68 65 66 65 70 72 73 73 74 76 76 77 81 78 72 76 76 74 68 68 67 66 68
53 47 40 34 34 36 32 30 32 27 29 33 25 10 13 15 18 18 19 16 15 20 26 33 40 49 53 62 63 64 65 68 72 73 73 72 76 75 68 64 70 72 66 68 70 73 73 72 75
53 53 46 37 37 38 32 23 29 24 23 29 25 18 12 14 17 21 19 21 21 21 21 25 31 41 53 54 53 52 57 58 62 57 57 55 55 55 58 58 59 63 66 68 70 75 76 77 72
56 57 53 42 45 42 32 26 26 24 21 23 24 21 18 12 12 21 25 23 25 24 26 26 29 32 36 38 39 39 41 44 45 45 45 48 48 49 52 56 60 62 64 56 58 63 68 68 64
59 56 55 49 42 39 39 30 25 26 23 22 20 17 19 18 16 14 17 24 33 33 32 32 30 32 34 36 37 36 37 40 43 47 48 49 50 53 55 56 52 51 51 57 58 57 62 69 60
62 61 58 53 43 39 49 39 32 25 26 19 17 15 15 16 17 17 14 7 12 24 30 36 38 34 36 37 38 39 42 42 43 48 50 50 51 54 54 44 45 38 52 46 39 48 55 83 75
67 64 58 56 46 44 45 43 36 29 28 21 17 17 16 12 13 17 17 18 14 14 15 28 34 37 39 46 49 49 47 47 48 49 46 46 46 47 46 49 43 35 38 54 41 58 82 76 80
62 63 63 60 56 48 50 41 36 32 28 29 19 17 16 16 17 16 16 19 21 18 14 10 21 29 29 30 32 32 37 39 37 33 37 40 41 45 44 39 48 46 54 62 57 72 76 78 84

GFSSGP_250_spd_084.txt.gz
Wind_Speed
66 65 64 66 64 63 65 66 69 67 67 65 65 66 68 74 70 65 64 63 61 61 58 55 56 56 57 54 56 57 60 58 48 51 40 33 36 39 43 43 41 50 56 63 69 80 84 81 80
63 63 67 62 59 59 61 63 63 59 59 63 65 65 66 65 64 61 61 61 60 55 53 49 50 49 52 52 54 57 56 46 39 32 28 20 19 21 30 35 40 47 50 58 61 64 72 77 70
61 60 57 55 55 55 54 53 52 52 57 63 65 63 60 61 57 57 53 53 48 44 42 39 36 42 44 43 51 53 54 37 36 30 22 18 22 15 20 25 32 36 39 40 45 55 59 66 68
54 51 49 46 45 45 47 47 47 53 57 62 66 57 56 54 49 45 40 41 34 24 24 18 25 33 33 34 36 37 38 35 32 27 21 17 12 15 9 6 6 14 19 25 37 50 49 47 46
43 46 44 43 41 41 42 43 49 54 56 60 63 58 53 50 43 37 30 19 16 20 29 31 16 19 20 23 29 37 39 32 30 27 20 16 18 11 8 15 23 21 25 29 31 33 44 45 44
42 39 40 38 41 40 41 46 51 53 58 61 60 51 48 41 29 23 13 16 15 22 27 34 29 20 26 33 31 32 31 24 17 18 24 17 11 12 16 17 17 28 37 28 25 25 26 32 38
37 34 35 38 42 42 43 48 50 55 55 57 54 46 37 23 16 11 11 18 19 21 30 37 35 42 38 37 35 32 26 21 18 15 16 14 12 12 17 15 17 36 33 25 28 25 22 22 24
34 35 35 38 43 42 45 45 51 53 55 52 45 34 21 13 15 12 21 22 23 29 39 40 41 48 46 30 33 33 31 26 19 16 14 12 14 14 13 15 29 38 35 33 30 25 21 22 23
33 34 34 36 39 43 44 45 49 55 53 48 40 21 13 22 13 21 28 30 33 35 37 39 39 45 34 38 40 38 34 30 27 24 20 15 15 12 11 17 27 36 35 27 26 17 16 21 20
35 41 41 35 41 40 41 42 47 52 51 45 30 11 20 23 24 34 30 32 33 37 44 47 44 43 33 35 36 38 32 33 31 25 16 19 10 12 16 21 15 16 35 17 27 31 29 25 25
41 36 34 38 42 39 41 41 44 53 53 39 22 20 25 31 35 37 36 34 36 41 47 48 49 47 35 34 32 32 31 30 32 29 20 25 16 17 21 9 14 25 28 27 34 33 25 28 31
46 42 37 39 40 45 43 37 43 52 52 33 14 24 27 36 41 37 38 35 40 45 46 43 43 40 34 38 34 40 33 37 39 36 33 34 31 18 27 27 34 34 32 38 40 35 38 38 39
47 39 38 41 41 43 49 36 42 49 50 27 14 21 28 38 38 37 38 35 41 47 42 40 42 40 31 29 29 30 33 42 43 36 48 35 26 31 32 32 33 32 34 29 32 35 35 34 39
43 39 40 40 41 40 48 35 40 48 45 26 13 23 33 31 38 41 36 44 47 46 42 40 39 35 28 24 34 32 27 38 45 38 36 32 34 37 39 36 34 30 30 36 33 40 45 49 54
41 37 41 39 39 39 45 37 36 44 42 33 17 26 24 30 36 40 37 42 47 47 46 39 35 36 30 28 26 20 30 39 41 46 49 41 41 38 38 44 44 38 38 45 48 46 48 52 53
40 41 40 38 37 39 43 37 33 40 42 38 22 18 30 31 36 44 39 36 51 48 49 52 42 38 35 30 28 30 32 38 43 42 45 46 46 42 43 47 38 42 46 44 49 47 50 51 49
39 41 40 36 36 38 41 37 30 36 37 36 29 20 32 37 40 41 44 36 46 45 49 54 50 46 40 36 32 36 39 42 38 39 40 40 50 50 47 47 44 48 48 48 49 59 59 65 59
41 40 40 35 34 37 44 41 29 32 39 35 30 23 31 43 41 45 50 47 39 50 47 51 49 52 48 42 44 38 42 44 50 50 49 47 49 51 48 53 56 56 57 60 62 62 64 60 53
43 40 37 36 34 38 39 39 28 29 38 37 38 27 26 38 52 45 51 53 50 43 47 43 53 54 52 53 43 45 42 46 50 54 52 54 57 58 59 61 61 61 61 61 55 53 51 61 65
44 42 37 34 33 34 33 35 32 29 33 40 38 37 22 29 41 45 50 47 54 59 55 50 48 51 51 58 56 54 54 50 54 58 64 62 64 65 64 65 66 63 62 62 60 66 66 60 59
45 43 40 34 37 31 28 34 34 35 28 39 38 39 23 20 26 43 42 40 44 48 61 63 57 47 55 55 57 62 58 64 61 59 59 68 73 72 73 72 67 70 70 70 68 65 63 61 59
46 44 38 32 37 33 29 31 39 40 27 33 36 39 26 21 17 19 24 46 42 37 41 67 67 68 57 57 61 60 60 65 64 70 70 68 66 72 74 72 74 69 62 58 60 65 68 63 62
49 43 38 33 36 37 31 29 39 36 31 28 33 33 27 20 15 14 13 17 26 39 43 46 65 65 67 70 70 66 67 65 64 63 64 62 65 63 63 66 68 60 66 64 69 72 65 71 70
50 47 43 37 35 37 38 34 35 34 29 26 31 29 29 16 15 13 15 15 16 18 20 25 35 53 64 69 65 68 71 78 69 70 65 66 67 67 68 67 63 68 69 70 68 74 74 73 75
51 52 45 41 37 42 41 33 29 28 29 24 27 28 29 20 14 15 12 16 18 21 20 21 21 26 31 39 53 57 60 67 69 67 66 68 68 68 65 65 66 63 61 65 71 66 69 75 74
55 53 44 43 40 42 44 42 35 35 32 27 24 28 26 23 19 14 13 13 17 22 25 26 26 24 25 28 32 39 40 47 55 60 55 57 60 58 56 49 52 56 60 60 66 67 66 70 72
53 49 51 46 39 39 41 44 45 37 30 29 26 25 21 20 16 17 17 16 19 20 23 28 31 27 29 31 33 34 33 35 37 41 47 48 49 49 52 54 56 58 61 61 60 61 59 59 59
58 55 54 47 39 40 43 44 41 37 29 35 29 23 22 19 15 12 13 15 18 18 17 20 26 34 33 32 33 35 37 38 39 41 43 45 46 48 50 54 56 57 54 53 52 55 47 41 45
60 55 50 49 43 45 47 43 41 30 31 29 28 23 22 20 17 14 15 16 19 21 20 13 12 26 34 37 38 38 38 39 41 43 42 46 48 52 53 54 53 53 53 54 52 48 44 42 52
63 59 58 51 42 43 46 40 40 33 27 26 26 29 25 22 17 15 16 15 21 21 18 18 11 7 23 33 36 36 38 43 46 48 47 47 46 44 42 43 44 39 51 57 59 58 59 59 62

GFSSGP_250_spd_087.txt.gz
Wind_Speed
61 61 64 64 62 60 60 57 59 58 59 60 59 61 62 63 67 69 68 65 60 58 55 48 46 51 48 53 58 56 55 56 56 62 65 61 61 60 51 49 51 50 57 61 64 73 79 79 79
58 58 59 56 54 53 52 50 54 53 53 55 56 56 59 62 64 64 62 61 57 51 44 39 33 42 42 44 49 53 53 52 53 52 56 58 47 40 36 34 37 40 40 39 47 56 63 72 75
54 54 51 48 46 44 45 49 49 47 48 49 51 56 61 61 62 58 57 54 51 47 39 31 23 21 30 35 41 48 48 50 50 47 46 44 33 28 26 25 27 31 37 42 43 49 53 53 56
49 46 43 41 40 37 39 42 44 45 45 48 54 59 59 58 61 52 51 46 42 36 30 18 13 4 10 15 25 36 41 47 46 43 42 32 33 26 26 27 27 13 8 7 16 17 23 28 35
40 39 36 32 34 29 35 40 42 44 47 51 55 60 59 55 58 51 44 38 29 24 21 33 34 41 16 33 24 24 32 40 46 40 37 30 30 32 29 22 16 10 10 12 10 18 15 16 19
34 28 30 29 31 29 37 41 43 46 49 51 56 57 57 56 50 42 30 19 14 10 25 34 36 35 32 20 23 18 22 25 35 36 38 34 31 32 28 24 18 13 15 15 17 16 17 11 10
24 27 28 30 31 36 40 46 47 45 45 51 54 57 54 48 34 22 10 12 10 10 17 37 43 36 30 21 16 15 18 26 32 35 35 32 28 26 23 20 17 17 16 18 24 24 19 7 5
26 29 28 33 36 38 41 43 44 43 47 51 53 51 44 29 21 8 9 9 12 13 27 37 43 49 51 35 26 22 20 28 32 36 38 33 29 21 21 19 15 12 12 13 24 18 11 10 10
31 29 29 34 36 41 39 42 49 44 44 50 48 46 30 17 7 8 11 16 13 18 34 41 41 52 45 40 39 35 27 32 35 30 24 20 17 17 21 20 18 16 12 7 14 17 15 24 21
32 31 38 40 42 40 40 41 48 44 48 52 49 37 16 12 8 13 17 19 16 25 44 41 42 55 45 39 48 42 41 39 35 25 21 20 20 21 21 21 17 9 10 14 18 16 30 28 24
36 34 39 36 37 39 39 40 46 45 48 48 45 29 12 16 11 16 14 24 22 26 44 44 46 51 40 45 48 48 49 42 35 28 26 23 24 25 14 21 13 16 16 26 28 27 29 31 29
38 34 34 38 36 40 36 39 44 46 45 45 43 29 18 20 12 15 16 22 28 31 43 46 45 46 42 36 47 46 42 40 37 29 30 26 25 20 14 20 18 19 25 29 31 31 36 32 31
39 38 36 38 35 37 38 38 42 46 42 44 40 31 23 25 23 15 20 18 23 30 41 44 33 41 38 33 32 32 40 39 32 29 34 33 32 21 22 20 24 27 27 34 27 34 31 36 39
36 38 33 32 34 39 39 38 41 46 37 40 35 31 14 25 23 23 17 20 17 26 42 40 37 42 37 38 32 36 36 41 34 34 35 39 35 30 31 31 29 29 31 24 35 39 32 34 38
39 38 33 31 35 35 36 36 40 44 34 39 38 31 19 30 34 29 27 14 28 20 38 43 34 39 39 39 32 29 33 33 36 35 40 40 38 25 32 36 35 37 34 34 36 29 34 38 48
42 41 36 34 33 35 33 34 38 40 32 36 30 31 26 21 22 30 32 26 18 29 33 41 34 39 38 37 37 25 29 32 37 35 40 36 42 43 41 41 41 40 32 27 33 38 46 50 52
44 43 41 33 34 35 31 33 34 35 36 34 30 34 31 17 30 34 28 31 33 18 35 42 38 36 38 34 32 28 22 28 34 37 41 41 46 50 43 42 43 45 45 51 50 51 52 54 55
42 41 43 35 35 35 29 32 29 30 34 37 30 35 34 30 19 32 37 34 35 28 27 33 48 43 40 37 34 34 26 27 34 40 43 41 42 46 49 48 53 52 50 53 57 50 54 52 52
41 44 45 41 33 34 29 29 28 30 36 41 31 32 36 34 22 21 34 34 36 35 33 40 45 39 44 47 43 36 37 30 30 38 46 50 46 41 42 50 50 53 57 61 61 59 58 57 56
41 42 47 39 31 34 31 31 27 28 34 39 30 32 35 36 24 20 22 32 41 41 38 39 39 31 31 34 50 46 45 41 33 35 39 48 53 55 56 55 60 60 57 60 58 58 65 63 69
47 44 44 39 30 32 34 29 30 25 30 38 31 29 34 35 31 23 16 23 32 35 43 42 43 48 40 35 28 37 45 50 48 44 42 45 46 48 52 54 58 61 68 71 68 65 71 69 66
48 48 49 41 33 33 30 28 30 27 29 36 30 25 32 34 35 24 12 11 22 33 39 34 32 47 45 47 44 38 38 48 56 52 53 54 52 55 58 60 63 64 68 68 63 60 61 65 59
54 53 49 43 34 32 32 30 29 26 25 31 32 22 27 33 37 21 10 5 7 12 22 33 36 31 44 43 50 52 47 46 53 56 53 56 58 59 63 66 68 60 62 60 60 62 61 60 59
54 55 51 45 37 32 32 28 28 28 25 28 33 22 23 28 31 20 8 5 8 9 10 13 23 31 40 43 42 47 49 48 51 55 59 63 63 62 64 63 61 58 63 62 61 59 57 54 57
52 53 51 48 39 38 31 26 30 32 34 30 31 26 22 24 24 24 16 8 5 9 12 14 14 17 22 25 33 43 50 54 54 54 57 59 57 55 53 55 57 56 56 58 52 54 52 56 60
54 54 50 48 42 37 29 27 35 36 35 34 30 29 24 22 21 22 18 18 15 13 12 14 20 22 21 20 19 24 28 32 36 37 43 45 49 49 50 46 48 46 48 48 50 53 55 53 59
52 50 54 48 41 36 30 30 35 39 36 35 27 26 28 20 20 21 16 16 15 17 18 17 18 21 26 25 22 19 23 26 29 30 31 33 35 38 40 42 48 49 49 51 54 54 52 56 52
61 56 53 49 42 37 32 31 39 41 40 38 26 25 19 22 17 20 16 17 16 14 17 22 20 17 26 29 26 26 28 29 32 33 33 35 37 39 42 46 48 47 47 49 52 51 52 50 48
64 60 55 52 46 42 39 31 45 44 43 39 32 23 19 22 20 17 17 14 15 16 17 21 24 18 14 23 27 30 31 31 32 34 35 39 41 41 43 44 46 47 45 44 48 52 45 53 55
67 64 63 59 56 52 40 36 44 43 40 47 35 21 17 22 23 22 19 17 17 17 16 16 17 18 14 6 17 25 28 30 33 35 35 38 41 42 43 41 41 41 45 42 33 37 45 55 58

GFSSGP_250_spd_090.txt.gz
Wind_Speed
67 64 58 55 54 55 57 57 57 56 52 52 52 54 55 56 55 60 61 61 59 58 57 53 52 47 40 43 47 48 51 52 52 56 60 65 66 66 62 57 62 68 63 59 59 58 62 62 65
59 55 52 48 49 50 47 45 48 46 46 48 46 48 51 53 55 56 60 58 58 58 53 47 40 32 32 37 27 35 40 45 50 49 52 57 59 60 59 46 53 54 50 50 50 51 51 55 59
50 45 44 45 43 41 42 40 39 38 39 42 44 47 51 54 54 53 53 53 53 54 45 35 26 19 21 10 7 22 26 36 46 50 46 51 52 52 54 53 48 40 39 38 38 39 39 48 55
44 44 42 40 34 30 32 34 34 35 36 39 44 48 51 55 52 53 50 49 47 45 33 24 13 17 15 10 15 13 38 35 37 46 48 49 48 49 39 34 35 34 31 30 41 41 31 22 25
42 39 35 29 26 28 29 30 32 40 41 43 46 49 54 53 49 47 46 44 40 32 25 26 30 30 23 18 17 26 34 35 31 39 45 46 42 39 32 32 28 26 31 30 17 17 14 16 24
37 36 26 27 26 29 29 32 36 40 43 42 46 48 48 50 48 43 40 34 27 23 24 38 41 44 49 28 16 31 38 30 29 34 40 40 42 36 32 27 28 30 27 20 15 7 10 15 16
35 32 27 29 29 30 30 37 36 39 40 44 47 49 51 49 42 35 25 23 17 18 41 41 45 45 35 32 25 31 32 29 27 31 40 36 38 33 32 29 27 27 25 20 17 11 7 6 8
33 34 29 29 33 32 37 39 36 39 39 45 45 48 49 43 32 23 16 13 12 23 45 37 40 46 41 38 49 54 28 18 17 25 36 34 33 34 28 32 31 28 28 22 13 8 5 13 4
32 31 29 28 34 33 33 35 38 38 38 46 45 47 48 36 23 6 8 8 10 17 28 38 39 46 47 51 44 41 28 20 16 20 29 32 30 29 32 33 33 28 23 19 14 13 10 11 12
33 31 31 29 33 33 33 33 36 37 36 46 45 45 43 25 12 4 6 10 6 14 26 33 45 49 47 47 39 40 36 29 17 24 28 34 35 36 34 31 23 27 27 18 19 14 18 18 19
37 33 31 31 31 32 34 33 34 37 37 44 45 40 40 15 3 9 4 13 11 16 27 33 45 55 51 45 45 47 52 30 21 24 34 32 32 30 26 26 29 32 23 20 15 18 20 20 21
39 37 34 33 34 33 32 33 34 38 35 43 44 43 38 11 9 5 10 12 17 16 23 31 34 45 45 44 44 44 37 29 30 28 34 33 25 21 20 21 23 33 17 24 23 23 22 18 16
42 40 37 33 35 34 32 32 35 33 32 39 38 41 34 13 18 9 16 6 13 25 22 29 35 44 47 46 41 45 42 34 37 37 34 28 24 26 25 18 23 29 24 24 23 26 21 22 21
43 42 39 37 36 34 31 30 35 32 31 33 35 35 30 11 21 16 12 13 9 19 24 34 32 42 50 40 43 50 39 41 45 39 32 29 29 30 29 24 18 26 25 32 29 25 24 18 24
44 44 43 38 40 40 35 31 32 31 29 26 34 32 26 22 19 27 22 17 18 15 15 29 35 45 42 38 42 40 42 41 39 38 34 34 34 34 33 32 30 25 34 29 31 30 37 36 38
47 43 44 38 42 40 37 30 32 31 26 26 32 37 30 21 15 24 27 24 15 26 16 29 31 34 31 38 37 46 45 46 42 42 38 35 31 35 34 36 29 25 28 32 41 41 37 35 47
50 49 44 41 41 41 41 34 30 32 25 27 30 35 33 23 17 16 31 36 29 16 30 20 29 31 37 39 45 37 33 38 41 39 39 36 39 42 42 40 32 31 38 39 46 41 45 55 48
53 46 43 47 38 37 41 36 31 32 28 27 29 33 39 25 23 8 24 37 40 30 21 25 31 34 35 41 39 38 33 32 39 40 38 40 41 42 43 39 43 41 44 48 46 50 49 56 58
50 46 47 52 37 38 39 40 32 31 27 27 29 37 35 25 24 11 8 29 41 43 28 30 32 36 40 41 42 41 43 44 36 35 37 43 46 44 45 46 42 51 57 51 52 59 53 57 63
50 46 48 52 38 33 41 38 31 30 28 25 30 35 31 26 22 17 11 13 32 47 45 35 35 31 39 48 44 42 39 38 36 34 34 43 49 49 50 52 52 47 52 52 52 55 62 66 67
55 49 49 49 37 31 37 38 32 28 27 25 29 31 31 31 27 29 17 12 17 39 46 50 40 38 37 40 47 49 47 45 40 40 38 38 46 54 53 53 56 58 59 60 63 66 67 63 57
51 54 48 46 41 37 36 40 34 27 29 26 24 29 28 32 27 26 29 14 12 20 39 47 49 42 35 36 37 34 33 35 35 42 44 47 48 48 50 50 50 54 58 61 61 63 62 60 63
50 53 48 44 42 38 39 39 36 30 29 26 24 30 29 27 29 25 27 16 10 12 19 38 37 40 38 33 41 43 38 37 35 38 41 44 46 48 49 52 54 56 58 61 62 60 62 62 58
55 51 50 48 43 37 44 40 40 31 28 28 26 31 29 28 27 20 22 19 9 7 10 14 29 46 43 36 35 43 45 45 46 47 49 52 52 55 56 56 59 62 62 62 62 61 57 53 51
59 54 56 54 46 46 48 42 43 32 26 30 29 30 29 26 24 18 18 15 13 5 5 9 14 20 31 38 40 39 43 47 49 52 55 54 56 57 59 59 62 64 67 65 58 52 50 49 53
61 58 58 56 46 49 48 35 42 35 30 33 32 29 30 22 22 18 13 17 15 14 10 7 4 14 21 25 30 35 40 42 47 50 49 53 56 58 61 62 57 55 51 48 49 49 53 54 54
59 56 59 57 46 48 43 36 43 38 30 34 36 32 31 23 15 18 16 12 14 10 10 10 12 14 15 23 24 22 22 25 29 33 37 37 37 37 36 38 42 44 47 49 50 50 52 52 53
59 57 55 52 44 46 47 42 40 40 33 35 37 35 32 28 14 18 22 13 13 11 10 13 15 15 17 17 24 24 22 21 24 25 24 25 29 32 35 37 40 44 47 49 50 52 55 55 53
59 57 55 52 46 48 45 43 42 47 38 35 35 36 36 28 20 17 24 18 14 12 10 13 16 16 17 13 16 26 25 24 25 25 27 28 33 36 40 43 46 48 49 49 50 51 50 46 41
63 57 58 53 51 52 49 47 44 47 41 41 38 38 39 32 24 21 22 23 19 17 15 14 15 13 15 14 7 11 24 28 30 32 34 36 39 41 41 42 43 41 40 40 38 33 34 37 33

GFSSGP_250_spd_096.txt.gz
Wind_Speed
64 66 65 64 62 58 63 57 53 48 44 48 50 51 54 55 57 56 58 63 59 59 56 59 58 56 56 54 53 50 50 48 47 46 48 48 51 56 60 68 71 73 76 77 76 76 75 73 73
58 58 60 58 54 55 53 45 43 42 45 43 45 46 49 53 55 56 56 63 62 60 59 62 58 55 51 49 47 44 40 40 41 34 28 23 24 32 42 51 59 63 63 68 68 66 63 61 63
55 54 53 50 46 47 46 37 41 38 38 41 42 44 47 52 55 55 59 57 64 63 60 59 57 48 48 44 37 34 32 25 24 26 17 6 11 22 28 37 47 51 53 53 54 54 45 41 38
47 42 45 43 41 39 40 39 38 37 39 38 43 44 47 45 54 54 56 58 58 56 53 53 49 46 41 33 28 21 16 15 16 21 17 17 20 24 31 34 40 43 42 45 35 39 36 33 37
43 42 42 37 38 36 37 37 37 39 40 40 40 43 46 50 51 54 53 54 52 49 49 48 43 39 32 24 35 33 28 27 22 26 26 30 30 35 34 37 35 40 30 29 26 28 28 30 30
42 42 39 37 37 35 37 36 37 38 37 38 40 38 39 42 47 47 47 43 44 41 38 35 35 32 25 39 50 47 41 32 28 24 23 37 38 40 42 37 33 37 39 29 27 34 28 33 31
41 42 43 39 37 34 36 37 37 36 36 35 38 34 39 41 46 45 42 40 34 32 26 23 27 24 42 59 53 54 46 33 40 30 38 32 28 32 39 41 32 33 35 32 32 40 36 28 28
41 39 42 40 38 36 36 37 35 37 36 35 34 36 40 40 43 38 38 31 27 22 19 19 30 44 58 61 54 51 44 36 35 45 49 29 33 39 39 38 28 29 32 31 41 42 34 25 14
41 43 44 43 42 36 36 36 35 36 34 37 37 33 39 40 40 36 31 23 18 17 17 30 40 54 53 47 50 48 47 41 45 53 47 24 34 35 30 33 22 27 32 40 32 30 27 21 19
44 37 46 45 43 37 37 36 37 35 36 36 35 33 35 38 37 32 23 16 13 8 10 38 46 47 50 47 42 42 48 49 41 61 46 37 36 40 33 33 24 26 30 28 25 25 26 22 21
45 43 46 46 45 42 40 41 37 37 39 35 34 33 35 34 35 31 15 12 13 8 13 31 44 48 47 44 39 37 38 48 61 61 40 29 34 39 29 28 23 32 30 28 28 24 23 26 27
47 51 47 46 43 47 44 42 40 38 38 36 34 33 34 38 33 29 21 15 13 11 15 30 44 50 46 40 40 36 30 49 55 62 58 46 27 27 24 22 33 33 31 26 28 31 26 30 27
48 55 47 46 43 46 44 45 38 40 37 36 36 36 33 35 32 28 23 13 15 21 15 20 42 43 47 39 39 37 39 40 46 31 48 35 24 22 28 27 31 35 28 28 31 32 29 32 28
57 49 49 46 47 43 43 45 40 41 38 38 35 35 32 35 33 31 24 21 18 21 17 22 41 44 40 37 37 38 48 49 44 37 48 31 25 19 23 25 32 31 26 33 30 31 29 26 25
57 46 55 48 47 46 46 43 42 35 40 38 35 36 33 34 33 28 27 18 16 20 24 24 24 46 40 39 38 43 50 56 66 53 55 47 32 25 23 30 35 28 29 24 30 32 35 29 28
59 50 53 54 51 47 44 41 44 35 40 38 37 34 31 34 32 29 27 20 24 25 26 25 31 37 48 40 47 54 49 47 58 46 52 51 44 33 27 27 30 29 29 21 24 27 32 33 31
60 54 55 56 55 47 41 47 51 33 39 40 37 32 31 34 33 28 28 23 21 21 30 26 35 34 43 50 51 52 53 58 52 44 49 52 46 35 32 30 25 25 24 22 22 24 28 35 38
69 59 61 54 56 51 41 45 49 37 36 42 37 35 33 33 33 30 28 26 23 19 32 33 30 39 45 51 55 49 55 59 64 51 47 46 35 39 40 35 31 28 26 29 28 28 27 28 39
67 61 59 55 54 52 47 44 51 43 36 41 39 39 33 33 33 30 28 28 25 21 30 37 34 39 40 54 54 53 52 54 52 46 44 46 40 36 44 40 35 36 31 35 39 36 33 34 32
67 62 61 56 54 57 52 45 43 42 40 39 42 40 32 34 31 30 30 30 24 27 22 42 41 36 43 53 54 58 57 51 50 52 48 50 45 39 46 45 39 36 40 38 41 43 43 46 45
63 55 64 55 55 60 57 47 46 43 37 36 43 40 33 31 30 31 28 27 23 25 22 43 42 42 41 44 51 56 53 52 54 48 43 43 44 39 43 43 44 47 47 47 45 50 50 51 55
55 62 65 57 54 54 57 51 51 46 40 34 38 39 35 30 29 31 27 25 19 24 22 27 50 44 46 44 47 54 58 57 52 53 47 42 46 49 47 47 49 51 53 49 55 56 58 55 57
52 67 66 57 54 54 53 52 47 50 43 37 37 40 34 32 28 31 25 25 19 19 17 26 46 54 46 47 45 50 50 52 59 52 52 50 46 48 51 50 53 52 54 54 60 59 62 65 64
57 67 65 60 58 50 50 52 45 47 49 38 34 41 35 31 30 31 25 22 17 16 18 15 29 52 54 48 51 53 54 55 54 57 55 53 49 49 50 50 50 50 52 53 54 58 63 68 69
61 69 66 62 58 45 51 53 47 49 50 42 35 41 37 32 32 30 25 21 17 14 17 17 12 31 54 49 49 51 56 52 55 55 55 56 56 54 52 53 51 53 55 57 60 62 65 71 73
62 69 68 63 57 49 52 46 46 52 48 40 34 41 38 33 33 32 25 22 18 15 14 12 10 10 26 51 52 54 52 54 56 58 59 59 60 57 56 55 58 56 60 62 63 64 67 70 71
61 66 65 64 58 51 49 47 50 50 46 37 39 40 38 35 34 34 28 25 20 18 13 14 6 3 3 17 43 49 52 54 53 54 57 58 57 57 59 57 61 62 64 64 66 68 70 70 72
63 67 68 63 60 54 48 50 49 50 45 45 44 39 40 36 37 32 31 31 27 23 21 15 13 7 5 7 11 21 48 58 57 58 57 58 57 58 60 61 62 64 67 69 71 73 74 73 71
66 66 67 67 62 59 52 52 54 48 47 53 51 45 38 44 40 36 33 34 29 27 25 18 16 17 13 10 8 12 22 37 54 59 57 59 61 63 64 65 67 69 73 74 75 77 75 76 75
62 62 65 67 65 62 58 54 53 56 56 54 52 46 45 49 47 41 36 33 34 32 28 25 21 21 21 17 15 9 15 13 31 41 49 61 63 62 69 66 70 73 76 76 76 76 66 67 69

GFSSGP_250_spd_099.txt.gz
Wind_Speed
62 60 59 60 63 59 60 58 54 57 53 51 52 50 51 51 50 53 58 59 55 55 58 60 60 61 60 61 59 57 56 52 48 45 45 48 50 52 51 53 54 59 61 64 69 74 74 74 73
56 57 55 55 58 61 60 57 42 46 44 44 43 43 46 48 46 50 53 57 57 55 58 58 58 60 57 56 55 54 50 44 40 41 38 38 35 30 27 16 16 21 37 46 53 58 64 65 66
57 55 55 54 56 56 53 47 40 43 37 37 37 39 40 44 44 49 48 53 55 56 58 57 56 54 50 46 47 46 44 40 36 31 29 25 18 10 10 11 17 21 26 30 36 39 43 48 48
48 47 47 50 50 46 46 47 35 37 32 29 37 40 40 36 41 47 47 49 50 51 55 52 48 47 46 43 39 37 32 35 26 23 19 23 20 10 10 13 20 22 29 28 31 32 32 28 35
45 42 46 45 43 42 42 38 37 34 31 32 32 34 37 36 40 42 46 49 49 45 47 50 46 45 42 40 33 31 31 28 28 28 17 18 16 23 20 19 20 26 30 29 27 24 22 24 25
38 37 43 44 44 41 39 36 38 33 31 31 32 34 34 36 42 43 47 47 46 43 43 40 39 36 30 30 28 32 39 40 50 40 29 21 35 36 21 21 20 22 31 24 23 28 24 23 25
37 32 40 42 42 41 40 34 38 38 34 31 30 35 36 36 39 41 44 45 44 42 34 32 30 27 25 24 28 35 45 54 51 52 49 50 44 36 26 23 24 25 32 21 25 28 28 19 14
34 32 37 45 45 40 36 36 39 38 34 34 27 31 38 41 39 39 40 43 42 35 28 23 21 23 20 26 30 38 53 59 56 50 48 44 33 37 39 28 28 29 24 15 23 24 17 18 25
38 37 40 41 45 47 43 40 40 38 34 36 32 28 33 35 39 40 38 40 38 23 20 15 12 12 19 31 41 47 57 54 49 48 48 46 52 42 24 23 18 19 28 23 22 19 23 30 32
45 42 46 39 39 42 40 43 40 37 38 36 34 32 31 34 37 37 38 35 35 22 18 19 17 17 19 36 47 53 52 48 52 53 44 46 43 33 26 24 22 23 27 26 24 35 38 35 35
55 46 53 45 42 44 45 47 43 42 42 38 37 33 35 34 35 36 37 32 28 29 16 22 17 19 22 31 51 54 47 44 48 44 46 40 44 26 29 24 24 29 30 22 27 34 34 30 31
52 52 57 55 51 44 46 46 42 44 43 36 39 33 35 34 35 36 34 38 30 30 22 17 21 20 27 35 45 51 40 41 40 44 40 44 32 43 30 22 24 24 24 25 27 28 29 33 30
61 56 58 59 58 46 46 47 46 46 41 37 36 33 34 35 33 35 34 38 29 28 30 18 17 21 33 40 46 46 41 40 37 39 46 31 31 35 28 23 23 22 24 25 24 26 35 31 36
64 60 61 60 61 54 47 45 47 50 39 36 37 34 34 33 32 32 32 37 31 26 30 24 15 30 37 40 43 42 37 35 47 48 51 34 33 24 28 26 24 23 30 31 28 30 36 29 33
69 68 63 62 61 56 49 39 49 48 43 38 37 34 34 33 30 29 31 34 34 29 26 28 18 20 41 45 43 39 37 31 39 46 47 51 39 27 25 27 19 28 30 27 30 34 38 27 23
72 71 66 66 69 71 58 34 51 48 43 37 40 37 34 34 27 29 29 32 34 33 29 35 28 20 36 47 39 40 45 37 34 43 44 41 45 28 25 27 19 24 28 24 28 35 33 30 27
76 76 72 71 77 74 64 37 52 55 42 41 41 39 34 38 29 31 27 32 35 33 32 26 33 25 32 35 39 37 38 41 41 44 44 63 57 49 36 22 21 23 26 24 22 26 25 27 26
80 83 78 75 77 80 62 42 41 54 48 42 42 40 37 37 33 29 26 31 34 32 31 27 31 26 32 30 38 41 44 46 51 53 46 58 57 54 49 38 27 23 24 24 22 22 27 28 31
86 82 80 74 77 80 67 42 39 43 52 41 37 38 41 31 36 26 26 28 33 34 33 29 28 31 34 34 34 45 50 50 60 54 50 58 54 58 49 43 33 29 30 32 29 29 27 29 31
82 79 78 78 72 76 58 43 43 42 43 46 40 35 39 30 37 28 25 29 34 33 33 33 26 40 34 40 31 42 52 56 54 53 49 53 47 50 53 46 39 42 37 35 36 35 33 34 36
80 82 84 75 68 58 52 44 47 47 41 48 42 38 35 27 32 30 25 29 32 33 32 32 26 31 38 38 36 38 55 53 58 56 59 54 44 47 47 51 49 39 45 48 41 43 41 42 41
89 91 88 74 62 52 60 43 50 47 37 46 45 40 36 28 27 32 25 27 29 31 31 30 25 24 45 41 40 39 44 49 53 56 62 58 65 47 45 48 47 48 47 55 53 51 49 47 49
88 84 76 63 57 51 53 46 49 49 43 40 53 43 35 30 30 30 25 25 26 27 28 24 21 18 40 43 43 41 41 46 51 51 54 56 50 47 49 45 48 48 48 54 53 51 50 52 54
85 82 72 63 53 43 51 52 45 45 46 42 56 48 32 30 32 30 29 23 24 23 25 21 18 17 28 44 43 45 44 45 51 49 50 50 50 49 47 43 45 46 47 51 51 53 53 55 57
80 79 68 61 49 43 53 57 43 46 50 49 50 53 43 32 31 31 30 22 21 21 20 20 14 17 18 43 53 46 48 46 49 52 54 53 52 52 49 48 49 49 51 52 53 53 57 58 57
75 72 61 56 48 50 56 52 48 51 49 48 54 52 45 39 33 34 28 24 23 20 22 19 15 12 12 16 50 56 48 48 47 51 57 61 61 56 55 53 52 52 52 54 56 58 61 62 61
72 60 59 52 51 50 54 56 52 48 49 53 55 47 43 36 35 36 29 26 27 23 21 17 15 11 10 8 17 46 54 51 54 56 60 62 61 63 61 60 58 59 58 61 64 64 64 64 66
66 65 54 51 48 48 56 54 51 52 48 50 50 51 44 34 33 36 30 29 28 25 24 22 15 16 10 8 6 11 23 45 53 55 54 58 61 63 65 64 67 65 65 67 67 66 66 68 70
64 58 51 49 47 51 58 54 51 52 48 51 48 47 41 36 35 40 33 33 32 29 30 28 23 16 16 13 10 11 18 19 23 46 59 56 57 62 65 64 64 64 65 65 65 66 67 70 72
53 51 50 51 46 50 55 53 52 55 50 52 47 51 46 46 37 37 39 35 34 34 29 32 28 23 21 18 18 15 15 16 21 30 45 53 59 60 62 63 65 63 63 65 66 69 70 73 74

GFSSGP_250_spd_102.txt.gz
Wind_Speed
56 58 60 57 58 55 51 47 52 54 54 55 55 50 48 47 47 48 48 46 51 54 55 57 60 62 63 64 64 64 61 60 57 53 51 50 50 51 53 56 57 59 62 64 65 65 67 70 72
52 52 53 55 58 57 47 43 47 49 49 49 48 45 43 40 42 43 41 43 49 50 52 52 51 54 58 60 60 60 56 56 58 45 42 40 41 44 42 38 39 37 19 14 26 37 45 49 53
47 47 48 50 55 52 51 43 46 45 46 44 41 40 37 35 41 41 37 42 44 49 52 52 52 53 53 54 53 53 52 51 50 40 36 35 34 33 27 24 21 14 9 8 14 20 26 31 38
42 41 47 51 48 44 45 41 44 42 41 34 38 37 34 34 35 37 36 37 41 46 49 51 50 50 51 49 49 46 46 44 39 31 31 28 19 15 17 16 13 11 10 13 20 21 22 24 27
43 43 44 48 44 39 39 36 36 41 34 33 32 34 31 34 36 35 39 40 42 45 48 49 47 44 45 44 42 41 35 31 29 23 22 24 25 21 20 17 9 4 8 15 20 22 20 21 20
44 47 47 46 39 40 33 32 35 41 37 34 35 33 29 34 37 33 38 42 45 45 43 43 41 40 38 37 36 34 27 32 29 33 29 35 34 22 20 20 15 9 9 13 23 18 19 16 18
46 45 48 44 42 39 36 33 34 41 42 34 37 33 29 33 37 35 36 41 43 43 43 39 34 32 30 28 26 22 23 35 34 41 47 46 35 27 29 21 16 16 17 16 18 14 18 19 21
51 45 52 50 38 41 35 34 33 36 40 44 40 34 30 34 35 36 38 42 41 41 41 36 30 29 27 27 13 11 19 27 40 60 50 49 39 32 27 37 31 19 15 12 20 14 17 24 26
53 49 57 51 48 39 36 34 37 37 43 47 42 35 32 33 36 37 37 42 41 40 37 34 30 28 22 24 8 18 32 37 53 58 58 57 48 46 46 43 26 20 11 14 20 19 22 21 24
53 49 58 55 52 45 36 38 39 40 38 46 43 36 35 35 33 35 33 40 40 41 38 36 26 27 26 20 10 21 40 43 61 63 61 53 46 54 49 42 27 15 13 17 24 19 25 21 15
58 45 59 58 57 48 46 43 43 42 45 47 46 42 41 35 32 33 32 36 38 40 39 37 30 26 24 19 7 23 38 42 64 63 63 56 51 49 44 32 22 16 19 20 22 21 25 19 25
56 49 54 59 60 52 48 45 49 48 47 47 45 40 38 34 31 33 32 32 33 37 39 35 37 25 26 18 12 17 27 40 64 62 55 50 43 43 38 27 24 19 15 21 22 23 29 32 36
56 57 56 61 58 54 51 50 44 47 49 47 48 44 36 35 29 32 32 29 27 32 35 36 36 29 24 17 19 14 27 40 57 49 48 47 41 34 35 30 24 19 19 21 22 17 24 30 33
65 60 53 54 56 58 54 55 51 55 51 47 48 46 40 36 31 33 30 28 26 28 32 37 34 31 24 19 21 19 34 42 46 46 46 45 41 36 44 30 26 21 19 17 21 20 24 29 33
65 61 56 56 60 59 62 58 57 57 58 47 47 49 45 37 32 35 28 29 28 26 29 36 36 29 24 24 23 27 42 42 39 38 41 42 39 37 40 41 26 19 17 14 20 26 30 30 35
64 62 56 62 64 65 69 60 59 64 58 48 49 51 51 41 35 35 30 30 28 26 27 33 35 31 24 23 28 27 41 45 38 37 39 41 43 40 38 29 20 18 14 16 22 28 30 28 34
68 62 63 61 67 69 69 67 62 62 60 50 48 50 48 40 40 35 31 32 28 25 25 31 34 32 24 28 30 33 36 41 40 39 40 51 43 40 29 26 21 17 20 19 21 26 33 36 40
73 76 75 70 71 75 76 65 63 59 59 54 44 46 48 42 39 37 29 32 28 25 26 30 35 31 25 29 32 33 37 37 36 38 36 46 50 45 48 31 19 13 16 19 22 28 27 34 40
80 78 77 74 76 77 75 70 65 59 55 52 44 44 47 43 38 39 29 31 29 25 26 30 34 30 28 27 34 35 38 44 35 35 37 41 44 43 46 44 37 35 22 23 23 26 25 30 30
81 80 73 72 73 75 74 67 63 62 58 42 48 42 42 39 35 39 29 34 32 25 26 30 34 30 29 22 36 35 39 42 37 41 38 41 41 44 51 50 40 42 44 34 31 32 31 29 28
83 81 75 70 75 72 70 63 65 67 59 44 48 43 36 37 36 34 27 29 31 24 26 29 31 30 33 20 35 37 42 43 42 46 46 48 46 46 51 53 49 51 46 41 45 44 41 41 37
85 85 81 76 78 76 79 72 75 71 50 40 49 44 40 35 38 39 28 28 27 24 24 27 28 30 30 22 36 40 40 46 45 47 54 49 55 55 50 57 60 50 45 45 47 44 46 47 45
86 93 87 89 87 82 84 87 76 72 51 44 49 47 38 37 38 39 29 28 25 24 22 25 25 27 27 22 33 40 39 41 47 50 53 53 53 49 47 46 45 45 48 50 53 52 51 51 53
88 87 85 82 81 78 76 78 60 50 54 47 51 55 43 46 41 34 30 29 27 23 20 23 20 23 23 20 24 44 40 40 43 52 57 56 60 60 57 50 46 47 47 50 53 56 56 59 59
86 85 84 78 74 70 72 62 45 51 52 46 48 56 39 46 51 38 28 30 29 22 17 22 20 23 19 17 15 39 46 41 43 43 52 57 58 56 56 55 51 50 51 51 53 55 54 53 56
89 87 82 76 68 69 68 45 43 47 49 48 51 55 44 33 45 50 38 28 30 26 18 21 17 18 17 15 16 15 44 46 44 43 48 53 55 56 55 51 51 53 52 48 50 53 55 58 59
83 81 76 73 62 59 47 44 48 43 49 51 55 59 54 53 49 48 43 31 30 25 21 22 17 17 17 16 13 14 18 47 45 43 46 51 52 55 55 56 55 55 57 56 58 59 60 61 63
82 79 77 68 63 62 50 44 42 42 52 54 53 54 54 52 49 44 45 36 32 29 23 21 19 18 16 17 12 9 9 18 41 48 45 46 50 53 56 58 61 63 62 62 61 62 64 65 65
74 74 76 70 59 52 48 43 45 45 52 56 51 50 48 46 41 41 42 37 33 30 25 26 22 25 19 17 16 14 12 14 19 30 42 56 52 50 54 56 59 63 63 64 64 65 65 65 66
65 73 79 62 57 54 46 45 45 50 56 58 51 48 47 45 42 41 38 37 35 33 30 26 28 21 25 23 21 20 20 18 20 26 33 40 54 61 56 59 59 58 61 64 64 61 64 66 64

GFSSGP_250_spd_108.txt.gz
Wind_Speed
59 57 56 57 57 55 57 57 58 57 57 54 49 45 44 40 41 41 43 44 43 43 43 43 44 46 47 50 54 57 59 62 64 66 68 68 67 70 71 72 72 75 76 75 79 81 82 85 87
57 55 55 55 55 54 54 56 58 56 56 53 47 41 40 37 38 41 39 40 40 41 41 41 41 43 44 47 51 53 55 57 60 60 61 60 57 57 58 61 62 59 58 60 61 63 62 65 66
58 54 54 54 55 54 53 53 55 55 56 55 47 35 37 37 40 38 37 38 39 38 38 40 41 43 44 45 46 46 49 51 53 54 48 49 47 47 45 49 50 49 47 45 44 45 48 49 51
57 52 53 56 56 55 53 50 53 54 56 53 39 35 38 39 41 38 37 36 36 39 40 39 41 40 43 43 46 42 43 44 45 36 38 32 36 36 35 42 41 42 37 34 35 38 33 31 31
55 53 53 58 57 55 54 48 52 55 53 49 44 36 37 38 40 41 39 37 37 39 40 40 42 41 42 42 45 39 35 35 34 27 28 32 33 31 31 37 32 35 30 25 25 25 20 21 24
55 52 53 59 59 58 54 47 53 52 50 44 40 33 32 39 40 41 42 38 38 38 41 42 44 42 43 42 42 34 26 19 12 17 31 42 36 33 30 26 31 31 27 30 27 22 19 19 20
57 57 51 56 62 57 51 51 54 52 48 41 35 39 32 37 40 40 42 43 41 39 41 42 44 42 42 41 40 30 12 10 8 13 25 33 37 36 34 33 28 27 29 24 23 24 9 5 15
58 54 50 57 63 59 54 51 53 50 46 43 36 41 33 30 35 42 46 45 39 40 42 44 43 43 42 38 37 31 12 15 10 17 30 29 33 31 37 36 37 35 28 24 18 17 9 6 13
58 53 51 62 64 61 56 56 51 50 45 47 42 42 38 34 35 37 40 45 39 36 38 43 43 41 40 35 36 30 14 21 24 25 36 36 35 38 41 43 37 36 31 23 15 17 6 8 14
63 56 52 64 66 61 62 56 51 49 46 51 43 47 44 47 41 37 41 41 43 37 41 42 42 38 36 33 32 30 18 19 25 34 40 44 43 44 48 44 39 36 30 17 18 10 4 12 15
63 55 58 62 69 64 64 53 49 48 48 49 44 48 48 44 43 45 38 43 44 38 38 39 39 37 35 33 29 26 27 18 25 35 39 47 43 44 47 47 40 39 30 20 14 13 7 15 13
70 65 66 67 71 68 63 58 50 51 52 48 46 48 48 51 48 49 51 44 47 38 37 37 38 36 34 30 28 25 25 20 27 38 40 48 54 47 49 48 48 35 34 18 8 3 12 17 17
77 75 73 71 74 66 65 63 51 45 61 51 47 46 47 49 49 53 56 48 44 38 40 38 36 35 32 30 29 24 22 20 20 36 50 46 52 40 53 53 49 39 33 24 15 7 11 15 18
85 81 77 75 71 69 69 64 58 58 61 52 47 48 48 53 55 51 57 47 44 38 37 37 36 35 31 30 29 24 20 23 23 24 44 46 42 45 54 54 44 43 28 25 24 16 14 16 21
83 82 79 70 64 67 67 59 61 59 57 50 49 51 55 58 51 50 59 47 38 39 37 37 36 35 31 29 30 26 20 20 24 24 23 42 41 50 54 52 41 35 34 26 14 9 16 23 12
74 74 65 60 66 64 73 58 64 63 59 56 51 55 58 58 51 56 57 49 35 34 37 35 36 35 31 29 31 27 20 20 23 25 23 29 40 57 50 46 41 32 33 34 18 16 16 11 9
79 73 72 67 67 69 74 60 63 64 57 54 55 59 60 55 55 53 53 47 36 35 33 39 36 35 31 29 29 27 20 19 22 29 21 21 44 60 45 48 38 36 35 35 26 20 16 20 16
87 86 83 79 74 80 77 65 58 62 64 65 66 62 58 58 56 53 51 49 39 35 32 35 37 36 30 28 30 28 18 19 24 28 24 19 36 60 46 41 41 42 46 36 29 22 18 17 9
94 92 87 84 81 78 71 61 65 69 69 66 63 61 62 60 58 56 55 48 41 30 31 34 33 33 31 28 30 27 20 19 27 29 23 22 29 43 42 45 40 37 40 33 28 25 32 18 11
96 91 85 86 84 86 83 69 70 70 66 69 69 67 61 61 59 57 59 46 47 41 31 36 33 31 30 29 28 28 24 20 31 31 32 31 34 44 42 44 41 42 34 27 30 35 24 16 13
97 96 93 91 92 89 84 71 73 74 71 70 70 69 67 64 63 59 55 48 52 45 27 37 33 32 30 28 27 28 26 20 36 36 39 36 36 38 40 40 42 43 40 32 31 26 24 24 23
91 90 92 96 100 93 91 77 74 72 70 70 69 66 65 63 62 56 51 49 52 40 25 35 34 32 30 25 26 27 28 18 39 38 42 46 40 36 37 39 37 40 36 40 41 42 42 43 42
89 95 95 94 93 93 89 84 71 73 75 78 74 70 69 59 53 52 51 49 51 39 27 34 34 33 30 26 24 27 28 17 38 40 41 49 48 45 40 45 40 42 45 38 40 45 43 43 44
94 94 96 97 95 89 84 83 68 68 76 80 74 66 58 51 47 49 48 42 48 35 29 33 34 33 28 24 23 27 24 19 31 41 42 44 50 46 43 49 46 45 41 44 45 43 46 49 48
91 92 92 92 89 80 76 76 63 66 68 66 66 56 52 49 48 49 45 46 43 34 31 33 35 30 26 24 21 26 19 20 26 40 45 41 42 45 42 41 47 42 47 50 48 48 50 53 54
85 86 86 83 82 78 77 70 65 61 62 61 52 46 44 44 43 45 42 47 38 35 33 38 37 34 27 24 23 25 20 16 22 43 46 48 43 39 40 40 53 50 46 53 57 52 59 58 57
90 86 82 88 83 78 72 67 65 60 62 60 51 44 44 41 37 40 43 45 36 37 35 34 34 31 28 27 25 24 20 16 16 41 42 48 52 45 45 48 50 53 58 61 56 53 54 54 57
87 85 90 91 82 74 68 67 65 65 68 55 49 43 40 38 34 38 43 42 35 42 37 34 37 32 31 25 28 25 20 15 10 37 44 41 50 55 49 49 49 53 56 58 56 56 59 60 60
88 89 89 87 83 76 73 70 69 70 67 58 55 44 40 30 32 40 44 40 44 49 47 38 33 33 34 27 28 27 23 16 12 14 42 43 42 50 58 55 57 56 53 60 59 59 60 59 59
78 81 87 87 82 81 78 75 71 72 71 68 60 45 35 29 35 42 42 43 49 54 51 48 48 35 32 35 33 31 26 21 18 14 18 38 44 46 43 55 58 56 58 60 63 64 62 65 66

GFSSGP_250_spd_111.txt.gz
Wind_Speed
60 58 57 56 55 56 53 54 52 53 53 53 53 51 49 42 40 34 32 35 38 40 40 41 41 42 42 45 46 50 52 56 60 63 64 65 67 67 68 71 75 78 76 75 77 79 82 84 87
61 60 58 55 56 55 53 50 48 52 52 53 55 52 51 50 42 38 31 36 37 36 37 40 39 38 37 39 41 43 47 48 53 56 55 56 55 54 54 55 60 64 66 68 68 67 68 71 72
63 62 58 57 57 54 51 48 47 49 50 54 53 54 52 50 47 35 31 32 35 35 35 36 37 36 35 37 39 38 39 43 44 46 44 45 45 48 54 55 52 53 53 54 56 53 56 56 58
64 62 59 58 58 56 50 46 47 48 50 50 53 51 49 49 47 37 31 30 34 35 35 37 38 37 35 36 36 36 32 36 35 31 30 25 26 29 28 40 46 44 43 48 48 50 48 45 43
60 59 57 59 60 57 52 49 47 48 49 48 50 49 47 42 42 40 33 32 35 38 37 40 40 37 35 35 34 34 31 31 23 21 29 23 28 38 28 30 34 35 42 37 35 40 39 37 35
62 58 55 59 59 56 52 47 46 48 46 46 48 50 43 41 42 38 36 34 32 37 40 41 39 38 37 34 36 33 31 27 22 27 28 34 37 41 35 33 38 37 36 30 30 29 27 28 27
63 60 56 58 59 56 55 48 47 47 47 46 50 49 44 40 40 38 33 35 35 39 42 46 41 40 40 35 36 34 33 29 23 28 28 28 41 44 35 38 39 37 37 29 27 27 26 24 23
66 61 56 57 63 61 56 49 46 45 49 48 47 45 42 40 41 42 40 37 37 39 44 47 44 43 40 35 33 34 34 28 26 26 29 28 38 40 43 43 43 40 32 29 29 28 28 23 21
63 59 55 62 66 67 60 50 48 46 51 50 50 43 42 41 44 45 43 39 43 43 44 47 43 41 39 36 31 32 31 32 27 23 30 30 40 46 44 46 41 33 29 30 30 28 27 19 11
67 60 61 66 69 70 64 55 49 49 51 53 55 48 42 42 44 46 47 44 46 50 42 44 44 40 40 35 30 30 28 32 27 24 24 30 40 43 45 38 31 31 35 30 26 23 20 11 7
72 66 67 64 69 69 65 60 52 51 54 57 59 53 43 43 42 44 47 49 50 49 47 45 45 40 34 35 30 28 27 30 29 24 21 32 40 41 41 36 31 41 38 25 23 19 12 8 6
75 72 71 69 69 71 68 63 55 55 58 58 60 50 40 46 43 45 49 52 49 50 50 47 47 37 33 32 30 27 26 28 31 26 26 26 39 47 41 39 41 43 36 31 25 13 14 7 9
77 73 74 74 77 72 70 68 68 61 62 63 65 55 47 46 43 44 53 52 49 50 49 45 46 38 35 31 29 27 25 28 30 26 23 26 35 48 43 40 46 45 39 25 23 12 10 5 10
85 84 79 77 78 78 78 76 71 65 70 70 66 54 44 46 47 50 54 51 51 47 48 45 44 36 34 31 29 28 25 27 28 27 25 25 27 44 53 44 52 45 36 33 22 15 10 10 17
85 84 85 83 83 85 84 76 70 73 76 71 63 58 51 45 51 54 56 53 50 47 47 39 43 36 35 32 30 28 26 27 27 27 28 27 27 33 49 47 56 49 43 32 31 24 15 12 11
85 84 78 74 78 82 84 71 77 78 75 69 69 57 54 50 49 53 53 52 48 46 42 42 43 41 34 32 30 28 25 26 26 27 28 27 25 31 37 42 50 53 44 39 36 33 15 12 5
86 80 77 75 74 75 76 68 74 73 71 67 61 56 54 49 47 51 52 51 48 44 44 43 41 39 36 33 30 27 25 25 25 27 28 29 28 26 39 43 52 56 49 42 37 24 21 16 11
86 89 89 83 82 82 76 65 62 64 63 61 61 57 54 50 49 52 55 52 52 48 46 41 33 34 35 38 31 27 26 23 23 26 26 32 28 26 39 43 51 54 52 39 33 32 26 22 15
92 89 88 87 90 88 83 77 75 73 70 66 61 60 57 54 53 53 55 55 55 50 47 39 39 35 34 34 32 29 26 23 22 25 29 32 26 28 32 36 48 50 52 42 38 36 37 23 21
93 92 81 83 89 94 91 78 80 76 73 70 69 65 61 59 59 60 59 57 55 53 50 46 36 34 33 32 30 29 28 24 25 23 30 33 28 30 34 40 48 36 42 42 41 36 29 32 31
97 90 89 89 92 87 86 78 83 81 78 77 73 70 67 62 57 55 56 54 52 51 51 45 35 37 35 32 30 28 28 25 26 21 32 35 29 29 39 47 44 37 44 45 41 37 27 26 32
97 92 90 92 95 88 86 76 80 81 79 77 76 70 68 66 58 56 57 58 56 58 50 46 33 34 37 33 31 29 27 25 25 20 34 36 32 29 37 40 48 47 43 41 38 34 32 33 31
96 98 96 95 95 95 86 80 70 75 76 79 75 73 69 64 60 58 60 61 58 54 47 44 32 31 38 34 32 30 28 26 26 22 35 40 39 38 38 40 39 43 42 43 46 38 35 34 31
99 98 98 97 95 91 80 79 72 69 70 71 73 70 68 63 60 55 58 58 55 51 44 39 33 33 39 34 32 31 30 25 22 23 37 43 42 41 43 39 39 40 39 35 38 42 42 40 40
98 99 99 98 94 84 82 82 69 72 68 67 69 68 65 61 57 56 56 54 51 47 44 40 32 35 40 34 33 30 28 23 21 22 36 45 46 44 46 44 42 43 41 38 33 36 42 42 44
93 94 93 88 87 78 80 73 71 70 68 69 70 69 63 55 51 51 50 50 48 49 44 43 33 37 38 33 32 29 26 23 21 23 27 43 46 47 48 47 46 46 44 41 45 37 41 48 56
86 92 81 90 85 79 72 68 67 65 66 67 67 60 55 51 47 47 47 52 49 49 47 41 34 40 36 32 31 30 25 23 21 22 24 40 45 47 47 52 53 47 48 50 50 49 51 42 45
82 82 88 85 77 70 64 61 61 61 61 60 60 57 52 51 49 48 44 46 48 49 48 38 37 42 37 38 35 33 24 24 22 20 19 49 41 50 50 55 53 55 58 57 60 59 59 52 52
79 83 80 80 76 69 62 60 59 59 59 56 56 52 46 49 49 47 41 43 49 48 44 37 41 36 39 35 38 34 28 26 23 19 12 43 43 49 52 50 57 56 58 63 60 59 64 59 58
74 76 81 85 72 70 69 68 65 64 63 61 58 54 51 50 49 47 37 44 45 46 39 39 41 37 41 38 41 36 32 28 26 23 16 28 43 50 46 47 52 53 55 55 61 66 63 66 68

GFSSGP_250_spd_114.txt.gz
Wind_Speed
64 62 61 58 56 56 55 56 57 56 56 55 51 50 47 46 45 42 37 37 34 34 35 38 39 40 42 44 45 47 49 48 50 57 58 59 60 64 66 70 73 78 79 80 79 78 80 84 83
62 60 60 58 57 58 56 57 56 57 54 52 49 49 46 46 44 41 37 36 32 30 32 34 35 36 37 38 39 40 43 43 46 51 50 49 50 47 45 48 54 62 69 73 73 72 71 71 72
62 60 59 60 60 59 58 58 57 55 53 51 48 48 44 44 41 42 41 37 35 32 31 33 34 34 34 35 36 36 37 38 38 42 39 39 36 32 27 29 47 53 55 59 56 60 61 61 64
63 62 60 62 63 61 59 59 57 54 52 50 49 46 43 41 43 45 43 40 38 32 30 33 36 36 35 37 36 33 31 32 29 29 34 26 13 10 15 25 38 35 38 49 45 52 55 55 53
65 64 62 64 65 64 59 57 56 52 50 48 47 46 41 41 44 46 42 42 39 30 27 28 33 36 37 39 38 33 28 29 25 25 29 14 22 26 28 32 23 43 30 37 43 43 48 47 44
65 65 63 66 68 65 62 59 55 52 50 46 46 45 42 43 43 43 43 43 39 35 31 28 30 31 37 42 40 35 31 30 29 25 29 27 27 34 38 44 41 37 33 36 43 43 37 35 34
68 66 65 67 69 68 65 59 54 53 46 47 45 45 43 44 46 44 45 44 42 38 34 35 36 35 39 39 38 38 32 34 27 28 27 34 34 43 47 53 38 44 35 36 37 39 37 29 28
70 67 66 67 71 71 66 63 53 47 44 49 48 45 46 46 49 46 47 47 45 41 37 39 37 34 38 39 37 34 32 34 27 28 25 30 35 36 51 53 46 42 39 41 36 35 37 30 29
72 68 66 66 73 74 68 58 52 49 47 48 51 51 47 49 50 50 50 45 44 43 43 40 41 37 37 40 36 31 33 32 29 26 25 26 29 29 33 45 41 40 44 42 37 29 29 28 27
74 71 66 67 71 68 66 59 52 53 52 51 54 53 53 52 50 51 47 46 44 46 46 42 42 43 36 40 34 29 30 31 28 26 27 25 26 29 34 36 39 44 43 37 32 32 27 23 17
80 75 76 71 73 71 69 66 63 58 55 56 57 55 59 52 50 52 51 49 49 48 48 48 45 45 40 41 32 28 29 31 28 24 26 25 23 27 29 40 39 37 34 28 33 25 24 20 15
82 82 80 77 80 75 69 67 64 63 59 59 58 60 59 54 52 48 50 49 51 48 48 49 47 46 42 45 35 29 28 30 29 25 25 25 25 25 33 36 39 36 29 29 30 26 24 18 7
87 86 82 81 80 77 78 75 73 66 60 58 60 62 61 56 56 49 53 53 47 48 50 50 49 50 43 40 33 30 29 29 28 26 25 26 24 25 29 35 39 39 31 36 32 27 17 14 11
90 87 86 84 82 81 78 75 77 71 69 69 69 69 68 61 57 53 51 55 49 50 50 50 47 43 39 39 35 30 30 29 28 26 25 29 26 29 26 33 39 40 38 40 32 25 15 14 11
87 90 91 87 85 83 83 78 78 77 77 77 76 74 70 64 59 50 52 56 50 49 48 52 47 41 41 42 38 34 31 31 28 27 25 27 27 31 25 25 37 40 46 41 35 28 18 18 13
86 86 86 86 85 88 90 80 85 84 84 84 81 76 71 67 60 50 51 54 52 51 44 47 46 43 42 40 37 33 33 32 29 28 24 28 27 33 30 25 32 42 49 47 37 30 25 15 13
86 81 84 86 87 87 84 78 85 83 84 82 77 72 66 58 56 53 55 58 54 51 41 46 46 45 41 37 38 35 33 34 29 28 25 26 27 31 33 25 29 43 52 53 44 36 30 19 15
96 93 85 84 87 89 87 80 79 75 75 72 67 63 58 53 55 56 58 54 52 47 44 45 45 47 46 43 42 39 35 33 29 26 23 25 28 31 33 25 27 38 51 58 43 39 37 29 20
100 97 94 90 93 90 87 84 80 77 72 68 62 56 51 49 52 53 48 48 48 48 45 47 48 47 42 43 40 39 37 35 31 27 22 24 28 31 31 29 31 38 52 62 47 38 34 31 26
103 99 93 95 93 93 86 82 86 83 78 76 71 65 62 60 59 54 52 51 51 53 52 50 49 47 43 47 41 40 37 36 34 28 22 24 29 32 31 29 28 39 50 61 54 46 42 36 34
103 97 99 102 103 99 92 81 81 81 82 82 81 77 75 72 68 60 58 55 57 56 53 50 48 48 49 49 40 39 36 34 33 30 24 24 26 32 32 29 30 38 46 55 60 51 40 41 38
105 100 101 100 105 99 97 84 87 80 76 76 76 74 74 75 71 67 62 61 59 56 55 54 52 53 48 49 39 38 36 34 32 30 23 25 25 33 32 31 34 40 45 54 58 50 47 50 36
104 109 107 106 103 100 90 92 84 79 78 78 78 75 73 72 72 70 64 63 58 56 57 54 56 50 50 47 39 39 37 37 34 30 27 26 25 35 33 34 31 39 39 42 45 50 48 40 37
107 110 111 108 108 100 89 92 90 82 77 77 76 76 74 70 70 67 63 62 58 58 59 58 54 53 49 42 38 38 36 36 34 32 27 26 23 36 36 35 30 40 44 37 40 47 40 39 40
109 113 112 109 105 95 93 91 80 81 80 76 76 76 72 68 67 65 60 60 58 60 58 55 54 54 49 43 39 38 38 37 33 31 27 26 21 37 39 36 37 40 46 41 44 45 42 41 40
96 102 107 102 100 94 102 92 84 86 83 78 78 77 75 69 66 64 63 61 61 58 56 54 53 52 49 43 38 40 41 37 33 30 26 23 18 37 43 40 41 43 46 44 50 42 44 49 53
83 95 81 96 97 91 87 85 86 85 85 81 82 80 74 71 67 64 62 60 58 58 55 54 53 53 49 41 39 42 41 36 36 29 27 18 21 37 46 43 46 42 46 46 44 41 38 35 38
81 78 90 92 85 81 81 80 77 76 77 76 76 76 74 70 66 63 62 60 58 55 53 54 53 52 45 40 40 44 42 40 37 32 27 17 23 34 47 47 45 48 53 50 47 44 42 46 48
75 74 83 81 79 77 73 70 75 67 67 67 65 66 64 65 64 62 60 57 54 53 53 53 52 49 43 40 43 44 42 41 37 35 27 17 19 35 42 49 46 45 47 55 51 51 52 55 54
67 70 73 77 72 69 69 72 67 64 65 62 61 60 59 60 62 59 57 54 53 52 52 53 53 47 41 42 47 47 41 42 39 35 29 18 16 39 47 51 49 47 58 50 53 59 62 61 63

GFSSGP_250_spd_117.txt.gz
Wind_Speed
71 71 70 69 67 64 63 62 61 59 59 59 60 58 56 52 51 47 45 47 44 38 37 36 36 38 40 42 45 47 47 47 49 50 52 55 53 51 49 45 46 52 60 67 70 74 74 79 84
72 72 68 66 65 64 62 60 59 58 58 59 60 57 55 49 47 45 40 41 43 39 36 35 34 34 37 37 39 42 42 42 43 44 45 43 37 28 22 25 29 30 35 44 55 63 65 70 70
71 71 68 64 64 63 63 58 60 58 58 59 59 57 54 48 44 42 39 37 39 37 36 36 34 32 34 34 35 37 38 37 39 40 40 26 7 3 11 27 29 29 42 45 47 50 55 58 62
75 70 67 63 62 63 60 59 59 60 59 59 59 56 50 46 45 41 37 39 38 39 39 38 35 32 33 36 37 36 35 33 34 35 35 18 16 25 34 34 34 31 42 43 39 41 46 51 54
72 72 68 63 63 64 62 61 61 63 61 61 60 55 49 45 43 40 36 38 42 39 39 38 36 35 34 38 36 36 38 37 32 35 31 22 32 38 46 43 29 29 42 36 40 44 42 44 50
71 72 68 63 65 66 63 61 62 62 62 62 60 54 51 44 43 41 38 39 42 43 41 41 36 34 34 38 37 39 39 38 32 32 30 32 36 38 39 44 44 52 51 43 48 44 38 40 44
64 64 63 63 63 66 62 63 63 65 62 61 59 55 47 44 43 41 42 40 41 43 43 39 40 38 35 36 39 39 39 37 34 27 27 30 35 43 44 49 52 55 50 45 43 43 40 38 42
67 69 65 68 67 70 72 63 65 64 63 57 61 55 49 46 46 46 46 44 43 43 45 45 44 41 37 35 32 35 40 34 33 28 26 25 31 44 46 52 58 62 55 54 49 47 41 42 41
71 71 69 70 71 74 74 67 65 61 62 61 58 55 49 52 50 48 47 44 46 45 46 46 48 43 39 36 36 37 35 33 31 28 25 25 26 30 34 45 44 55 52 47 50 46 40 38 35
69 70 72 74 73 76 73 69 70 61 61 58 58 57 52 55 54 54 51 47 47 46 48 46 46 43 37 39 35 38 38 32 31 29 25 25 25 20 27 30 32 39 46 58 55 47 35 37 36
73 69 79 78 79 80 77 73 71 63 63 58 57 60 59 60 59 57 51 50 49 48 50 49 43 42 40 41 39 38 42 33 30 27 25 25 23 21 23 27 29 28 32 39 49 41 36 37 30
78 77 79 84 83 81 79 76 75 70 61 59 57 58 62 64 63 61 55 51 48 51 52 49 48 47 44 39 40 35 41 35 30 28 26 26 27 21 22 29 29 30 33 34 31 29 27 30 23
84 85 85 82 88 85 88 82 78 74 69 69 58 59 56 59 59 57 52 48 52 53 55 50 50 48 41 42 39 37 41 38 31 31 27 26 27 23 21 26 26 28 34 35 30 26 28 30 22
86 89 88 89 83 89 90 86 86 79 81 76 71 66 63 65 60 53 50 56 56 56 59 52 50 49 42 39 40 39 43 38 32 34 29 27 28 28 23 28 26 28 34 37 30 30 33 32 25
85 88 88 87 89 88 90 89 86 86 86 78 73 71 72 70 66 63 63 64 64 62 63 55 51 49 45 39 41 40 39 38 33 32 30 29 26 27 26 28 32 28 31 38 33 37 32 27 17
91 89 89 84 88 90 95 80 87 90 87 82 77 73 69 67 67 68 64 67 68 66 65 55 50 50 46 40 42 41 36 36 33 31 32 30 29 26 29 28 32 28 31 40 36 41 34 24 19
85 89 92 95 92 89 89 87 90 93 92 85 83 81 75 72 71 70 68 68 66 63 61 54 48 51 43 42 42 40 36 38 33 32 33 33 32 28 30 29 35 33 30 36 39 44 35 26 19
93 99 100 98 99 99 85 85 89 88 88 85 85 81 76 74 72 71 70 68 61 58 60 55 50 48 46 45 43 41 38 38 35 31 35 34 32 30 30 27 33 34 31 35 46 51 42 34 25
100 99 101 99 99 102 95 87 84 86 85 80 79 78 77 76 72 67 65 61 59 60 63 57 48 46 47 48 45 44 42 41 37 30 35 35 31 26 31 30 30 34 29 33 44 51 48 38 29
97 96 95 101 104 108 100 91 86 85 79 76 75 74 72 67 65 59 57 55 58 59 60 55 47 44 49 48 48 47 44 43 38 31 35 38 34 26 31 30 31 35 31 32 43 50 55 43 37
85 91 92 104 110 111 102 98 94 89 81 77 75 76 72 72 68 61 56 54 53 54 54 55 52 48 50 51 49 50 49 45 42 33 35 41 35 28 31 31 32 31 28 29 40 49 59 46 39
87 82 93 103 107 111 105 98 98 90 89 83 78 78 79 80 77 73 72 70 65 64 61 62 60 51 52 52 49 50 53 49 46 36 34 40 37 29 30 31 34 31 28 28 38 47 57 46 44
78 86 94 99 104 105 106 100 93 95 91 87 85 82 81 78 80 80 81 76 73 72 67 64 61 56 53 52 51 52 55 54 47 39 37 39 37 32 30 31 36 34 28 31 37 48 58 53 48
80 91 89 95 100 108 103 101 93 96 91 88 86 88 86 81 79 79 75 71 69 64 68 66 65 58 55 51 51 54 56 53 45 41 40 38 36 36 31 31 37 36 30 26 38 48 56 56 53
74 84 90 95 97 91 83 104 93 94 90 86 82 84 86 83 80 75 73 71 70 65 63 64 63 60 57 53 53 54 56 50 44 41 41 43 37 35 32 32 39 37 34 25 33 44 53 53 55
72 77 82 86 85 80 89 105 89 94 92 89 85 86 84 84 80 77 72 70 68 65 62 63 61 61 59 57 54 54 55 49 43 40 41 41 39 36 31 33 42 40 30 31 37 43 47 51 51
66 77 70 75 82 91 91 81 86 91 92 92 87 86 83 83 81 77 72 71 70 68 62 63 61 63 60 57 55 55 53 48 43 41 42 41 39 36 31 33 44 39 37 36 41 41 41 40 47
62 66 69 75 79 80 84 78 74 81 87 92 92 86 84 83 81 79 76 73 71 70 68 61 60 63 60 57 57 56 52 48 42 43 44 42 39 35 31 33 46 41 43 42 33 46 41 43 46
60 64 66 70 70 74 78 84 78 81 81 80 78 76 77 76 79 79 78 78 75 69 64 62 61 60 60 58 58 55 52 45 42 45 45 43 39 33 33 32 46 45 40 40 37 43 47 44 49
60 59 64 65 64 64 64 71 88 93 83 80 76 79 81 78 74 72 73 71 68 66 62 62 64 62 60 58 57 54 45 40 43 45 46 42 40 32 31 32 44 49 42 43 42 45 46 44 46

GFSSGP_250_spd_120.txt.gz
Wind_Speed
75 75 74 74 72 69 67 70 70 70 67 67 66 66 65 64 62 59 57 56 52 48 45 42 40 39 37 36 38 40 41 46 48 49 51 50 46 35 24 24 22 25 35 40 43 45 45 50 59
78 78 76 76 74 70 69 73 75 73 68 67 64 62 62 63 60 58 57 50 47 43 41 38 37 35 32 32 33 37 40 44 44 41 43 42 29 6 10 11 16 24 31 35 34 35 37 41 49
82 80 79 78 74 71 70 75 75 69 62 67 63 60 60 61 56 53 54 47 46 43 36 36 35 34 34 33 32 33 35 38 39 40 40 33 14 20 15 5 27 29 30 37 38 42 43 44 45
82 83 79 78 73 74 71 76 74 66 62 65 62 59 61 57 55 52 50 45 41 42 35 34 36 36 33 33 34 36 36 36 34 34 36 30 21 29 27 21 32 30 28 32 39 38 42 45 43
79 79 79 76 70 74 76 75 71 63 62 62 62 60 60 54 53 50 47 45 40 40 38 32 34 37 31 30 33 36 38 36 35 37 35 33 25 37 31 33 41 33 20 36 32 40 46 45 42
70 73 70 68 69 72 74 74 70 63 65 62 63 61 58 53 53 52 42 42 40 38 37 35 35 36 33 32 32 32 38 35 37 36 34 32 27 43 41 40 43 40 38 44 46 44 47 44 42
62 66 63 61 60 66 70 73 65 62 63 62 61 60 60 54 53 49 43 43 40 39 41 37 38 39 36 34 34 34 36 39 38 39 35 32 25 47 49 49 47 52 49 50 46 46 50 50 44
65 61 54 56 59 65 73 73 61 60 61 63 60 61 64 46 56 49 44 42 41 42 43 41 39 39 40 39 37 30 37 39 37 36 36 33 27 37 54 48 45 54 58 57 53 53 54 56 46
68 64 55 59 62 65 75 76 68 63 67 67 63 65 62 50 61 48 45 43 41 43 45 44 41 40 41 40 38 35 33 39 38 33 34 33 31 29 48 52 49 50 51 58 66 61 60 60 50
67 67 60 67 67 70 75 81 76 64 70 68 64 63 60 55 58 51 47 42 43 44 45 44 44 41 42 43 42 41 35 38 37 35 30 30 32 27 29 35 42 49 55 61 64 65 65 64 58
72 62 69 70 73 72 74 79 79 73 73 67 64 60 65 57 58 57 52 48 46 44 46 45 44 44 45 47 46 42 35 35 35 37 32 30 29 28 28 26 29 29 37 50 55 57 56 60 55
81 72 70 70 75 77 74 77 73 75 72 67 67 68 66 65 59 61 60 53 48 46 47 45 43 44 49 49 50 46 38 35 32 39 36 29 30 29 30 25 24 27 28 33 33 33 35 37 46
83 82 79 73 75 77 81 77 78 75 77 76 69 71 65 64 58 59 59 56 44 41 45 41 40 48 51 50 50 47 39 38 33 40 37 29 28 31 31 27 24 30 33 30 31 32 28 27 28
95 85 84 82 77 77 80 80 87 73 80 81 77 73 71 68 62 65 58 55 48 42 41 44 53 54 54 51 52 48 41 40 34 36 37 30 28 32 31 30 25 27 25 27 32 36 31 28 29
98 96 82 85 85 83 81 81 79 82 85 80 77 79 78 71 70 69 63 60 62 60 59 53 57 56 55 57 50 49 44 42 36 34 34 33 28 30 31 31 26 24 29 27 28 35 32 30 29
91 92 85 76 90 87 92 73 79 86 91 85 82 79 77 78 73 68 67 63 64 65 60 56 57 59 55 59 48 48 43 41 36 36 36 33 28 31 33 35 27 27 27 32 31 33 36 32 33
80 87 89 81 88 91 95 73 84 89 88 86 85 83 78 75 75 71 71 69 64 68 64 59 63 60 56 55 48 48 44 39 39 39 37 36 29 31 35 34 30 29 27 33 32 32 36 35 35
78 89 88 80 85 90 92 83 85 85 89 85 84 82 80 80 79 73 71 69 67 68 68 65 66 60 60 51 50 50 45 38 41 40 37 37 33 30 35 34 34 32 30 34 35 33 38 38 39
73 79 82 80 82 94 92 91 90 88 91 85 81 77 76 78 79 76 74 72 72 69 69 69 64 62 56 51 52 49 45 39 43 43 41 39 37 31 34 37 35 34 30 35 38 36 34 43 44
67 71 74 77 83 94 97 96 91 90 88 88 80 75 76 77 76 74 70 71 72 69 67 67 66 57 52 51 55 50 47 43 43 45 45 42 41 36 35 38 34 35 30 33 38 37 34 44 48
62 69 65 77 87 97 101 97 90 88 88 87 86 79 77 76 71 70 69 66 63 61 58 57 55 54 53 49 52 48 48 47 44 48 46 46 43 39 40 39 35 34 33 31 40 40 31 43 53
64 63 65 78 87 97 98 92 93 88 85 86 87 86 81 80 75 64 63 63 62 58 53 49 52 52 49 47 48 49 51 49 48 50 50 51 46 41 42 41 37 33 35 29 38 37 32 38 49
56 57 66 72 79 90 94 93 75 83 83 86 87 91 85 80 75 71 67 70 64 58 54 55 57 55 52 57 56 56 54 51 51 51 52 50 48 43 40 44 39 33 35 30 37 36 34 34 43
51 57 65 66 73 84 77 77 64 75 81 84 88 91 91 88 84 76 71 69 69 69 69 69 73 66 62 68 63 56 57 56 53 54 53 53 48 41 42 42 40 32 35 33 38 35 35 36 44
53 57 61 64 70 61 65 74 62 75 80 85 90 94 86 82 84 85 84 77 73 70 67 65 69 65 60 62 59 60 58 55 55 55 55 53 48 40 40 43 42 36 36 35 39 35 32 33 43
54 55 56 61 60 54 62 75 64 78 84 87 90 86 84 84 87 86 81 79 77 72 75 75 69 62 57 63 60 56 56 55 56 56 56 54 46 39 40 44 40 41 37 36 44 36 33 30 39
55 48 49 57 60 52 68 69 74 82 80 81 91 80 82 84 84 81 78 75 78 73 71 70 66 64 60 59 58 54 55 54 56 56 57 52 43 39 41 46 41 40 38 35 47 38 30 28 34
46 46 47 49 52 47 62 63 67 77 78 82 85 77 81 88 86 80 76 74 74 73 71 71 68 66 63 60 57 55 56 57 58 58 55 51 43 39 43 45 43 41 41 38 49 37 36 33 35
43 45 43 45 53 53 54 64 69 76 81 86 83 79 65 82 74 77 78 76 75 72 71 71 68 68 65 62 60 58 58 58 58 56 54 50 43 39 44 43 42 39 43 39 46 42 38 32 40
37 39 39 42 50 50 47 55 80 79 75 77 75 69 67 73 73 72 71 71 69 71 70 68 67 68 66 62 60 58 56 57 55 55 53 48 43 38 44 42 41 37 43 38 44 48 47 37 35

GFSSGP_250_spd_123.txt.gz
Wind_Speed
79 77 75 73 69 67 67 73 75 77 73 69 70 71 70 68 66 66 67 66 62 60 58 55 50 47 46 46 44 43 40 40 42 45 45 44 43 37 26 15 14 14 19 23 30 30 25 30 34
80 80 79 76 72 69 69 78 79 79 74 69 72 73 72 69 67 63 64 63 58 56 55 48 43 42 40 38 38 37 37 35 36 39 41 38 36 29 23 24 23 25 23 18 24 23 28 32 33
82 79 79 77 73 71 69 81 84 80 76 72 75 74 75 68 64 62 63 59 55 52 49 44 36 36 36 31 31 32 33 34 35 34 34 32 30 25 27 30 31 37 35 24 18 28 34 32 37
77 78 80 75 71 66 68 78 82 77 78 70 73 74 73 70 62 57 58 55 53 48 45 40 36 33 33 30 30 31 33 34 35 35 34 30 29 27 35 34 35 38 34 36 29 29 33 35 36
67 72 69 68 65 67 66 72 81 78 75 66 66 72 73 65 57 52 56 52 51 45 39 34 35 33 30 30 30 33 34 34 37 34 36 34 29 27 38 39 33 29 24 29 41 39 40 42 41
52 57 58 52 54 61 63 65 76 76 72 63 67 72 69 62 53 51 52 46 48 43 38 35 33 34 31 32 30 32 32 33 33 34 35 35 30 29 32 45 37 37 38 38 37 44 36 44 44
54 54 51 50 43 41 48 64 70 68 64 60 60 65 65 50 48 50 49 43 44 41 39 38 35 35 34 34 30 32 32 32 34 39 35 36 34 28 28 48 45 42 45 44 48 46 41 42 45
54 55 52 52 51 44 55 64 64 64 59 55 56 63 69 54 52 51 50 46 43 43 39 40 37 35 35 33 32 33 35 33 34 37 35 35 36 30 29 38 56 49 50 50 50 46 47 46 49
65 57 52 57 58 58 56 64 66 60 57 58 60 69 64 59 51 49 56 47 43 43 40 40 38 37 37 36 33 32 35 36 36 37 37 34 34 31 28 36 48 54 54 48 56 55 49 50 53
74 69 69 62 62 61 66 62 67 64 54 57 65 70 59 58 58 54 59 45 45 44 39 41 40 39 39 38 37 34 37 38 38 37 40 37 33 33 27 34 41 45 46 43 47 57 59 58 53
78 75 81 77 71 67 68 68 69 69 55 57 60 72 67 61 64 57 51 45 47 42 40 39 40 41 41 42 39 36 40 38 39 37 39 39 38 31 27 28 36 37 32 35 38 48 55 55 58
83 87 87 78 83 74 72 75 72 73 59 60 64 70 68 67 69 66 54 56 43 43 44 44 44 46 46 47 39 41 46 41 40 38 39 40 38 27 28 27 31 32 34 29 31 37 44 48 45
94 94 90 85 84 87 78 77 77 75 65 67 68 70 66 63 67 66 63 63 53 48 46 46 43 48 49 38 40 47 48 44 41 38 38 40 37 32 27 29 30 32 31 32 29 31 32 38 36
98 98 90 85 84 89 92 85 84 73 76 72 72 70 69 66 65 69 66 65 57 50 45 41 39 39 39 43 45 49 49 47 43 38 36 37 37 35 32 29 33 32 30 30 33 33 34 36 33
104 103 94 87 89 90 95 85 83 73 87 80 77 75 72 69 70 69 68 69 62 54 49 46 46 43 45 48 50 49 50 46 41 38 34 35 37 36 35 32 34 35 30 28 31 31 35 36 30
105 99 92 78 82 82 91 75 74 79 90 87 85 78 75 72 72 71 68 69 71 63 58 53 51 52 53 52 51 50 51 49 43 42 38 36 36 35 36 34 35 36 32 26 26 31 32 33 32
96 91 86 70 78 81 90 76 70 84 90 94 85 79 78 76 73 69 65 64 69 68 64 55 50 54 53 53 53 53 52 49 50 43 40 40 36 34 36 33 34 39 35 31 25 28 33 32 33
87 83 69 67 66 84 84 75 72 82 91 95 93 83 82 79 70 69 70 69 67 64 61 57 54 58 57 55 53 56 53 50 48 48 39 41 37 36 37 35 33 41 39 34 29 27 32 35 33
81 74 67 58 64 81 81 79 75 76 89 93 95 86 82 78 73 68 71 71 68 63 64 60 57 59 61 58 56 54 53 51 49 52 44 42 40 39 38 36 34 39 41 36 36 31 31 34 33
78 73 65 56 59 82 78 80 73 77 82 87 89 91 86 78 73 72 72 69 66 66 65 64 59 61 61 58 54 54 54 50 47 51 48 45 43 42 44 41 39 34 43 40 38 34 33 35 37
82 82 74 67 58 77 80 73 69 76 79 85 85 89 86 74 70 68 68 66 64 62 63 58 57 60 57 59 54 55 45 51 48 46 48 47 47 46 47 44 39 36 40 43 39 36 34 34 39
83 81 80 68 60 67 76 61 62 73 81 81 80 85 83 76 72 71 72 66 61 61 61 58 59 58 53 54 50 44 43 47 47 46 44 46 50 49 46 46 40 40 36 44 41 38 34 37 41
84 78 68 66 62 67 64 60 40 71 78 78 80 82 84 84 81 77 74 67 64 61 57 59 58 56 49 47 47 43 39 42 41 45 48 54 50 53 50 46 43 41 36 44 42 38 33 37 39
73 65 62 60 60 57 55 60 38 60 71 79 81 85 88 88 84 80 79 75 68 63 58 57 59 58 51 49 49 45 44 46 49 51 52 54 52 55 50 44 44 42 37 43 44 39 35 36 41
66 53 52 50 51 41 51 52 41 57 68 73 77 85 87 87 85 80 74 73 69 65 62 61 59 60 53 51 58 61 60 59 60 51 52 53 53 55 52 47 44 42 39 42 44 41 37 36 40
59 48 45 37 38 37 50 37 45 57 64 76 77 78 78 81 79 74 73 72 70 68 67 64 61 54 51 54 58 59 58 55 56 55 51 50 52 53 53 48 45 44 40 41 44 41 38 36 40
55 49 40 34 35 31 41 31 51 56 68 72 70 76 75 72 68 66 68 68 70 72 73 70 70 70 68 68 68 65 64 57 53 51 49 50 53 53 52 47 46 44 40 43 44 43 40 37 38
48 41 36 30 29 27 35 35 45 56 67 68 68 68 65 60 59 59 56 66 68 69 69 70 69 69 67 66 67 60 59 55 51 51 49 49 53 53 51 50 48 45 41 43 45 42 39 39 39
43 35 31 25 24 24 33 41 47 56 62 66 61 66 61 51 55 64 64 64 65 66 67 67 69 67 67 68 66 64 61 57 54 52 52 50 52 55 53 52 47 43 42 43 47 41 41 39 41
37 32 25 24 20 26 33 40 44 59 64 65 58 56 46 50 58 60 63 66 55 63 65 65 67 67 71 71 66 62 62 63 56 54 53 50 53 52 51 47 47 41 43 42 45 45 40 40 43

GFSSGP_250_spd_126.txt.gz
Wind_Speed
81 80 81 81 78 73 70 74 77 82 76 75 72 70 71 68 61 57 61 63 65 64 62 61 61 60 58 55 52 52 50 50 48 46 45 43 42 40 38 32 32 28 25 26 24 26 20 26 27
84 83 82 81 79 77 76 77 85 83 79 76 75 73 72 69 64 59 64 67 65 64 62 60 60 55 48 48 46 46 45 44 39 40 38 39 35 33 32 29 28 32 34 28 22 24 22 28 28
83 77 82 82 80 83 79 81 89 86 85 81 78 77 74 71 66 64 66 67 65 64 60 57 53 49 43 41 42 42 38 37 36 38 37 37 34 30 27 27 32 38 39 34 27 25 28 26 28
60 67 72 71 71 82 78 81 92 91 86 83 82 80 75 71 67 62 65 66 63 60 55 51 44 42 40 35 37 36 34 33 34 36 35 31 32 34 28 28 33 41 42 41 37 32 33 34 42
46 46 46 48 54 59 62 68 85 91 88 84 80 80 75 73 67 61 62 62 57 53 50 45 40 37 34 33 32 32 34 31 32 34 33 31 31 31 31 29 31 43 45 49 47 41 29 29 31
40 42 43 46 45 49 53 62 67 77 83 79 76 76 75 72 61 50 51 62 51 47 47 43 37 36 32 33 34 33 31 28 29 30 31 29 29 32 33 27 31 43 44 48 56 53 37 35 34
46 43 40 41 42 45 54 59 62 66 69 69 68 68 68 59 54 45 45 59 48 46 47 42 37 35 33 32 34 33 30 28 29 31 31 29 29 32 35 31 30 37 44 46 45 55 57 48 39
52 49 46 48 47 41 54 54 61 62 63 62 56 54 49 55 53 43 46 55 53 50 46 44 39 36 35 36 33 33 30 30 30 33 32 31 30 32 34 35 32 32 43 49 46 44 47 51 50
53 49 52 56 57 52 61 57 61 57 61 61 62 52 45 45 54 46 45 56 59 52 49 47 43 39 38 38 35 33 30 31 30 32 34 32 32 34 35 38 33 33 39 45 46 45 52 51 51
60 56 60 63 62 62 65 70 79 70 57 61 64 61 51 47 54 42 47 59 61 52 48 47 47 43 42 41 40 36 33 32 30 33 37 35 34 34 35 36 35 31 36 43 38 40 45 46 54
67 64 65 68 70 71 70 73 81 84 68 61 67 66 60 51 54 52 51 58 62 48 52 53 48 45 42 40 40 37 39 37 32 36 38 35 35 35 34 33 33 31 31 39 40 31 32 40 45
68 69 70 72 75 74 76 78 81 82 76 76 64 68 67 61 57 54 54 56 60 59 58 53 47 48 44 44 44 44 46 42 36 38 38 36 35 35 34 33 33 32 30 33 35 33 28 29 34
73 76 76 74 79 86 90 88 89 90 82 78 77 70 68 67 64 56 56 54 60 62 64 55 48 52 46 48 46 46 46 40 36 39 38 36 35 33 34 32 32 32 31 33 32 29 29 29 31
81 79 82 87 89 92 97 95 99 79 82 79 81 75 70 71 70 62 56 61 62 64 64 62 53 54 46 46 43 44 41 36 38 40 38 36 37 33 35 32 30 33 30 32 35 30 28 29 32
86 92 96 93 98 101 110 92 84 77 83 85 83 82 71 71 73 74 62 61 62 64 65 61 61 56 47 45 41 41 39 39 44 40 39 38 38 37 37 34 29 33 32 30 37 33 32 29 30
100 102 100 98 105 103 105 82 76 80 81 82 83 83 80 71 76 76 73 63 65 67 64 64 62 58 51 47 45 43 44 44 46 43 42 41 39 39 37 37 33 31 34 31 34 35 31 32 30
100 103 104 96 97 96 96 83 67 79 80 75 81 83 76 75 74 79 79 72 66 67 60 62 61 60 60 55 47 47 52 52 49 44 45 45 40 39 39 39 34 32 32 34 30 37 32 30 31
106 109 107 94 80 84 78 77 61 73 79 74 75 79 75 73 76 78 80 78 69 64 63 60 61 63 64 61 56 53 54 53 51 46 47 46 40 42 42 41 38 34 32 36 33 34 35 32 32
98 99 90 81 80 77 75 70 63 72 81 75 74 77 77 77 73 82 84 81 75 64 64 60 60 59 62 61 58 54 53 51 48 50 50 48 42 43 43 44 45 38 36 36 35 33 38 37 33
95 91 84 73 74 82 75 68 62 70 77 81 72 72 73 73 75 78 84 81 78 71 65 61 59 57 60 59 57 53 50 49 50 50 51 48 44 44 44 43 45 45 40 37 36 34 38 39 35
90 96 90 86 76 79 86 60 60 57 75 76 70 69 71 69 71 77 83 83 80 75 67 60 57 55 59 58 58 50 51 47 46 49 48 45 43 46 41 41 44 45 43 39 39 34 38 42 37
90 94 91 88 81 72 80 58 50 59 70 68 65 68 69 68 71 78 83 84 76 75 70 60 57 56 56 57 53 47 44 43 46 46 48 46 46 45 42 39 40 46 46 42 39 36 36 43 40
96 90 86 82 74 71 64 56 35 56 57 55 60 67 68 69 72 79 85 87 80 73 69 62 61 55 53 48 44 49 47 45 44 43 43 44 42 39 38 43 45 51 47 44 37 38 36 41 41
93 86 79 72 66 61 62 46 42 50 44 50 61 64 64 69 71 78 82 84 82 76 71 61 57 50 44 47 52 55 50 46 43 43 45 40 39 43 45 49 45 48 50 44 39 39 36 39 42
93 87 71 56 59 59 46 40 44 49 46 55 54 46 55 66 70 75 78 84 83 77 71 58 56 49 50 53 56 56 53 47 47 47 43 43 45 55 54 50 47 49 49 43 38 39 38 37 43
79 76 65 47 41 40 28 36 42 43 45 51 43 45 48 56 64 67 72 74 76 73 71 64 57 57 59 60 57 56 53 50 49 48 50 52 54 56 54 54 50 47 48 43 39 39 40 38 42
71 65 56 36 31 28 26 30 36 43 45 42 35 39 38 47 59 64 69 73 74 71 69 68 67 67 66 64 61 58 58 54 55 55 48 52 53 54 52 49 50 47 48 42 40 39 41 39 40
64 54 44 35 27 24 28 33 41 44 44 36 31 31 14 20 41 62 68 69 73 71 69 67 69 66 68 67 66 61 58 55 53 54 57 57 53 50 48 49 49 48 46 42 42 42 40 39 41
55 48 35 27 19 24 29 32 36 38 36 27 33 40 54 47 38 49 54 63 67 65 72 72 72 70 70 68 67 64 63 63 62 61 58 58 53 48 47 50 51 49 46 45 46 44 39 39 42
53 47 37 22 21 26 29 31 32 39 34 36 36 39 56 45 37 48 54 58 63 64 72 68 70 71 70 69 66 66 67 65 61 59 62 58 58 54 51 51 51 50 47 47 45 42 40 41 44

GFSSGP_250_spd_129.txt.gz
Wind_Speed
79 79 77 80 79 77 79 85 89 89 88 83 81 79 78 75 72 68 67 66 71 68 65 64 62 61 62 63 63 63 61 61 59 57 56 53 48 44 40 40 37 33 36 37 38 34 29 32 28
82 82 82 84 84 83 86 92 93 92 92 89 85 83 79 77 74 71 68 68 72 70 66 64 62 61 62 62 59 58 55 56 52 54 51 49 44 42 36 36 35 31 33 36 38 36 32 32 32
75 75 82 81 80 84 86 89 88 91 94 89 89 88 84 81 76 73 70 68 71 68 66 62 61 58 57 56 53 51 48 50 47 47 45 43 40 38 36 32 32 32 33 39 39 39 35 35 34
54 55 55 60 62 59 65 76 83 90 88 91 91 85 83 85 81 78 73 73 76 70 66 62 58 56 53 49 48 46 44 44 43 41 41 39 39 34 35 33 33 32 32 42 43 41 36 37 33
41 39 41 45 48 51 51 59 68 71 73 76 79 80 78 79 78 75 76 72 70 65 60 56 53 51 48 47 46 42 40 40 39 37 34 31 32 32 32 33 31 31 32 39 47 47 41 40 40
35 36 35 36 42 46 53 56 55 60 58 61 62 62 64 65 69 72 72 70 63 56 50 48 48 47 45 42 41 40 39 37 35 33 30 29 30 30 32 34 31 28 29 34 47 49 50 43 46
41 39 37 40 43 46 56 54 51 46 50 56 59 57 59 59 58 62 62 60 56 54 42 49 48 48 44 40 39 39 38 36 34 31 28 26 28 29 32 35 33 32 27 32 37 48 52 52 46
48 47 43 47 48 42 59 56 56 53 52 49 55 52 53 54 55 53 58 51 51 52 46 50 52 51 45 43 39 40 38 36 32 28 28 26 27 31 32 35 36 34 32 29 32 40 47 55 57
53 49 51 54 55 52 58 57 59 52 52 56 58 57 47 43 54 48 58 53 51 57 53 50 54 53 48 46 42 39 38 37 32 30 30 27 28 33 31 33 37 36 32 29 29 36 38 44 53
55 57 57 57 57 56 57 60 65 57 55 63 60 55 58 50 41 52 57 56 51 56 60 49 55 54 53 50 46 42 39 39 36 33 32 29 30 31 32 31 34 33 32 31 27 34 37 38 44
63 61 63 62 63 62 58 60 64 67 59 66 74 77 71 58 48 46 57 62 53 56 66 52 54 56 55 52 50 43 43 41 37 34 35 33 31 31 31 30 32 30 28 30 28 28 34 33 33
64 67 64 65 65 62 63 63 67 67 68 85 87 82 79 75 64 50 57 64 59 57 63 55 55 58 56 55 53 46 41 40 39 38 38 39 32 31 31 27 32 30 29 29 28 26 30 31 30
68 70 69 65 65 68 70 68 66 70 88 88 93 93 88 86 73 56 53 66 62 61 63 65 59 60 58 56 54 50 44 43 44 43 44 39 33 30 29 29 32 30 27 29 28 26 27 30 27
67 62 62 68 73 78 79 76 83 85 91 91 92 94 91 82 71 61 54 67 69 66 65 67 66 62 59 58 57 55 51 45 42 42 38 36 36 30 31 31 30 34 29 29 28 28 25 29 29
63 65 72 76 83 88 92 88 91 92 96 94 92 87 88 83 73 58 56 62 71 69 74 69 72 66 63 61 59 59 55 47 40 43 40 37 40 36 32 33 34 34 32 27 28 29 26 27 30
73 74 77 85 93 99 101 90 86 87 82 80 79 79 79 83 80 62 58 61 73 74 75 77 74 72 66 64 61 59 57 49 41 42 38 39 42 42 36 36 35 34 35 33 27 29 30 24 28
82 83 85 82 81 87 96 82 73 79 81 74 73 74 76 75 84 68 62 66 72 76 78 77 77 73 70 68 62 60 57 51 48 45 46 44 45 46 40 36 35 36 36 35 30 30 29 26 27
80 84 79 79 78 86 91 84 75 74 77 77 74 72 72 75 73 80 66 69 73 82 79 78 76 75 71 69 62 61 56 52 54 51 46 48 50 50 44 38 38 38 38 37 37 33 32 28 26
79 77 79 79 85 88 91 83 76 75 78 81 77 74 74 74 76 78 71 70 75 83 81 77 76 74 72 67 64 62 60 56 54 52 50 52 53 51 45 40 40 40 38 39 39 40 35 33 30
81 82 84 78 88 95 93 74 73 78 79 84 82 78 77 78 80 77 76 69 76 84 84 81 76 74 68 67 67 63 62 60 54 53 55 54 54 49 45 40 40 41 39 38 37 36 40 37 34
89 91 86 89 87 94 105 81 74 76 86 75 77 80 80 81 82 77 73 72 71 79 86 84 78 74 70 72 72 64 61 57 54 56 56 53 50 49 42 41 39 40 41 38 35 36 39 40 37
89 93 94 96 100 95 98 77 64 78 81 80 74 77 75 79 85 75 70 71 69 76 86 87 82 77 70 74 70 63 61 57 54 54 51 49 48 43 39 42 37 42 39 35 33 37 42 40 40
95 98 100 102 100 95 89 88 63 65 64 67 59 62 68 74 76 73 64 66 70 74 86 86 83 76 71 69 65 63 60 56 56 52 47 47 41 41 42 42 41 40 33 33 38 41 42 41 41
101 100 103 102 95 81 82 74 57 57 48 51 45 48 57 62 61 62 59 62 68 64 78 79 81 80 73 67 64 63 59 56 50 49 47 38 41 43 42 41 43 41 37 42 43 43 42 43 40
111 112 107 95 82 77 72 63 58 51 42 39 32 36 39 44 47 46 48 53 60 69 76 79 80 81 71 67 66 63 59 52 52 48 39 41 44 44 43 42 39 40 42 45 45 47 44 40 38
108 107 102 84 71 60 60 56 53 46 36 27 28 24 19 19 30 40 45 52 60 68 76 78 78 78 74 66 62 59 55 50 45 41 42 45 45 47 45 45 41 45 47 50 48 47 45 43 40
107 109 99 79 69 57 47 48 45 36 28 19 14 11 16 24 30 35 41 51 58 67 74 74 75 76 72 64 68 56 52 48 50 47 47 49 48 47 46 47 50 46 48 48 45 44 45 42 38
116 100 86 75 54 47 42 39 35 25 16 8 8 9 17 19 21 27 40 49 56 64 70 73 73 70 71 58 59 56 59 55 51 50 47 46 49 51 52 55 50 50 46 45 45 43 46 42 39
115 96 78 62 49 35 35 29 28 18 15 15 25 29 27 29 26 19 24 35 46 56 64 65 69 72 71 66 64 66 58 54 54 53 54 54 53 57 54 52 51 50 48 46 40 44 46 44 40
103 84 70 52 43 31 29 23 20 17 17 23 39 43 36 35 28 19 30 41 45 50 59 65 71 72 72 70 63 70 66 63 60 59 60 56 54 54 55 56 54 50 50 54 50 46 45 46 44

GFSSGP_250_spd_132.txt.gz
Wind_Speed
79 78 78 79 77 79 84 88 87 84 86 84 81 80 80 79 79 79 78 77 75 76 76 73 72 69 67 67 65 66 66 63 63 62 62 61 61 59 59 55 49 47 43 41 38 37 38 41 38
81 83 82 83 81 82 86 88 88 88 90 89 88 88 87 87 85 84 83 82 82 79 79 74 70 70 67 67 64 62 60 59 59 58 57 58 56 56 54 50 46 41 39 34 36 36 41 40 39
71 73 76 74 71 78 84 83 88 88 90 89 90 94 93 91 88 86 86 86 86 80 79 77 72 69 66 63 61 58 55 55 53 53 52 52 50 51 49 45 43 40 36 34 35 37 39 42 41
38 43 45 42 46 50 55 62 69 69 73 72 79 86 88 90 90 89 86 86 83 80 82 77 74 70 66 60 56 54 52 49 50 47 46 46 45 46 44 39 36 36 32 32 33 36 39 46 44
27 33 32 35 44 50 55 60 59 55 61 60 56 64 67 67 69 69 70 71 77 73 77 76 69 68 59 54 52 51 49 46 46 43 41 43 42 40 37 36 33 33 28 29 32 33 36 47 45
30 33 32 33 39 44 51 48 48 53 57 56 51 51 52 56 63 66 64 61 62 61 64 63 57 61 57 49 48 46 44 43 42 40 40 40 39 36 33 29 29 30 28 27 29 33 39 40 48
35 34 35 40 47 51 53 48 45 45 51 56 55 53 49 45 49 48 53 58 58 59 59 57 56 52 52 46 46 46 44 42 40 39 40 37 36 33 30 28 27 29 29 29 27 34 35 40 47
42 39 41 46 52 52 55 53 55 54 55 60 53 52 51 47 40 40 40 42 48 52 55 56 56 55 52 46 48 48 46 43 40 40 39 37 31 28 26 29 27 29 29 29 31 34 32 34 40
47 47 50 53 56 55 57 56 60 61 57 62 61 54 46 41 47 38 40 42 47 43 52 53 56 54 54 51 49 50 48 45 44 40 39 38 30 28 27 28 27 29 30 31 29 27 30 30 30
55 58 59 59 60 60 60 60 61 61 61 63 65 59 47 43 45 43 49 48 49 51 49 53 57 53 53 56 51 52 50 48 46 42 41 38 34 30 29 28 27 28 28 29 31 27 25 30 30
59 62 64 65 64 63 63 62 63 65 63 61 61 62 60 51 52 55 56 53 57 58 54 58 59 59 55 58 54 54 52 50 49 45 41 40 37 31 30 29 28 27 27 27 30 29 28 30 27
62 67 69 71 72 69 65 63 66 64 61 63 65 67 71 64 65 66 69 65 61 60 58 52 64 60 58 60 60 56 54 52 48 46 42 41 36 35 31 33 26 26 28 29 28 27 26 26 22
67 69 72 73 73 73 68 62 56 59 65 67 70 75 78 81 79 79 77 74 67 62 57 51 62 66 62 61 62 60 56 52 49 47 43 41 39 37 33 32 25 24 25 30 31 28 25 24 22
72 76 77 76 72 66 59 60 63 66 69 78 82 85 89 92 94 86 81 79 76 67 60 55 60 68 70 66 64 63 59 54 51 50 45 42 39 39 36 31 24 26 28 29 31 28 26 24 22
73 72 70 67 63 64 61 63 72 78 80 84 90 93 92 92 89 84 78 77 73 64 64 61 62 67 72 71 69 64 62 57 55 51 48 43 37 39 37 36 31 29 29 30 31 29 27 26 22
71 67 61 66 70 72 75 68 74 84 87 84 82 85 87 82 87 79 75 74 71 66 66 68 63 69 70 73 74 69 64 60 58 54 52 45 38 37 33 38 36 33 31 32 31 31 29 29 26
61 58 67 71 77 81 86 77 64 81 85 83 83 80 82 85 81 82 80 74 68 64 69 71 68 73 73 74 75 74 68 63 61 58 56 49 40 40 38 36 39 36 35 33 31 32 31 30 33
63 70 76 81 83 84 82 75 70 68 83 84 83 86 86 84 79 84 84 80 73 66 67 73 76 78 78 76 78 72 70 65 63 62 58 53 44 43 46 45 45 39 39 35 34 34 32 32 32
76 79 79 87 88 87 84 79 71 78 84 88 92 93 93 92 83 89 85 85 79 73 67 69 82 83 84 80 77 74 68 71 66 64 59 53 47 44 43 48 44 43 41 38 36 35 32 30 30
80 82 80 72 79 82 82 74 79 86 92 97 96 93 92 89 88 82 87 85 83 76 69 65 78 89 90 84 79 77 74 73 70 63 60 54 52 47 46 46 47 48 43 40 34 33 32 31 32
77 78 76 76 76 86 92 79 81 89 93 93 96 85 74 72 79 82 83 85 87 79 71 65 72 88 92 89 85 79 76 71 67 64 60 60 55 49 49 49 49 49 44 41 36 33 32 31 28
79 79 82 84 85 84 104 90 78 92 88 85 86 81 63 60 68 75 78 85 85 80 75 67 70 83 90 95 89 80 75 71 68 68 64 62 53 50 50 50 49 47 43 41 35 35 31 28 29
82 84 85 88 95 94 102 99 80 88 72 69 68 64 58 51 53 65 68 77 80 78 73 67 70 77 88 95 90 79 76 71 71 68 64 59 53 50 49 48 47 46 43 40 36 36 34 34 34
86 87 90 96 97 94 102 100 90 81 68 57 53 44 41 41 44 54 62 68 68 63 57 55 58 68 80 89 83 75 75 74 69 65 61 53 50 49 48 49 48 47 43 40 39 40 36 36 38
88 93 95 97 97 88 101 89 85 65 57 50 42 31 24 29 38 40 46 54 54 40 48 44 54 63 76 86 78 77 76 71 68 65 58 52 50 48 49 45 47 44 40 38 38 37 36 39 41
91 96 97 97 90 73 104 81 64 60 50 41 30 23 23 27 30 32 37 46 49 44 47 51 61 66 78 86 83 77 75 71 70 64 57 53 50 49 47 49 42 42 40 39 39 38 39 43 44
92 93 101 102 96 82 84 69 65 50 40 28 21 19 19 21 25 27 30 35 40 47 55 55 58 69 82 90 83 74 73 71 70 65 60 54 55 50 49 50 46 42 41 39 39 38 43 44 46
94 102 108 113 94 72 82 59 52 41 24 19 16 16 18 19 23 23 26 33 39 43 46 54 62 67 77 85 80 75 69 67 60 52 53 53 55 50 51 48 45 43 42 39 43 50 45 42 42
102 109 113 112 95 67 57 54 40 24 13 16 13 14 18 20 20 22 19 24 29 40 49 54 58 59 68 77 70 65 64 60 55 47 48 50 55 58 50 45 46 44 45 46 50 54 45 44 43
107 112 116 103 86 71 52 47 29 15 9 17 21 23 24 21 23 26 21 18 28 39 48 54 59 62 64 62 62 62 63 59 63 49 48 51 52 49 44 45 48 49 49 49 53 55 50 47 47